[[{"header":{"parameterUnit":"m.s-1","parameterCategory":1,"la1":31.0,"la2":29.5877,"lo1":-88.7671,"lo2":-86.6584,"dx":0.0162,"dy":0.0185,"nx":115,"ny":88,"refTime":"2023-02-04T06:00:00:Z","depth":0,"parameterNumber":2,"parameterNumberName":"U-component_of_WINDS"},"data":[0.0,0.0,0.0,0.0,0.0,0.0,0.0,0.0,0.0,0.0,0.0,0.0,0.0,0.0,0.0,0.0,0.0,0.0,0.0,0.0,0.0,0.0,0.0,0.0,0.0,0.0,0.0,0.0,0.0,0.0,0.0,0.0,0.0,0.0,0.0,0.0,0.0,0.0,0.0,0.0,0.0,0.0,0.0,0.0,0.0,0.0,0.0,0.0,0.0,0.0,0.0,0.0,0.0,0.0,0.0,0.0,0.0,0.0,0.0,0.0,0.0,0.0,0.0,0.0,0.0,0.0,0.0,0.0,0.0,0.0,0.0,0.0,0.0,0.0,0.0,0.0,0.0,0.0,0.0,0.0,0.0,0.0,0.0,0.0,0.0,0.0,0.0,0.0,0.0,0.0,0.0,0.0,0.0,0.0,0.0,0.0,0.0,0.0,0.0,0.0,0.0,0.0,0.0,0.0,0.0,0.0,0.0,0.0,0.0,0.0,0.0,0.0,0.0,0.0,0.0,0.0,0.0,0.0,0.0,0.0,0.0,0.0,0.0,0.0,0.0,0.0,0.0,0.0,0.0,0.0,0.0,0.0,0.0,0.0,0.0,0.0,0.0,0.0,0.0,0.0,0.0,0.0,0.0,0.0,0.0,0.0,0.0,0.0,0.0,0.0,0.0,0.0,0.0,0.0,0.0,0.0,0.0,0.0,0.0,0.0,0.0,0.0,0.0,0.0,0.0,0.0,0.0,0.0,0.0,0.0,0.0,0.0,0.0,0.0,0.0,0.0,0.0,0.0,0.0,0.0,0.0,0.0,0.0,0.0,0.0,0.0,0.0,0.0,0.0,0.0,0.0,0.0,0.0,0.0,0.0,0.0,0.0,0.0,0.0,0.0,0.0,0.0,0.0,0.0,0.0,0.0,0.0,0.0,0.0,0.0,0.0,0.0,0.0,0.0,0.0,0.0,0.0,0.0,0.0,0.0,0.0,0.0,0.0,0.0,0.0,0.0,0.0,0.0,0.0,0.0,0.0,0.0,0.0,0.0,0.0,0.0,0.0,0.0,0.0,0.0,0.0,0.0,0.0,0.0,0.0,0.0,0.0,0.0,0.0,0.0,0.0,0.0,0.0,0.0,0.0,0.0,0.0,0.0,0.0,0.0,0.0,0.0,0.0,0.0,0.0,0.0,0.0,0.0,0.0,0.0,0.0,0.0,0.0,0.0,0.0,0.0,0.0,0.0,0.0,0.0,0.0,0.0,0.0,0.0,0.0,0.0,0.0,0.0,0.0,0.0,0.0,0.0,0.0,0.0,0.0,0.0,0.0,0.0,0.0,0.0,0.0,0.0,0.0,0.0,0.0,0.0,0.0,0.0,0.0,0.0,0.0,0.0,0.0,0.0,0.0,0.0,0.0,0.0,0.0,0.0,0.0,0.0,0.0,0.0,0.0,0.0,0.0,0.0,0.0,0.0,0.0,0.0,0.0,0.0,0.0,0.0,0.0,0.0,0.0,0.0,0.0,0.0,0.0,0.0,0.0,0.0,0.0,0.0,0.0,0.0,0.0,0.0,0.0,0.0,0.0,0.0,0.0,0.0,0.0,0.0,0.0,0.0,0.0,0.0,0.0,0.0,0.0,0.0,0.0,0.0,0.0,0.0,0.0,0.0,0.0,0.0,0.0,0.0,0.0,0.0,0.0,0.0,0.0,0.0,0.0,0.0,0.0,0.0,0.0,0.0,0.0,0.0,0.0,0.0,0.0,0.0,0.0,0.0,0.0,0.0,0.0,0.0,0.0,0.0,0.0,0.0,0.0,0.0,0.0,0.0,0.0,0.0,0.0,0.0,0.0,0.0,0.0,0.0,0.0,0.0,0.0,0.0,0.0,0.0,0.0,0.0,0.0,0.0,0.0,0.0,0.0,0.0,0.0,0.0,0.0,0.0,0.0,0.0,0.0,0.0,0.0,0.0,0.0,0.0,0.0,0.0,0.0,0.0,0.0,0.0,0.0,0.0,0.0,0.0,0.0,0.0,0.0,0.0,0.0,0.0,0.0,0.0,0.0,0.0,0.0,0.0,0.0,0.0,0.0,0.0,0.0,0.0,0.0,0.0,0.0,0.0,0.0,0.0,0.0,0.0,0.0,0.0,0.0,0.0,0.0,0.0,0.0,0.0,0.0,0.0,0.0,0.0,0.0,0.0,0.0,0.0,0.0,0.0,0.0,0.0,0.0,0.0,0.0,0.0,0.0,0.0,0.0,0.0,0.0,0.0,0.0,0.0,0.0,0.0,0.0,0.0,0.0,0.0,0.0,0.0,0.0,0.0,0.0,0.0,0.0,0.0,0.0,0.0,0.0,0.0,0.0,0.0,0.0,0.0,0.0,0.0,0.0,0.0,0.0,0.0,0.0,0.0,0.0,0.0,0.0,0.0,0.0,0.0,0.0,0.0,0.0,0.0,0.0,0.0,0.0,0.0,0.0,0.0,0.0,0.0,0.0,0.0,0.0,0.0,0.0,0.0,0.0,0.0,0.0,0.0,0.0,0.0,0.0,0.0,0.0,0.0,0.0,0.0,0.0,0.0,0.0,0.0,0.0,0.0,0.0,0.0,0.0,0.0,0.0,0.0,0.0,0.0,0.0,0.0,0.0,0.0,0.0,0.0,0.0,0.0,0.0,0.0,0.0,0.0,0.0,0.0,0.0,0.0,0.0,0.0,0.0,0.0,0.0,0.0,0.0,0.0,0.0,0.0,0.0,0.0,0.0,0.0,0.0,0.0,0.0,0.0,0.0,0.0,0.0,0.0,0.0,0.0,0.0,0.0,0.0,0.0,0.0,0.0,0.0,0.0,0.0,0.0,0.0,0.0,0.0,0.0,0.0,0.0,0.0,0.0,0.0,0.0,0.0,0.0,0.0,0.0,0.0,0.0,0.0,0.0,0.0,0.0,0.0,0.0,0.0,0.0,0.0,0.0,0.0,0.0,0.0,0.0,0.0,0.0,0.0,0.0,0.0,0.0,0.0,0.0,0.0,0.0,0.0,0.0,0.0,0.0,0.0,0.0,0.0,0.0,0.0,0.0,0.0,0.0,0.0,0.0,0.0,0.0,0.0,0.0,0.0,0.0,0.0,0.0,0.0,0.0,0.0,0.0,0.0,0.0,0.0,0.0,0.0,0.0,0.0,0.0,0.0,0.0,0.0,0.0,0.0,0.0,0.0,0.0,0.0,0.0,0.0,0.0,0.0,0.0,0.0,0.0,0.0,0.0,0.0,0.0,0.0,0.0,0.0,0.0,0.0,0.0,0.0,0.0,0.0,0.0,0.0,0.0,0.0,0.0,0.0,0.0,0.0,0.0,0.0,0.0,0.0,0.0,0.0,0.0,0.0,0.0,0.0,0.0,0.0,0.0,0.0,0.0,0.0,0.0,0.0,0.0,0.0,0.0,0.0,0.0,0.0,0.0,0.0,0.0,0.0,0.0,0.0,0.0,0.0,0.0,0.0,0.0,0.0,0.0,0.0,0.0,0.0,0.0,0.0,0.0,0.0,0.0,0.0,0.0,0.0,0.0,0.0,0.0,0.0,0.0,0.0,0.0,0.0,0.0,0.0,0.0,0.0,0.0,0.0,0.0,0.0,0.0,0.0,0.0,0.0,0.0,0.0,0.0,0.0,0.0,0.0,0.0,0.0,0.0,0.0,0.0,0.0,0.0,0.0,0.0,0.0,0.0,0.0,0.0,0.0,0.0,0.0,0.0,0.0,0.0,0.0,0.0,0.0,0.0,0.0,0.0,0.0,0.0,0.0,0.0,0.0,0.0,0.0,0.0,0.0,0.0,0.0,0.0,0.0,0.0,0.0,0.0,0.0,0.0,0.0,0.0,0.0,0.0,0.0,0.0,0.0,0.0,0.0,0.0,0.0,0.0,0.0,0.0,0.0,0.0,0.0,0.0,0.0,0.0,0.0,0.0,0.0,0.0,0.0,0.0,0.0,0.0,0.0,0.0,0.0,0.0,0.0,0.0,0.0,0.0,0.0,0.0,0.0,0.0,0.0,0.0,0.0,0.0,0.0,0.0,0.0,0.0,0.0,0.0,0.0,0.0,0.0,0.0,0.0,0.0,0.0,0.0,0.0,0.0,0.0,0.0,0.0,0.0,0.0,0.0,0.0,0.0,0.0,0.0,0.0,0.0,0.0,0.0,0.0,0.0,0.0,0.0,0.0,0.0,0.0,0.0,0.0,0.0,0.0,0.0,0.0,0.0,0.0,0.0,0.0,0.0,0.0,0.0,0.0,0.0,1.2344,0.0,0.0,0.0,0.0,0.0,0.0,0.0,0.0,0.0,0.0,0.0,0.0,0.0,0.0,0.0,0.0,0.0,0.0,0.0,0.0,0.0,0.0,0.0,0.0,0.0,0.0,0.0,0.0,0.0,0.0,0.0,0.0,0.0,0.0,0.0,0.0,0.0,0.0,0.0,0.0,0.0,0.0,0.0,0.0,0.0,0.0,0.0,0.0,0.0,0.0,0.0,0.0,0.0,0.0,0.0,0.0,0.0,0.0,0.0,0.0,0.0,0.0,0.0,0.0,0.0,0.0,0.0,0.0,0.0,0.0,0.0,0.0,0.0,0.0,0.0,0.0,0.0,0.0,0.0,0.0,0.0,0.0,0.0,0.0,0.0,0.0,0.0,0.0,0.0,0.0,0.0,0.0,0.0,0.0,0.0,0.0,0.0,0.0,0.0,0.0,0.0,0.0,0.0,0.0,0.0,0.0,0.0,0.0,0.0,0.0,1.2564,1.2646,1.2542,1.2512,1.2512,0.0,0.0,0.0,0.0,0.0,0.0,0.0,0.0,0.0,0.0,0.0,0.0,0.0,0.0,0.0,0.0,0.0,0.0,0.0,0.0,0.0,0.0,0.0,0.0,0.0,0.0,0.0,0.0,0.0,0.0,0.0,0.0,0.0,0.0,0.0,0.0,0.0,0.0,0.0,0.0,0.0,0.0,0.0,0.0,0.0,0.0,0.0,0.0,0.0,0.0,0.0,0.0,0.0,0.0,0.0,0.0,0.0,0.0,0.0,0.0,0.0,0.0,0.0,0.0,0.0,0.0,0.0,0.0,0.0,0.0,0.0,0.0,0.0,0.0,0.0,0.0,0.0,0.0,0.0,0.0,0.0,0.0,0.0,0.0,0.0,0.0,0.0,0.0,0.0,0.0,0.0,0.0,0.0,0.0,0.0,0.0,0.0,0.0,0.0,0.0,0.0,0.0,0.0,0.0,0.0,0.0,0.0,0.0,0.0,0.0,0.0,0.0,1.3075,1.3041,1.3207,0.0,0.0,0.0,0.0,0.0,0.0,0.0,0.0,0.0,0.0,0.0,0.0,0.0,0.0,0.0,0.0,0.0,0.0,0.0,0.0,0.0,0.0,0.0,0.0,0.0,0.0,0.0,0.0,0.0,0.0,0.0,0.0,0.0,0.0,0.0,0.0,0.0,0.0,0.0,0.0,0.0,0.0,0.0,0.0,0.0,0.0,0.0,0.0,0.0,0.0,0.0,0.0,0.0,0.0,0.0,0.0,0.0,0.0,0.0,0.0,0.0,0.0,0.0,0.0,0.0,0.0,0.0,0.0,0.0,0.0,0.0,0.0,0.0,0.0,0.0,0.0,0.0,0.0,0.0,0.0,0.0,0.0,0.0,0.0,0.0,0.0,0.0,0.0,0.0,0.0,0.0,0.0,0.0,0.0,0.0,0.0,0.0,0.0,0.0,0.0,0.0,0.0,0.0,0.0,0.0,0.0,0.0,0.0,0.0,0.0,1.3125,1.4379,1.4393,0.0,1.525,0.0,0.0,0.0,0.0,0.0,0.0,0.0,0.0,0.0,0.0,0.0,0.0,0.0,0.0,0.0,0.0,0.0,0.0,0.0,0.0,0.0,0.0,0.0,0.0,0.0,0.0,0.0,0.0,0.0,0.0,0.0,0.0,0.0,0.0,0.0,0.0,0.0,0.0,0.0,0.0,0.0,0.0,0.0,0.0,0.0,0.0,0.0,0.0,0.0,0.0,0.0,0.0,0.0,0.0,0.0,0.0,0.0,0.0,0.0,0.0,0.0,0.0,0.0,0.0,0.0,0.0,0.0,0.0,0.0,0.0,0.0,0.0,0.0,0.0,0.0,0.0,0.0,0.0,0.0,0.0,0.0,0.0,0.0,0.0,0.0,0.0,0.0,0.0,0.0,0.0,0.0,0.0,0.0,0.0,0.0,0.0,0.0,0.0,0.0,0.0,0.0,0.0,0.0,0.0,0.0,0.0,0.0,0.0,0.0,0.0,1.2949,1.3908,1.3939,1.4287,0.0,0.0,0.0,0.0,0.0,0.0,0.0,0.0,0.0,0.0,0.0,0.0,0.0,0.0,0.0,0.0,0.0,0.0,0.0,0.0,0.0,0.0,0.0,0.0,0.0,0.0,0.0,0.0,0.0,0.0,0.0,0.0,0.0,0.0,0.0,0.0,0.0,0.0,0.0,0.0,0.0,0.0,0.0,0.0,0.0,0.0,0.0,0.0,0.0,0.0,0.0,0.0,0.0,0.0,0.0,0.0,0.0,0.0,0.0,0.0,0.0,0.0,0.0,0.0,0.0,0.0,0.0,0.0,0.0,0.0,0.0,0.0,0.0,0.0,0.0,0.0,0.0,0.0,0.0,0.0,0.0,0.0,0.0,0.0,0.0,0.0,0.0,0.0,0.0,0.0,0.0,0.0,0.0,0.0,0.0,0.0,0.0,0.0,0.0,0.0,0.0,0.0,0.0,0.0,0.0,0.0,0.0,0.0,0.0,0.0,1.3024,1.3173,1.4,1.3531,1.3755,1.483,0.0,0.0,0.0,0.0,0.0,0.0,0.0,0.0,0.0,0.0,0.0,0.0,0.0,0.0,0.0,0.0,0.0,0.0,0.0,0.0,0.0,0.0,0.0,0.0,0.0,0.0,0.0,0.0,0.0,0.0,0.0,0.0,0.0,0.0,0.0,0.0,0.0,0.0,0.0,0.0,0.0,0.0,0.0,0.0,0.0,0.0,0.0,0.0,0.0,0.0,0.0,0.0,0.0,0.0,0.0,0.0,0.0,0.0,0.0,0.0,0.0,0.0,0.0,0.0,0.0,0.0,0.0,0.0,0.0,0.0,0.0,0.0,0.0,0.0,0.0,0.0,0.0,0.0,0.0,0.0,0.0,0.0,0.0,0.0,0.0,0.0,0.0,0.0,0.0,0.0,0.0,0.0,0.0,0.0,0.0,0.0,0.0,0.0,0.0,0.0,0.0,0.0,0.0,0.0,0.0,0.0,0.0,0.0,1.5626,1.4233,1.4103,1.5345,1.3584,1.3494,0.0,0.0,0.0,0.0,0.0,0.0,0.0,0.0,0.0,0.0,0.0,0.0,0.0,0.0,0.0,0.0,0.0,0.0,0.0,0.0,0.0,0.0,0.0,0.0,0.0,0.0,0.0,0.0,0.0,0.0,0.0,0.0,0.0,0.0,0.0,0.0,0.0,0.0,0.0,0.0,0.0,0.0,0.0,0.0,0.0,0.0,0.0,0.0,0.0,0.0,0.0,0.0,0.0,0.0,0.0,0.0,0.0,0.0,0.0,0.0,0.0,0.0,0.0,0.0,0.0,0.0,0.0,0.0,0.0,0.0,0.0,0.0,0.0,0.0,0.0,0.0,0.0,0.0,0.0,0.0,0.0,0.0,0.0,0.0,0.0,0.0,0.0,0.0,0.0,0.0,0.0,0.0,0.0,0.0,0.0,0.0,0.0,0.0,0.0,0.0,0.0,0.0,0.0,0.0,0.0,0.0,0.0,0.0,0.0,1.3876,1.3656,1.3752,1.4201,1.3526,1.3721,0.0,0.0,0.0,0.0,0.0,0.0,0.0,0.0,0.0,0.0,0.0,0.0,0.0,0.0,0.0,0.0,0.0,0.0,0.0,0.0,0.0,0.0,0.0,0.0,0.0,0.0,0.0,0.0,0.0,0.0,0.0,0.0,0.0,0.0,0.0,0.0,0.0,0.0,0.0,0.0,0.0,0.0,0.0,0.0,0.0,0.0,0.0,0.0,0.0,0.0,0.0,0.0,0.0,0.0,0.0,0.0,0.0,0.0,0.0,0.0,0.0,0.0,0.0,0.0,0.0,0.0,0.0,0.0,0.0,0.0,0.0,0.0,0.0,0.0,0.0,0.0,0.0,0.0,0.0,0.0,0.0,0.0,0.0,0.0,0.0,0.0,0.0,0.0,0.0,0.0,0.0,0.0,0.0,0.0,0.0,0.0,0.0,0.0,0.0,0.0,0.0,0.0,0.0,0.0,0.0,0.0,0.0,0.0,0.0,1.3028,0.0,1.3598,1.3499,1.3281,1.3402,0.0,0.0,0.0,0.0,0.0,0.0,0.0,0.0,0.0,0.0,0.0,0.0,0.0,0.0,0.0,0.0,0.0,0.0,0.0,0.0,0.0,0.0,0.0,0.0,0.0,0.0,0.0,0.0,0.0,0.0,0.0,0.0,0.0,0.0,0.0,0.0,0.0,0.0,0.0,0.0,0.0,0.0,0.0,0.0,0.0,0.0,0.0,0.0,0.0,0.0,0.0,0.0,0.0,0.0,0.0,0.0,0.0,0.0,0.0,0.0,0.0,0.0,0.0,0.0,0.0,0.0,0.0,0.0,0.0,0.0,0.0,0.0,0.0,0.0,0.0,0.0,0.0,0.0,0.0,0.0,0.0,0.0,0.0,0.0,0.0,0.0,0.0,0.0,0.0,0.0,0.0,0.0,0.0,0.0,0.0,0.0,0.0,0.0,0.0,0.0,0.0,0.0,0.0,0.0,0.0,0.0,0.0,0.0,1.3234,1.3471,1.3732,1.3789,1.3542,1.2923,1.2578,0.0,0.0,0.0,0.0,0.0,0.0,0.0,0.0,0.0,0.0,0.0,0.0,0.0,0.0,0.0,0.0,0.0,0.0,0.0,0.0,0.0,0.0,0.0,0.0,0.0,0.0,0.0,0.0,0.0,0.0,0.0,0.0,0.0,0.0,0.0,0.0,0.0,0.0,0.0,0.0,0.0,0.0,0.0,0.0,0.0,0.0,0.0,0.0,0.0,0.0,0.0,0.0,0.0,0.0,0.0,0.0,0.0,0.0,0.0,0.0,0.0,0.0,0.0,0.0,0.0,0.0,0.0,0.0,0.0,0.0,0.0,0.0,0.0,0.0,0.0,0.0,0.0,0.0,0.0,0.0,0.0,0.0,0.0,0.0,0.0,0.0,0.0,0.0,0.0,0.0,0.0,0.0,0.0,0.0,0.0,0.0,0.0,0.0,0.0,0.0,0.0,0.0,0.0,0.0,0.0,0.0,0.0,0.0,0.0,1.3031,1.3405,1.4062,1.4839,1.3813,1.3873,0.0,0.0,0.0,0.0,0.0,0.0,0.0,0.0,0.0,0.0,0.0,0.0,0.0,0.0,0.0,0.0,0.0,0.0,0.0,0.0,0.0,0.0,0.0,0.0,0.0,0.0,0.0,0.0,0.0,0.0,0.0,0.0,0.0,0.0,0.0,0.0,0.0,0.0,0.0,0.0,0.0,0.0,0.0,0.0,0.0,0.0,0.0,0.0,0.0,0.0,0.0,0.0,0.0,0.0,0.0,0.0,0.0,0.0,0.0,0.0,0.0,0.0,0.0,0.0,0.0,0.0,0.0,0.0,0.0,0.0,0.0,0.0,0.0,0.0,0.0,0.0,0.0,0.0,0.0,0.0,0.0,0.0,0.0,0.0,0.0,0.0,0.0,0.0,0.0,0.0,0.0,0.0,0.0,0.0,0.0,0.0,0.0,0.0,0.0,0.0,0.0,0.0,0.0,0.0,0.0,0.0,0.0,0.0,0.0,1.3991,1.4179,1.4574,1.521,1.4615,1.4638,1.5381,0.0,0.0,0.0,0.0,0.0,0.0,0.0,0.0,0.0,0.0,0.0,0.0,0.0,0.0,0.0,0.0,0.0,0.0,0.0,0.0,0.0,0.0,0.0,0.0,0.0,0.0,0.0,0.0,0.0,0.0,0.0,0.0,0.0,0.0,0.0,0.0,0.0,0.0,0.0,0.0,0.0,0.0,0.0,0.0,0.0,0.0,0.0,0.0,0.0,0.0,0.0,0.0,0.0,0.0,0.0,0.0,0.0,0.0,0.0,0.0,0.0,0.0,0.0,0.0,0.0,0.0,0.0,0.0,0.0,0.0,0.0,0.0,0.0,0.0,0.0,0.0,0.0,0.0,0.0,0.0,0.0,0.0,0.0,0.0,0.0,0.0,0.0,0.0,0.0,0.0,0.0,0.0,0.0,0.0,0.0,0.0,0.0,0.0,0.0,0.0,0.0,0.0,0.0,0.0,0.0,0.0,0.0,0.0,1.5985,1.5974,1.5655,1.5014,1.546,1.5112,0.0,0.0,0.0,0.0,0.0,0.0,0.0,0.0,0.0,0.0,0.0,0.0,0.0,0.0,0.0,0.0,0.0,0.0,0.0,0.0,0.0,0.0,0.0,0.0,0.0,0.0,0.0,0.0,0.0,0.0,0.0,0.0,0.0,0.0,0.0,0.0,0.0,0.0,0.0,0.0,0.0,0.0,0.0,0.0,0.0,0.0,0.0,0.0,0.0,0.0,0.0,0.0,0.0,0.0,0.0,0.0,0.0,0.0,0.0,0.0,0.0,0.0,0.0,0.0,0.0,0.0,0.0,0.0,0.0,0.0,0.0,0.0,0.0,0.0,0.0,0.0,0.0,0.0,0.0,0.0,0.0,0.0,0.0,0.0,0.0,0.0,0.0,0.0,0.0,0.0,0.0,0.0,0.0,0.0,0.0,0.0,0.0,0.0,0.0,0.0,0.0,0.0,0.0,0.0,0.0,0.0,0.0,0.0,0.0,1.7253,1.917,1.9645,1.8476,1.7592,1.722,0.0,0.0,0.0,0.0,0.0,0.0,0.0,0.0,0.0,0.0,0.0,0.0,0.0,0.0,0.0,0.0,0.0,0.0,0.0,0.0,0.0,0.0,0.0,0.0,0.0,0.0,0.0,0.0,0.0,0.0,0.0,0.0,0.0,0.0,0.0,0.0,0.0,0.0,0.0,0.0,0.0,0.0,0.0,0.0,0.0,0.0,0.0,0.0,0.0,0.0,0.0,0.0,0.0,0.0,0.0,0.0,0.0,0.0,0.0,0.0,0.0,0.0,0.0,0.0,0.0,0.0,0.0,0.0,0.0,0.0,0.0,0.0,0.0,0.0,0.0,0.0,0.0,0.0,0.0,0.0,0.0,0.0,0.0,0.0,0.0,0.0,0.0,0.0,0.0,0.0,0.0,0.0,0.0,0.0,0.0,0.0,0.0,0.0,0.0,0.0,0.0,0.0,0.0,0.0,0.0,0.0,0.0,0.0,1.801,1.9129,2.1452,2.2316,2.1536,2.0182,1.8918,0.0,0.0,0.0,0.0,0.0,0.0,0.0,0.0,0.0,0.0,0.0,0.0,0.0,0.0,0.0,0.0,0.0,0.0,0.0,0.0,0.0,0.0,0.0,0.0,0.0,0.0,0.0,0.0,0.0,0.0,0.0,0.0,0.0,0.0,0.0,0.0,0.0,0.0,0.0,0.0,0.0,0.0,0.0,0.0,0.0,0.0,0.0,0.0,0.0,0.0,0.0,0.0,0.0,0.0,0.0,0.0,0.0,0.0,0.0,0.0,0.0,0.0,0.0,0.0,0.0,0.0,0.0,0.0,0.0,0.0,0.0,0.0,0.0,0.0,0.0,0.0,0.0,0.0,0.0,0.0,0.0,0.0,0.0,0.0,0.0,0.0,0.0,0.0,0.0,0.0,0.0,0.0,0.0,0.0,0.0,0.0,0.0,0.0,0.0,0.0,0.0,0.0,0.0,0.0,0.0,0.0,0.0,0.0,1.9548,2.1043,2.2988,2.3972,2.3877,2.2596,2.0352,0.0,0.0,0.0,0.0,0.0,0.0,0.0,0.0,0.0,0.0,0.0,0.0,0.0,0.0,0.0,0.0,0.0,0.0,0.0,0.0,0.0,0.0,0.0,0.0,0.0,0.0,0.0,0.0,0.0,0.0,0.0,0.0,0.0,0.0,0.0,0.0,0.0,0.0,0.0,0.0,0.0,0.0,0.0,0.0,0.0,0.0,0.0,0.0,0.0,0.0,0.0,0.0,0.0,0.0,0.0,0.0,0.0,0.0,0.0,0.0,0.0,0.0,0.0,0.0,0.0,0.0,0.0,0.0,0.0,0.0,0.0,0.0,0.0,0.0,0.0,0.0,0.0,0.0,0.0,0.0,0.0,0.0,0.0,0.0,0.0,0.0,0.0,0.0,0.0,0.0,0.0,0.0,0.0,0.0,0.0,0.0,0.0,0.0,0.0,0.0,0.0,0.0,0.0,0.0,0.0,0.0,0.0,0.0,1.9988,2.0896,2.3418,2.4501,2.3909,2.2591,2.0999,0.0,0.0,0.0,0.0,0.0,0.0,0.0,0.0,0.0,0.0,0.0,0.0,0.0,0.0,0.0,0.0,0.0,0.0,0.0,0.0,0.0,0.0,0.0,0.0,0.0,0.0,0.0,0.0,0.0,0.0,0.0,0.0,0.0,0.0,0.0,0.0,0.0,0.0,0.0,0.0,0.0,0.0,0.0,0.0,0.0,0.0,0.0,0.0,2.2688,0.0,0.0,0.0,0.0,0.0,0.0,0.0,0.0,0.0,0.0,0.0,0.0,0.0,0.0,0.0,0.0,0.0,0.0,0.0,0.0,0.0,0.0,0.0,0.0,0.0,0.0,0.0,0.0,0.0,0.0,0.0,0.0,0.0,0.0,0.0,0.0,0.0,0.0,0.0,0.0,0.0,0.0,0.0,0.0,0.0,0.0,0.0,0.0,0.0,0.0,0.0,0.0,0.0,0.0,0.0,0.0,0.0,0.0,0.0,2.0767,2.1783,2.3883,2.4801,2.4402,2.3083,2.154,0.0,0.0,0.0,0.0,0.0,0.0,0.0,0.0,0.0,0.0,0.0,0.0,0.0,0.0,0.0,0.0,0.0,0.0,0.0,0.0,0.0,0.0,0.0,0.0,0.0,0.0,0.0,0.0,0.0,0.0,0.0,0.0,0.0,0.0,0.0,0.0,0.0,0.0,0.0,0.0,0.0,0.0,0.0,0.0,0.0,0.0,0.0,0.0,0.0,0.0,0.0,0.0,0.0,0.0,0.0,0.0,0.0,0.0,0.0,0.0,0.0,0.0,0.0,0.0,0.0,0.0,0.0,0.0,0.0,0.0,0.0,0.0,0.0,0.0,0.0,0.0,0.0,0.0,0.0,0.0,0.0,0.0,0.0,0.0,0.0,0.0,0.0,0.0,0.0,0.0,0.0,0.0,0.0,0.0,0.0,0.0,0.0,0.0,0.0,0.0,0.0,0.0,0.0,0.0,0.0,0.0,0.0,2.0253,2.1502,2.2866,2.4268,2.4995,2.4995,2.3626,2.2031,2.0193,0.0,0.0,0.0,0.0,0.0,0.0,0.0,0.0,0.0,0.0,0.0,0.0,0.0,0.0,0.0,0.0,0.0,0.0,0.0,0.0,0.0,0.0,0.0,0.0,0.0,0.0,0.0,0.0,0.0,0.0,0.0,0.0,0.0,0.0,0.0,0.0,0.0,0.0,1.9481,2.0723,0.0,0.0,0.0,0.0,0.0,0.0,0.0,0.0,2.2785,0.0,0.0,0.0,0.0,0.0,0.0,0.0,0.0,0.0,0.0,0.0,0.0,0.0,0.0,0.0,0.0,0.0,0.0,0.0,0.0,0.0,0.0,0.0,0.0,0.0,0.0,0.0,0.0,0.0,0.0,0.0,0.0,0.0,0.0,0.0,0.0,0.0,0.0,0.0,0.0,0.0,0.0,0.0,0.0,0.0,0.0,0.0,0.0,0.0,0.0,0.0,0.0,0.0,0.0,0.0,0.0,1.9655,2.0412,2.1502,2.2898,2.4268,2.4995,2.4959,2.3635,2.2415,2.1388,0.0,0.0,0.0,0.0,0.0,0.0,0.0,0.0,0.0,0.0,0.0,0.0,0.0,0.0,0.0,0.0,0.0,0.0,0.0,0.0,0.0,0.0,0.0,0.0,0.0,0.0,0.0,0.0,0.0,0.0,0.0,0.0,0.0,0.0,0.0,0.0,0.0,0.0,0.0,2.106,2.1854,0.0,0.0,0.0,0.0,0.0,0.0,0.0,0.0,2.2919,0.0,0.0,0.0,0.0,0.0,0.0,0.0,0.0,0.0,0.0,0.0,0.0,0.0,0.0,0.0,0.0,0.0,0.0,0.0,0.0,0.0,0.0,0.0,0.0,0.0,0.0,0.0,0.0,0.0,0.0,0.0,0.0,0.0,0.0,0.0,0.0,0.0,0.0,0.0,0.0,0.0,0.0,0.0,0.0,0.0,0.0,0.0,0.0,0.0,0.0,0.0,0.0,0.0,0.0,0.0,1.9755,2.0822,2.2027,2.3386,2.4453,2.4832,2.4402,2.3421,2.233,0.0,0.0,0.0,0.0,0.0,0.0,0.0,0.0,0.0,0.0,0.0,0.0,0.0,0.0,0.0,0.0,0.0,0.0,0.0,0.0,0.0,0.0,0.0,0.0,0.0,0.0,0.0,0.0,0.0,0.0,0.0,0.0,0.0,0.0,0.0,0.0,0.0,0.0,0.0,0.0,2.1704,2.2309,2.265,0.0,0.0,0.0,0.0,0.0,0.0,2.2926,2.2957,0.0,0.0,0.0,0.0,0.0,0.0,0.0,0.0,0.0,0.0,0.0,0.0,0.0,0.0,0.0,0.0,0.0,0.0,0.0,0.0,0.0,0.0,0.0,0.0,0.0,0.0,0.0,0.0,0.0,0.0,0.0,0.0,0.0,0.0,0.0,0.0,0.0,0.0,0.0,0.0,0.0,0.0,0.0,0.0,0.0,0.0,0.0,0.0,0.0,0.0,0.0,0.0,0.0,0.0,0.0,2.0004,2.1241,2.2559,2.3845,2.4596,2.4633,2.3913,2.3194,2.2209,0.0,0.0,0.0,0.0,0.0,0.0,0.0,0.0,0.0,0.0,0.0,0.0,0.0,0.0,0.0,0.0,0.0,0.0,0.0,0.0,0.0,0.0,0.0,0.0,0.0,0.0,0.0,0.0,0.0,0.0,0.0,0.0,0.0,0.0,0.0,0.0,0.0,0.0,0.0,0.0,0.0,2.3092,2.2957,2.354,0.0,0.0,0.0,0.0,2.3371,2.3753,0.0,0.0,0.0,0.0,0.0,0.0,0.0,0.0,0.0,0.0,0.0,0.0,0.0,0.0,0.0,0.0,0.0,0.0,0.0,0.0,0.0,0.0,0.0,0.0,0.0,0.0,0.0,0.0,0.0,0.0,0.0,0.0,0.0,0.0,0.0,0.0,0.0,0.0,0.0,0.0,0.0,0.0,0.0,0.0,0.0,0.0,0.0,0.0,0.0,0.0,0.0,0.0,0.0,0.0,0.0,0.0,2.0657,2.1462,2.2532,2.3845,2.4638,2.4633,2.3909,2.3259,2.2461,0.0,0.0,0.0,0.0,0.0,0.0,0.0,0.0,0.0,0.0,0.0,0.0,0.0,0.0,0.0,0.0,0.0,0.0,0.0,0.0,0.0,0.0,0.0,0.0,0.0,0.0,0.0,0.0,0.0,0.0,0.0,0.0,0.0,0.0,0.0,0.0,0.0,0.0,0.0,0.0,0.0,2.4488,2.3781,2.4336,2.4833,0.0,0.0,2.5718,2.5722,2.7416,0.0,0.0,0.0,0.0,0.0,0.0,0.0,0.0,0.0,0.0,0.0,0.0,0.0,0.0,0.0,0.0,0.0,0.0,0.0,0.0,0.0,0.0,0.0,0.0,0.0,0.0,0.0,0.0,0.0,0.0,0.0,0.0,0.0,0.0,0.0,0.0,0.0,0.0,0.0,0.0,0.0,0.0,0.0,0.0,0.0,0.0,0.0,0.0,0.0,0.0,0.0,0.0,0.0,0.0,0.0,2.0118,2.1355,2.2094,2.3133,2.4475,2.4832,2.4479,2.3349,2.2942,2.2187,0.0,0.0,0.0,0.0,0.0,0.0,0.0,0.0,0.0,0.0,0.0,0.0,0.0,0.0,0.0,0.0,0.0,0.0,0.0,0.0,0.0,0.0,0.0,0.0,0.0,0.0,0.0,0.0,0.0,0.0,0.0,0.0,0.0,0.0,0.0,0.0,0.0,0.0,0.0,0.0,0.0,0.0,2.4584,2.5515,0.0,0.0,0.0,2.7412,2.7416,0.0,0.0,0.0,0.0,0.0,0.0,0.0,0.0,0.0,0.0,0.0,0.0,0.0,0.0,0.0,0.0,0.0,0.0,0.0,0.0,0.0,0.0,0.0,0.0,0.0,0.0,0.0,0.0,0.0,0.0,0.0,0.0,0.0,0.0,0.0,0.0,0.0,0.0,0.0,0.0,0.0,0.0,0.0,0.0,0.0,0.0,0.0,0.0,0.0,0.0,0.0,0.0,0.0,0.0,0.0,0.0,0.0,2.2045,2.2632,2.3567,2.4937,2.4961,2.4283,2.2925,2.2693,0.0,0.0,0.0,0.0,0.0,0.0,0.0,0.0,0.0,0.0,0.0,0.0,0.0,0.0,0.0,0.0,0.0,0.0,0.0,0.0,0.0,0.0,0.0,0.0,0.0,0.0,0.0,2.0799,0.0,0.0,0.0,0.0,0.0,0.0,0.0,0.0,0.0,0.0,0.0,0.0,0.0,0.0,2.6622,2.5695,2.7036,2.7945,0.0,0.0,2.9183,2.9002,2.9627,2.9705,0.0,0.0,0.0,0.0,0.0,0.0,0.0,0.0,0.0,0.0,0.0,0.0,0.0,0.0,0.0,0.0,0.0,0.0,0.0,0.0,0.0,0.0,0.0,0.0,0.0,0.0,0.0,0.0,0.0,0.0,0.0,0.0,0.0,0.0,0.0,0.0,0.0,0.0,0.0,0.0,0.0,0.0,0.0,0.0,0.0,0.0,0.0,0.0,0.0,0.0,0.0,0.0,0.0,0.0,0.0,2.2767,2.2862,2.3594,2.4932,2.4898,2.4188,2.287,2.2692,2.1931,0.0,0.0,0.0,0.0,0.0,0.0,0.0,0.0,0.0,0.0,0.0,0.0,0.0,0.0,0.0,0.0,0.0,0.0,0.0,0.0,0.0,0.0,0.0,0.0,0.0,0.0,0.0,0.0,0.0,0.0,0.0,0.0,0.0,0.0,0.0,0.0,0.0,0.0,0.0,0.0,0.0,2.8765,2.7355,2.9053,3.0429,0.0,0.0,3.1356,3.064,3.2913,3.3288,2.9075,0.0,0.0,0.0,0.0,0.0,0.0,0.0,0.0,0.0,0.0,0.0,0.0,0.0,0.0,0.0,0.0,0.0,0.0,0.0,0.0,0.0,0.0,0.0,0.0,0.0,0.0,0.0,0.0,0.0,0.0,0.0,0.0,0.0,0.0,0.0,0.0,0.0,0.0,0.0,0.0,0.0,0.0,0.0,0.0,0.0,0.0,0.0,0.0,0.0,0.0,0.0,0.0,0.0,2.1466,2.2871,2.2894,2.3562,2.4932,2.4941,2.447,2.3483,2.2903,2.2145,0.0,0.0,0.0,0.0,0.0,0.0,0.0,0.0,0.0,0.0,0.0,0.0,0.0,0.0,0.0,0.0,0.0,0.0,0.0,0.0,0.0,0.0,0.0,0.0,0.0,0.0,0.0,0.0,2.1635,2.1569,2.1988,0.0,0.0,0.0,0.0,0.0,0.0,0.0,0.0,0.0,0.0,2.9489,2.9394,3.0533,0.0,0.0,3.2007,3.2386,3.2115,3.2632,3.2356,3.0149,2.9148,0.0,0.0,0.0,0.0,0.0,0.0,0.0,0.0,0.0,0.0,0.0,0.0,0.0,0.0,0.0,0.0,0.0,0.0,0.0,0.0,0.0,0.0,0.0,0.0,0.0,0.0,0.0,0.0,0.0,0.0,0.0,0.0,0.0,0.0,0.0,0.0,0.0,0.0,0.0,0.0,0.0,0.0,0.0,0.0,0.0,0.0,0.0,0.0,0.0,0.0,0.0,0.0,2.1724,2.2894,2.3092,2.3727,2.4895,2.4876,2.4522,2.3816,2.2939,2.2201,0.0,0.0,0.0,0.0,0.0,0.0,0.0,0.0,0.0,0.0,0.0,0.0,0.0,0.0,0.0,0.0,0.0,0.0,0.0,0.0,0.0,0.0,0.0,0.0,0.0,0.0,0.0,0.0,2.1481,2.1376,2.1731,0.0,0.0,0.0,0.0,0.0,0.0,0.0,0.0,0.0,0.0,2.9795,3.0606,3.1528,3.2145,3.211,3.2554,3.2904,3.2904,3.2351,3.1559,3.0381,0.0,0.0,0.0,0.0,0.0,0.0,0.0,0.0,0.0,0.0,0.0,0.0,0.0,0.0,0.0,0.0,0.0,0.0,0.0,0.0,0.0,0.0,0.0,0.0,0.0,0.0,0.0,0.0,0.0,0.0,0.0,0.0,0.0,0.0,0.0,0.0,0.0,0.0,0.0,0.0,0.0,0.0,0.0,0.0,0.0,0.0,0.0,0.0,0.0,0.0,0.0,0.0,0.0,2.2193,2.2898,2.3477,2.4084,2.4786,2.4626,2.4229,2.3556,2.2732,2.2006,2.1328,0.0,0.0,0.0,0.0,0.0,0.0,0.0,0.0,0.0,0.0,0.0,0.0,0.0,0.0,0.0,0.0,0.0,0.0,0.0,0.0,0.0,0.0,0.0,0.0,0.0,0.0,2.1786,2.2322,2.2504,0.0,0.0,0.0,0.0,0.0,0.0,0.0,0.0,0.0,0.0,2.8549,2.9799,3.0606,3.1933,3.285,3.2869,3.2859,3.2864,3.2864,3.251,3.1534,0.0,0.0,0.0,0.0,0.0,0.0,0.0,0.0,0.0,0.0,0.0,0.0,0.0,0.0,0.0,0.0,0.0,0.0,0.0,0.0,0.0,0.0,0.0,0.0,0.0,0.0,0.0,0.0,0.0,0.0,0.0,0.0,0.0,0.0,0.0,0.0,0.0,0.0,0.0,0.0,2.1553,2.1977,0.0,0.0,0.0,0.0,0.0,0.0,0.0,0.0,0.0,0.0,0.0,0.0,2.2344,2.3445,2.3592,2.4008,2.4634,2.4605,2.4476,2.4237,2.35,2.253,2.1354,0.0,0.0,0.0,0.0,0.0,0.0,0.0,0.0,0.0,0.0,0.0,0.0,0.0,0.0,0.0,0.0,0.0,0.0,0.0,0.0,0.0,0.0,0.0,0.0,0.0,2.1222,0.0,0.0,0.0,0.0,0.0,0.0,0.0,0.0,0.0,0.0,0.0,2.6105,2.7152,2.9049,3.0386,3.0666,3.1718,3.2598,0.0,0.0,0.0,0.0,0.0,0.0,0.0,0.0,0.0,0.0,0.0,0.0,0.0,0.0,3.1783,2.8851,2.79,2.7755,2.8301,0.0,0.0,0.0,0.0,0.0,0.0,0.0,0.0,0.0,0.0,0.0,0.0,0.0,0.0,0.0,0.0,1.88,0.0,0.0,0.0,0.0,0.0,0.0,0.0,0.0,2.1501,2.1867,2.2199,2.2614,2.2569,0.0,2.2226,2.1982,0.0,0.0,0.0,0.0,0.0,0.0,0.0,0.0,2.2532,2.3351,2.3765,2.4148,2.4538,2.4502,2.4482,2.4477,2.3807,2.2773,2.135,2.0493,2.0133,0.0,0.0,0.0,0.0,0.0,0.0,0.0,0.0,0.0,0.0,0.0,0.0,0.0,0.0,0.0,0.0,0.0,0.0,0.0,0.0,0.0,0.0,0.0,2.1788,0.0,0.0,0.0,0.0,0.0,0.0,0.0,0.0,0.0,2.7718,2.6914,2.6809,2.8308,2.9403,3.0254,3.0763,0.0,0.0,0.0,0.0,0.0,0.0,0.0,3.128,3.1763,3.1224,3.1192,3.2525,3.3127,3.3498,3.3662,0.0,0.0,3.0493,2.9749,2.958,2.992,2.9832,2.9985,3.0986,3.1396,3.1709,0.0,0.0,0.0,0.0,0.0,0.0,0.0,0.0,1.9707,2.0095,0.0,0.0,0.0,0.0,0.0,0.0,0.0,0.0,0.0,0.0,2.1668,2.2075,2.2756,2.2819,2.2879,2.2975,2.3033,2.2915,2.2698,2.1497,0.0,0.0,0.0,0.0,0.0,0.0,2.282,2.2761,2.3929,2.4559,2.4508,2.4374,2.4271,2.4256,2.3625,2.2681,2.141,2.0968,2.0612,2.0373,1.9947,0.0,0.0,0.0,0.0,0.0,0.0,0.0,0.0,0.0,0.0,0.0,0.0,0.0,0.0,0.0,0.0,0.0,0.0,0.0,0.0,2.3189,0.0,0.0,0.0,0.0,0.0,0.0,0.0,0.0,0.0,0.0,2.869,2.756,2.7636,3.0224,0.0,0.0,0.0,0.0,3.1241,3.1536,3.1511,3.1759,3.2425,3.22,3.1975,3.2046,0.0,0.0,3.3898,3.3731,3.3677,3.4034,3.3867,3.363,3.4235,3.3355,3.2754,3.2793,3.238,3.222,3.2293,3.2996,3.3474,2.098,0.0,0.0,0.0,0.0,2.1015,2.1284,2.1715,2.1526,2.1385,2.1262,2.0888,0.0,0.0,0.0,0.0,0.0,0.0,2.1494,2.219,2.2762,2.3402,2.4072,2.4577,2.4812,2.4766,2.479,2.4526,2.3952,2.3179,2.2325,2.1386,0.0,0.0,0.0,0.0,2.3002,2.3902,2.423,2.4385,2.4359,2.4328,2.4161,2.3824,2.3473,2.2973,2.2254,2.1644,2.1459,2.1678,2.0523,0.0,0.0,0.0,0.0,0.0,0.0,0.0,0.0,0.0,0.0,0.0,0.0,0.0,0.0,0.0,0.0,0.0,0.0,0.0,2.2894,2.2984,2.3492,0.0,0.0,0.0,0.0,0.0,0.0,0.0,0.0,0.0,2.9049,2.8633,2.8373,0.0,0.0,3.0416,3.0529,3.1199,3.1779,3.215,0.0,0.0,0.0,3.3189,3.3469,3.4486,3.5299,3.5798,3.5727,3.6031,3.6344,3.6437,3.6286,3.6163,3.6183,3.4423,3.309,3.3234,3.361,3.4204,3.5116,3.5948,3.6536,2.2726,2.1478,2.1205,2.1319,2.1715,2.1997,2.2331,2.2696,2.2691,2.2599,2.2449,2.193,2.1618,2.1478,2.1263,0.0,0.0,0.0,2.2649,2.3566,2.4038,2.4668,2.5357,2.5802,2.6009,2.5993,2.6011,2.5766,2.5277,2.4637,2.3928,2.304,0.0,0.0,2.2899,2.3155,2.3779,2.4781,2.5058,2.5027,2.4702,2.4262,2.3888,2.3596,2.3305,2.2892,2.2345,2.1941,2.1728,2.1749,2.0994,2.0995,0.0,0.0,0.0,0.0,0.0,0.0,0.0,0.0,0.0,0.0,0.0,2.2735,0.0,0.0,0.0,0.0,2.3562,2.3725,2.3725,2.3973,0.0,0.0,0.0,0.0,0.0,0.0,0.0,2.6555,2.7635,2.8463,2.8661,2.9247,2.9582,2.9489,3.0545,3.1241,3.0975,0.0,3.2022,3.2376,3.2428,3.2781,3.3731,3.4118,3.4696,3.5863,3.6734,3.721,3.6928,3.7203,3.7478,3.7484,3.74,3.731,3.731,3.5845,3.4665,3.4829,3.5255,3.5897,3.669,3.7481,3.8107,2.4671,2.3496,2.2885,2.2573,2.2537,2.3183,2.3491,2.3553,2.3548,2.384,2.4276,2.3091,2.2845,2.3332,2.2731,0.0,0.0,2.3496,2.4128,2.5384,2.5379,2.5808,2.657,2.6607,2.6725,2.6851,2.6887,2.6806,2.6607,2.5968,2.561,2.542,2.3739,2.3131,2.3564,2.43,2.4896,2.5384,2.6093,2.6082,2.5258,2.4167,2.3547,2.3496,2.3116,2.2591,2.197,2.1941,2.1652,2.1118,2.1437,2.1684,2.1749,0.0,0.0,0.0,0.0,0.0,0.0,0.0,0.0,0.0,0.0,0.0,0.0,0.0,0.0,0.0,2.4754,0.0,2.5154,2.5729,0.0,0.0,0.0,2.713,2.7236,2.7492,2.7388,2.6678,0.0,0.0,0.0,0.0,3.1016,3.1479,3.1815,3.1969,3.1998,3.2006,3.2088,3.2406,3.2899,3.3537,3.4295,3.5049,3.5746,3.6295,3.7013,3.7461,3.7478,3.7478,3.751,3.751,3.751,3.7493,3.7517,3.735,3.7404,3.6895,3.7016,3.7203,3.7327,3.7804,3.8309,2.596,2.5652,2.5498,2.4815,2.3881,2.4558,2.5149,2.5647,2.5605,2.5409,2.504,2.4738,2.441,2.4035,2.3881,2.4194,2.4857,2.483,2.5297,2.6108,2.6145,2.652,2.719,2.7708,2.796,2.8021,2.8509,2.8466,2.7918,2.7277,2.6926,2.6853,2.5962,2.5269,2.4857,2.5043,2.5463,2.605,2.6315,2.5877,2.4787,2.4004,2.3242,2.2563,2.2785,2.2648,2.2169,2.2124,2.2232,2.2395,2.2301,2.2476,2.3104,2.3574,0.0,0.0,0.0,0.0,0.0,0.0,0.0,0.0,0.0,2.4248,2.3697,0.0,2.4944,0.0,2.6167,2.6614,2.6609,2.673,0.0,0.0,2.7304,2.7488,2.8483,2.8247,2.811,2.8436,2.88,2.9235,2.9757,3.058,3.1368,3.2013,3.2426,3.2721,3.2921,3.2978,3.2971,3.305,3.3214,3.3744,3.4952,3.6199,3.6817,3.6479,3.703,3.751,3.751,3.751,3.751,3.751,3.751,3.751,3.751,3.751,3.7481,3.7387,3.74,3.7568,3.7953,3.8188,3.8444,2.8011,2.7759,2.8073,2.7544,2.6553,2.6343,2.6472,2.6853,2.6811,2.659,2.6215,2.5918,2.5759,2.5666,2.5666,2.6209,2.7101,2.7138,2.7501,2.8165,2.8165,2.8369,2.8738,2.9113,2.9285,2.9285,2.9648,2.9654,2.9292,2.8929,2.875,2.8732,2.8052,2.7522,2.7127,2.652,2.644,2.6823,2.6338,2.5759,2.5088,2.4212,2.3465,2.2973,2.2997,2.2922,2.2653,2.2382,2.2349,2.2623,2.2917,2.3282,2.3718,2.4664,2.5241,0.0,0.0,0.0,0.0,0.0,0.0,0.0,0.0,0.0,0.0,0.0,2.6077,0.0,0.0,0.0,2.7104,2.7362,2.7815,2.8468,2.8505,2.8879,2.9935,2.97,2.9536,2.9714,2.9909,3.0314,3.1021,3.1438,3.1842,3.226,3.2724,3.3131,3.3248,3.3302,3.3302,3.3302,3.3561,3.4225,3.5616,3.6493,3.6999,3.6943,3.7235,3.751,3.751,3.751,3.751,3.751,3.751,3.751,3.751,3.751,3.751,3.751,3.751,3.7604,3.7886,3.7958,3.8073,3.0085,2.9599,3.014,3.0061,2.9445,2.8282,2.7734,2.7642,2.755,2.7519,2.7494,2.7001,2.7124,2.7648,2.7734,2.8405,2.9507,2.9531,2.9839,3.0386,3.0386,3.0386,3.0386,3.0485,3.0485,3.0386,3.0407,3.04,3.038,3.0328,3.0282,3.0263,2.9699,2.9366,2.9223,2.8102,2.7528,2.7499,2.6477,2.5846,2.5702,2.4607,2.399,2.3914,2.3451,2.3182,2.3182,2.2693,2.2401,2.2445,2.3358,2.3925,2.4043,2.5452,2.6324,0.0,2.6461,0.0,0.0,0.0,0.0,0.0,0.0,0.0,0.0,2.7262,2.7399,2.7488,2.7583,2.7609,2.7646,2.8158,2.8721,2.9309,2.9953,3.0565,3.1116,3.1204,3.1084,3.0693,3.0983,3.14,3.2007,3.2215,3.2298,3.2475,3.2924,3.3278,3.3302,3.3302,3.3302,3.3302,3.3909,3.4668,3.5602,3.6131,3.6518,3.6958,3.7179,3.7337,3.7337,3.7447,3.751,3.751,3.751,3.751,3.751,3.751,3.751,3.751,3.751,3.7517,3.7539,3.7562,3.751,3.0331,3.0208,3.0356,3.0331,3.0208,2.9931,2.9507,2.8984,2.8436,2.8221,2.8245,2.8645,2.8892,2.9045,2.9593,2.9956,3.0202,3.0202,3.0288,3.0386,3.0386,3.0386,3.0448,3.0966,3.0929,3.0422,3.0448,3.0469,3.0373,2.9839,2.9582,2.9582,2.9468,2.9155,0.0,0.0,0.0,0.0,2.7307,2.6734,2.5886,2.5066,2.4434,2.4068,2.3492,0.0,2.3188,2.3086,2.3039,2.3052,2.3569,0.0,0.0,0.0,0.0,0.0,0.0,0.0,0.0,0.0,0.0,0.0,2.9547,2.8896,2.7299,2.8078,2.8973,2.956,3.0117,3.0415,3.0421,3.0547,3.0674,3.08,3.0926,3.1059,3.1179,3.1204,3.1305,3.1627,3.14,3.1684,3.2765,3.262,3.2513,3.2974,3.3207,3.3302,3.3302,3.3302,3.3302,3.334,3.4011,3.4358,3.3927,3.518,3.5718,3.5307,3.5925,3.6549,3.6676,3.714,3.7463,3.7502,3.751,3.751,3.751,3.751,3.751,3.751,3.751,3.751,3.751,3.751,3.751,3.1391,0.0,3.1391,3.1384,0.0,0.0,3.072,3.0344,2.9667,2.9415,2.9408,2.974,3.0085,3.0419,3.0751,3.1083,3.1391,3.1384,3.1391,3.1384,3.1391,3.1236,3.0957,3.1576,3.1563,3.0974,3.0962,3.0969,3.091,3.0266,3.0125,3.042,2.976,2.9464,2.9464,2.8845,2.8229,2.7605,2.6722,2.6141,2.5895,2.5232,2.4778,2.455,0.0,0.0,0.0,0.0,0.0,0.0,0.0,0.0,0.0,0.0,0.0,2.7299,2.7392,2.7742,2.8433,2.8645,2.9194,3.0198,3.0472,3.0171,2.9177,2.9752,3.0294,3.066,3.1021,3.1204,3.1204,3.1204,3.1331,3.171,3.1735,3.1861,3.2171,3.2221,3.2316,3.2512,3.2386,3.2544,3.3207,3.3031,3.2942,3.3245,3.3302,3.3302,3.3302,3.3302,3.3302,3.3302,3.3656,3.3947,3.3878,3.4137,3.4889,3.4864,3.5426,3.5981,3.6345,3.6714,3.7069,3.74,3.751,3.751,3.751,3.751,3.751,3.751,3.751,3.751,3.751,3.751,3.751,3.2132,3.223,3.223,3.2299,3.2358,3.1811,3.1504,3.1355,0.0,0.0,0.0,3.0509,3.0874,3.138,3.1534,3.1873,3.2396,3.2427,3.2327,3.2237,3.2348,3.2069,3.1537,3.2006,3.1971,3.1508,3.1378,3.1328,3.1299,3.0755,3.0733,3.1006,3.0035,2.9734,3.0056,2.9038,2.822,2.7733,2.6381,2.5805,2.6193,2.5635,2.5337,2.533,2.5086,2.5004,2.4977,2.4516,2.4265,2.4293,2.523,2.5907,2.618,2.7593,2.8528,2.8732,2.8854,2.9132,2.9582,2.98,3.0205,3.0775,3.1122,3.135,3.1394,3.1406,3.1438,3.1564,3.1564,3.1583,3.1552,3.159,3.1823,3.2418,3.2481,3.2696,3.3214,3.3302,3.3239,3.3302,3.3239,3.3302,3.327,3.327,3.3295,3.3276,3.3282,3.3302,3.3302,3.3302,3.3302,3.3302,3.3397,3.353,3.3878,3.3726,3.3846,3.4896,3.5275,3.5654,3.6233,3.651,3.6841,3.7408,3.751,3.751,3.751,3.751,3.751,3.751,3.751,3.751,3.751,3.751,3.751,3.1094,3.163,3.1623,3.1922,3.2382,3.2297,3.1982,3.1432,3.0703,3.038,3.0417,3.1021,3.1318,3.1441,3.1989,3.2297,3.2389,3.2427,3.2111,0.0,3.2153,3.2076,3.1508,3.158,3.158,3.1458,3.0933,3.0629,3.0614,3.0554,3.0269,2.9813,2.9589,2.9298,2.8839,2.818,2.8043,2.8457,2.8222,2.7876,2.7453,2.6841,2.6535,2.6523,2.5527,2.5004,2.4977,2.493,2.4869,2.4883,2.5508,2.6336,2.7368,2.8169,2.9027,3.0019,3.0142,3.0248,3.0419,3.0463,3.0838,3.1575,3.2257,3.249,3.2171,3.214,3.2373,3.2929,3.2955,3.3018,3.3024,3.2955,3.2948,3.3119,3.3151,3.3214,3.334,3.3334,3.3359,3.3384,3.3302,3.3327,3.3339,3.332,3.3243,3.3176,3.3216,3.3295,3.3289,3.3302,3.3302,3.3302,3.3302,3.3334,3.3467,3.3435,3.3751,3.4334,3.5022,3.5616,3.6289,3.6809,3.721,3.7478,3.751,3.751,3.751,3.751,3.751,3.751,3.751,3.751,3.751,3.751,3.751,3.0674,3.094,3.097,3.1131,3.137,3.137,3.1429,3.1442,3.0766,3.0666,3.0994,3.1317,3.1633,3.1951,3.2273,3.2202,3.1952,3.2612,3.2398,3.1567,3.2143,3.191,3.1087,3.17,3.1627,3.0948,3.135,3.1164,3.0503,3.0451,3.0147,2.9537,2.9504,2.9196,2.8622,2.8329,2.8345,2.8554,2.7976,2.7635,2.7689,2.712,2.6659,2.6341,2.5751,2.5473,2.548,2.5487,2.5643,2.5954,2.6514,2.7076,2.7627,2.851,2.9271,2.9826,3.0223,3.0579,3.0997,3.1367,3.176,3.2184,3.2546,3.2716,3.2617,3.2684,3.2883,3.3264,3.3236,3.3223,3.3295,3.3236,3.3216,3.3302,3.3236,3.3387,3.3724,3.3772,3.3858,3.4159,3.3945,3.3705,3.3634,3.3327,3.3096,3.309,3.315,3.3189,3.3183,3.3123,3.3143,3.3269,3.3302,3.3302,3.3334,3.3997,3.4327,3.4358,3.4934,3.5609,3.6258,3.6739,3.7045,3.7408,3.751,3.751,3.751,3.751,3.751,3.751,3.751,3.751,3.751,3.751,3.751,3.0155,3.0276,3.0276,3.0352,3.0494,3.0495,3.0758,3.1198,3.0697,3.0838,3.1382,3.1345,3.1721,3.236,3.2247,3.2089,3.2076,3.2769,3.2518,3.159,3.2153,3.1815,3.0872,3.1782,3.1647,3.0793,3.1674,3.1549,3.0511,3.0536,3.0297,2.974,2.9577,2.9314,2.9032,2.8717,2.8717,2.8907,2.7833,2.7418,2.786,2.731,2.6775,2.6356,2.6166,2.6111,2.6104,2.6111,2.6321,2.6782,2.732,2.7688,2.7895,2.8835,2.9486,2.9689,3.026,3.0943,3.1582,3.2088,3.2461,3.2544,3.2578,3.2698,3.2885,3.3132,3.326,3.3279,3.332,3.3338,3.3317,3.3516,3.3545,3.3495,3.3534,3.3828,3.4357,3.4365,3.4495,3.4906,3.4579,3.4192,3.39,3.346,3.3134,3.3072,3.3016,3.2996,3.3009,3.2973,3.2989,3.3143,3.3262,3.3397,3.353,3.4516,3.5078,3.4762,3.5268,3.5925,3.6479,3.6676,3.6848,3.7408,3.751,3.751,3.751,3.751,3.751,3.751,3.751,3.751,3.751,3.751,3.751,2.9105,2.9551,2.9646,2.9936,3.0469,3.0435,3.0455,3.0511,3.0436,3.0751,3.1229,3.0802,3.133,3.2295,3.1823,3.2102,3.3025,3.2627,3.2057,3.1456,3.2001,3.1913,3.1244,3.1389,3.1352,3.1231,3.1431,3.1213,3.0498,3.0912,3.0893,3.0319,2.9795,2.9759,3.0038,2.9143,2.9116,3.0193,2.9062,2.8473,2.8465,2.7914,2.7581,2.7542,2.6984,2.6713,2.6705,2.674,2.674,2.6856,2.7406,2.7968,2.8552,2.9164,2.9772,3.0358,3.1025,3.165,3.2228,3.2365,3.2458,3.241,3.2623,3.2746,3.2934,3.3498,3.363,3.3376,3.3675,3.3756,3.3267,3.4157,3.4558,3.4104,3.4478,3.4942,3.5012,3.5005,3.4986,3.4914,3.4931,3.4611,3.4118,3.3893,3.3585,3.3075,3.2924,3.2821,3.2868,3.2854,3.2847,3.2942,3.3116,3.3483,3.3977,3.4832,3.5314,3.5857,3.6163,3.644,3.6858,3.7188,3.7432,3.7376,3.751,3.751,3.751,3.751,3.7488,3.7495,3.7495,3.7488,3.7502,3.7473,3.7465,2.9296,2.9549,2.989,3.0174,3.0421,3.0402,3.0383,3.0399,3.0399,3.0554,3.0718,3.0521,3.1167,3.2347,3.2058,3.2045,3.2185,3.2666,3.2327,3.1418,3.201,3.1985,3.1393,3.173,3.1695,3.142,3.2066,3.1911,3.1072,3.0829,3.082,3.086,3.0337,3.0174,3.0301,2.9558,2.9368,2.983,2.9368,2.9132,2.9051,2.8562,2.805,2.7724,2.7445,2.7337,2.7344,2.7344,2.7472,2.7833,2.812,2.8364,2.8632,2.9174,2.979,3.0472,3.1501,3.2316,3.2946,3.2998,3.319,3.3604,3.3709,3.3766,3.3861,3.4116,3.4166,3.4114,3.4298,3.4369,3.4321,3.4623,3.4806,3.4722,3.4824,3.5058,3.5536,3.5502,3.5539,3.5852,3.5604,3.5256,3.4888,3.4559,3.412,3.3536,3.3287,3.318,3.2856,3.2677,3.2626,3.2712,3.2755,3.2968,3.3493,3.413,3.4676,3.4945,3.5368,3.5936,3.6549,3.6804,3.6936,3.7361,3.7449,3.748,3.751,3.7389,3.7337,3.7382,3.7352,3.73,3.7226,3.7203,3.7203,2.935,2.9586,3.0147,3.0317,3.0183,3.0515,3.0547,3.0466,3.076,3.088,3.088,3.0907,3.1388,3.2157,3.2106,3.1924,3.1957,3.2622,3.2512,3.1674,3.2107,3.2062,3.1621,3.2008,3.2014,3.1745,3.2437,3.2411,3.1557,3.1124,3.1124,3.1404,3.0934,3.0717,3.0798,3.0156,2.9911,3.0227,2.9955,2.9838,2.9893,2.9396,2.8817,2.8248,2.8193,2.8104,2.7941,2.7957,2.8139,2.8546,2.8608,2.8608,2.8633,2.9164,2.9968,3.0967,3.1892,3.2805,3.363,3.3528,3.3713,3.4412,3.4527,3.4563,3.4594,3.471,3.4862,3.495,3.5121,3.5233,3.4955,3.5158,3.5291,3.5272,3.5205,3.5505,3.6014,3.6025,3.6151,3.653,3.6152,3.5781,3.5482,3.4956,3.4387,3.4008,3.3892,3.3799,3.3269,3.3106,3.3016,3.287,3.2753,3.2867,3.3156,3.3737,3.4014,3.4302,3.4874,3.5408,3.5956,3.6217,3.653,3.7075,3.7276,3.7354,3.7301,3.7195,3.7165,3.7286,3.7232,3.7119,3.706,3.7007,3.6999,2.8969,2.9558,3.0174,3.0145,2.9671,3.0797,3.0924,3.0521,3.1594,3.2092,3.2037,3.2037,3.2137,3.2154,3.1697,3.199,3.288,3.2504,3.2263,3.2127,3.2164,3.2191,3.2173,3.22,3.2191,3.2074,3.2209,3.2237,3.2119,3.2119,3.2119,3.2092,3.1567,3.1567,3.1793,3.0907,3.0934,3.1603,3.0853,3.0608,3.1015,3.0608,3.0038,2.9494,2.9377,2.9078,2.8636,2.8554,2.8581,2.8608,2.8636,2.8636,2.8665,2.9243,3.0471,3.2087,3.2489,3.3123,3.4156,3.3874,3.3836,3.445,3.4762,3.4733,3.4889,3.5301,3.5602,3.5662,3.6029,3.5913,3.515,3.5794,3.6189,3.5824,3.6212,3.6491,3.6608,3.6546,3.6577,3.6538,3.6453,3.6176,3.5599,3.4898,3.4688,3.4527,3.445,3.4396,3.4257,3.4296,3.4012,3.3535,3.3365,3.3443,3.3779,3.3668,3.4072,3.4401,3.4516,3.5149,3.5648,3.6093,3.6468,3.6787,3.6989,3.7083,3.7037,3.7007,3.7007,3.7037,3.7037,3.6961,3.6885,3.6954,3.6938,3.0093,3.0698,3.1304,3.1214,3.0753,3.1513,3.154,3.107,3.182,3.22,3.22,3.22,3.22,3.2209,3.1983,3.2127,3.2507,3.2309,3.22,3.22,3.22,3.22,3.22,3.22,3.22,3.22,3.22,3.22,3.2264,3.259,3.2562,3.2318,3.24,3.239,3.2092,3.1395,3.1214,3.1531,3.1142,3.1097,3.1323,3.1458,3.1268,3.0644,2.9893,2.9404,2.9187,2.8815,2.8608,2.8608,2.8978,2.9168,2.9302,3.058,3.1643,3.2408,3.3276,3.4177,3.4946,3.4883,3.5044,3.5691,3.5829,3.5805,3.589,3.6075,3.6199,3.6245,3.6376,3.6245,3.6091,3.6322,3.6508,3.6399,3.6461,3.6569,3.6569,3.6569,3.6546,3.6492,3.6515,3.6361,3.6145,3.5907,3.5629,3.5229,3.5152,3.4967,3.4628,3.4505,3.4428,3.4128,3.372,3.3434,3.3526,3.3169,3.3162,3.3706,3.4089,3.4782,3.5339,3.581,3.6175,3.6759,3.6938,3.6938,3.6931,3.6931,3.69,3.6762,3.6762,3.6793,3.6677,3.6754,3.6731,3.0771,3.135,3.1956,3.1847,3.1404,3.1929,3.1847,3.1404,3.1929,3.22,3.22,3.22,3.22,3.22,3.22,3.22,3.22,3.22,3.22,3.22,3.22,3.22,3.2237,3.24,3.2372,3.2264,3.24,3.2553,3.2788,3.3168,3.3141,3.2816,3.3196,3.306,3.2499,3.2065,3.182,3.1648,3.1594,3.1594,3.1648,3.1983,3.201,3.1513,3.0607,2.9974,2.9819,2.9396,2.9206,2.9224,2.9577,2.9985,3.0542,3.187,3.294,3.3443,3.4281,3.5121,3.5668,3.5629,3.5776,3.6415,3.6484,3.6515,3.6515,3.6515,3.6515,3.6515,3.6515,3.6515,3.6515,3.6484,3.6531,3.6608,3.6538,3.6515,3.6515,3.6515,3.6515,3.6515,3.6515,3.6484,3.6515,3.6484,3.6268,3.5837,3.5814,3.5606,3.5267,3.5144,3.5014,3.4829,3.4459,3.3959,3.3756,3.3486,3.3225,3.363,3.3868,3.4482,3.5237,3.566,3.6039,3.6629,3.6847,3.6847,3.6847,3.6847,3.6739,3.6531,3.6554,3.6616,3.6554,3.6538,3.6561,3.0798,3.135,3.1956,3.1902,3.1486,3.1983,3.1847,3.154,3.1956,3.22,3.22,3.22,3.2237,3.2237,3.2237,3.2209,3.2291,3.2237,3.22,3.22,3.22,3.22,3.2237,3.2743,3.2807,3.2418,3.2861,3.3358,3.3735,3.3844,3.3844,3.3853,3.3863,3.3628,3.3096,3.297,3.2725,3.2354,3.22,3.2173,3.22,3.2191,3.2173,3.2065,3.1549,3.0997,3.0464,3.0356,3.0247,3.0274,3.0356,3.1034,3.2037,3.2975,3.3967,3.4933,3.5431,3.5837,3.6261,3.5907,3.5907,3.6361,3.6515,3.6515,3.6515,3.6515,3.6515,3.6515,3.6515,3.6515,3.6515,3.6515,3.6515,3.6515,3.6484,3.6515,3.6515,3.6515,3.6515,3.6515,3.6515,3.6515,3.6515,3.6515,3.6422,3.6392,3.6361,3.633,3.6176,3.6153,3.6084,3.5691,3.5198,3.4706,3.4298,3.3929,3.3805,3.3775,3.3881,3.4287,3.5289,3.5897,3.609,3.6531,3.6662,3.6662,3.667,3.667,3.6639,3.6492,3.6507,3.6515,3.6499,3.6515,3.6515,3.1513,3.1377,3.1929,3.2119,3.1956,3.2119,3.2065,3.1929,3.2146,3.22,3.22,3.22,3.2427,3.2644,3.239,3.2427,3.2762,3.2427,3.22,3.2209,3.22,3.22,3.2345,3.2825,3.3196,3.3357,3.3547,3.3727,3.3952,3.4332,3.4332,3.4033,3.4351,3.4206,3.3646,3.3313,3.3123,3.3285,3.2598,3.24,3.2735,3.24,3.22,3.2173,3.201,3.182,3.1612,3.0853,3.041,3.0437,3.0798,3.1398,3.2269,3.3368,3.4213,3.469,3.5671,3.6238,3.6422,3.633,3.6238,3.6445,3.6515,3.6515,3.6515,3.6515,3.6515,3.6515,3.6515,3.6515,3.6515,3.6515,3.6515,3.6515,3.6515,3.6515,3.6515,3.6515,3.6515,3.6515,3.6515,3.6515,3.6515,3.6515,3.6515,3.6515,3.6515,3.6515,3.6515,3.6515,3.6484,3.6207,3.5814,3.5421,3.4952,3.4675,3.4582,3.4483,3.4483,3.4667,3.556,3.6053,3.623,3.6353,3.6453,3.6515,3.6515,3.6515,3.6515,3.6515,3.6492,3.6492,3.6515,3.6515,3.6515,3.1567,3.1676,3.2037,3.22,3.22,3.22,3.22,3.22,3.22,3.22,3.22,3.22,3.24,3.2671,3.259,3.2617,3.2762,3.2761,3.2707,3.2508,3.2264,3.2318,3.259,3.3123,3.3837,3.4395,3.4332,3.4341,3.4595,3.492,3.4938,3.4721,3.4938,3.4829,3.4287,3.3909,3.3855,3.3799,3.3195,3.3023,3.3186,3.2825,3.2535,3.2508,3.2318,3.22,3.2146,3.145,3.107,3.1124,3.1458,3.2017,3.2942,3.3845,3.4531,3.5213,3.5903,3.6484,3.6515,3.6484,3.6515,3.6515,3.6515,3.6515,3.6515,3.6515,3.6515,3.6515,3.6515,3.6515,3.6515,3.6515,3.6515,3.6515,3.6515,3.6515,3.6515,3.6515,3.6515,3.6515,3.6515,3.6515,3.6515,3.6515,3.6515,3.6515,3.6515,3.6515,3.6515,3.6515,3.6515,3.6453,3.6207,3.5845,3.5545,3.5391,3.536,3.5322,3.5283,3.556,3.6122,3.6299,3.6453,3.6415,3.6515,3.6515,3.6515,3.6515,3.6515,3.6515,3.6515,3.6515,3.6515,3.6515,3.6515,3.1178,3.2146,3.22,3.22,3.22,3.22,3.22,3.22,3.22,3.22,3.22,3.22,3.2264,3.24,3.2843,3.2843,3.258,3.333,3.352,3.3096,3.2743,3.2734,3.3313,3.3764,3.4487,3.5327,3.5066,3.5147,3.5473,3.5564,3.5727,3.57,3.5618,3.5483,3.5012,3.4876,3.4496,3.4215,3.3935,3.3817,3.3908,3.343,3.3133,3.3106,3.2617,3.2318,3.2318,3.2119,3.2092,3.2146,3.2101,3.2639,3.3794,3.4219,3.4888,3.5935,3.6359,3.6515,3.6515,3.6515,3.6515,3.6515,3.6515,3.6515,3.6515,3.6515,3.6515,3.6515,3.6515,3.6515,3.6515,3.6515,3.6515,3.6515,3.6515,3.6515,3.6515,3.6515,3.6515,3.6515,3.6515,3.6515,3.6515,3.6515,3.6515,3.6515,3.6515,3.6515,3.6515,3.6515,3.6515,3.6453,3.6353,3.6207,3.5876,3.5937,3.5907,3.5845,3.5837,3.6053,3.6338,3.6422,3.6515,3.6515,3.6515,3.6515,3.6515,3.6515,3.6515,3.6515,3.6515,3.6515,3.6515,3.6515,3.6515,3.1902,3.22,3.22,3.22,3.22,3.22,3.22,3.22,3.22,3.22,3.22,3.22,3.2454,3.287,3.3033,3.3196,3.3466,3.3772,3.3871,3.37,3.3538,3.3809,3.4262,3.4496,3.4947,3.5581,3.5554,3.5554,3.57,3.5781,3.5981,3.6334,3.5971,3.589,3.5961,3.5246,3.5029,3.5029,3.4297,3.4169,3.4432,3.3998,3.37,3.3646,3.3141,3.2861,3.2816,3.2427,3.22,3.22,3.2209,3.2345,3.2935,3.3805,3.4572,3.5101,3.5967,3.6515,3.6515,3.6515,3.6515,3.6515,3.6515,3.6515,3.6515,3.6515,3.6515,3.6515,3.6515,3.6515,3.6515,3.6515,3.6515,3.6515,3.6515,3.6515,3.6515,3.6515,3.6515,3.6515,3.6515,3.6515,3.6515,3.6515,3.6515,3.6515,3.6515,3.6515,3.6515,3.6515,3.6515,3.6515,3.6453,3.6392,3.6361,3.6422,3.6392,3.6338,3.6299,3.6299,3.6453,3.6484,3.6515,3.6515,3.6515,3.6515,3.6515,3.6515,3.6515,3.6515,3.6515,3.6515,3.6515,3.6515,3.6515,3.1956,3.22,3.22,3.22,3.22,3.22,3.22,3.22,3.22,3.22,3.22,3.22,3.2535,3.3088,3.3331,3.3601,3.3935,3.4423,3.4666,3.4731,3.4947,3.4975,3.492,3.5002,3.5364,3.569,3.5961,3.609,3.6161,3.6313,3.6541,3.6578,3.6503,3.6405,3.6107,3.5906,3.5564,3.5564,3.4975,3.4829,3.512,3.4585,3.4314,3.4179,3.3746,3.3358,3.3078,3.2508,3.22,3.22,3.2228,3.2444,3.3111,3.3794,3.4572,3.5155,3.6054,3.6515,3.6515,3.6515,3.6515,3.6515,3.6515,3.6515,3.6515,3.6515,3.6515,3.6515,3.6515,3.6515,3.6515,3.6515,3.6515,3.6515,3.6515,3.6515,3.6515,3.6515,3.6515,3.6515,3.6515,3.6515,3.6515,3.6515,3.6515,3.6515,3.6515,3.6515,3.6515,3.6515,3.6515,3.6515,3.6515,3.6453,3.6422,3.6484,3.6515,3.6453,3.6453,3.6484,3.6515,3.6515,3.6515,3.6515,3.6515,3.6515,3.6515,3.6515,3.6515,3.6515,3.6515,3.6515,3.6515,3.6515,3.6515,3.1712,3.22,3.22,3.22,3.22,3.22,3.22,3.22,3.22,3.2264,3.2345,3.2318,3.2725,3.3224,3.3764,3.4006,3.4088,3.5056,3.5591,3.5862,3.6134,3.6107,3.5283,3.5445,3.57,3.5917,3.6378,3.6486,3.6568,3.7046,3.7018,3.6768,3.7046,3.6764,3.6286,3.6378,3.6324,3.5971,3.5923,3.5798,3.5754,3.5327,3.5056,3.4812,3.4314,3.3737,3.3277,3.277,3.2436,3.2318,3.2291,3.2917,3.3965,3.4194,3.4975,3.5935,3.6305,3.6515,3.6515,3.6515,3.6515,3.6515,3.6515,3.6515,3.6515,3.6515,3.6515,3.6515,3.6515,3.6515,3.6515,3.6515,3.6515,3.6515,3.6515,3.6515,3.6515,3.6515,3.6515,3.6515,3.6515,3.6515,3.6515,3.6515,3.6515,3.6515,3.6515,3.6515,3.6515,3.6515,3.6515,3.6515,3.6515,3.6515,3.6484,3.6484,3.6515,3.6484,3.6484,3.6515,3.6515,3.6515,3.6515,3.6515,3.6515,3.6515,3.6515,3.6515,3.6515,3.6515,3.6515,3.6515,3.6515,3.6515,3.6515,3.2065,3.22,3.22,3.22,3.22,3.22,3.2209,3.2227,3.2209,3.2508,3.2807,3.2916,3.3223,3.3754,3.4297,3.4585,3.4694,3.5445,3.5927,3.6486,3.7008,3.6883,3.6215,3.5971,3.5981,3.628,3.6497,3.6605,3.6687,3.6822,3.6741,3.6687,3.6866,3.6676,3.6497,3.6801,3.6991,3.6595,3.6764,3.6666,3.6334,3.6134,3.5852,3.5445,3.4866,3.4314,3.3826,3.3609,3.333,3.3036,3.2998,3.3264,3.3673,3.4522,3.5261,3.5744,3.6265,3.6515,3.6515,3.6515,3.6515,3.6515,3.6515,3.6515,3.6515,3.6515,3.6515,3.6515,3.6515,3.6515,3.6515,3.6515,3.6515,3.6515,3.6515,3.6515,3.6515,3.6515,3.6515,3.6515,3.6515,3.6515,3.6515,3.6515,3.6515,3.6515,3.6515,3.6515,3.6515,3.6515,3.6515,3.6515,3.6515,3.6515,3.6515,3.6515,3.6515,3.6515,3.6515,3.6515,3.6515,3.6515,3.6515,3.6515,3.6515,3.6515,3.6515,3.6515,3.6515,3.6515,3.6515,3.6576,3.6607,3.6576,3.6815,3.22,3.22,3.22,3.22,3.22,3.22,3.2372,3.259,3.2617,3.2933,3.3376,3.3485,3.3791,3.4304,3.4666,3.492,3.5418,3.6151,3.673,3.7127,3.7588,3.7409,3.6785,3.6503,3.653,3.6378,3.6801,3.6866,3.6795,3.7066,3.7219,3.6741,3.7083,3.692,3.6388,3.6801,3.6666,3.6269,3.6449,3.6476,3.6215,3.6171,3.6079,3.5672,3.5147,3.4612,3.4351,3.4016,3.3754,3.3628,3.3751,3.388,3.3791,3.4472,3.5126,3.5903,3.6226,3.6507,3.6515,3.6515,3.6515,3.6515,3.6515,3.6515,3.6515,3.6515,3.6515,3.6515,3.6515,3.6515,3.6515,3.6515,3.6515,3.6515,3.6515,3.6515,3.6515,3.6515,3.6515,3.6515,3.6515,3.6515,3.6515,3.6515,3.6515,3.6515,3.6515,3.6515,3.6515,3.6515,3.6515,3.6515,3.6515,3.6515,3.6515,3.6515,3.6515,3.6515,3.6515,3.6515,3.6515,3.6515,3.6515,3.6515,3.6515,3.6515,3.6515,3.6515,3.6515,3.6515,3.6546,3.6669,3.6853,3.7061,3.743,3.22,3.22,3.22,3.22,3.2209,3.2318,3.2644,3.3061,3.3214,3.3512,3.3962,3.4033,3.4368,3.4829,3.4947,3.5283,3.5879,3.6829,3.7344,3.7235,3.7968,3.7571,3.6985,3.7083,3.691,3.5988,3.6845,3.71,3.7137,3.7528,3.7164,3.6768,3.749,3.7056,3.6123,3.6368,3.6584,3.6134,3.6259,3.6188,3.6025,3.5981,3.5917,3.5618,3.532,3.5029,3.4866,3.4558,3.4179,3.4091,3.4502,3.4647,3.4677,3.4723,3.497,3.6305,3.6359,3.6507,3.6515,3.6515,3.6515,3.6515,3.6515,3.6515,3.6515,3.6515,3.6515,3.6515,3.6515,3.6515,3.6515,3.6515,3.6515,3.6515,3.6515,3.6515,3.6515,3.6515,3.6515,3.6515,3.6515,3.6515,3.6515,3.6515,3.6515,3.6515,3.6515,3.6515,3.6515,3.6515,3.6515,3.6515,3.6515,3.6515,3.6515,3.6515,3.6515,3.6515,3.6515,3.6515,3.6515,3.6515,3.6515,3.6515,3.6515,3.6515,3.6515,3.6515,3.6515,3.6515,3.6722,3.6969,3.7277,3.7546,3.8007,3.22,3.22,3.22,3.22,3.2282,3.2725,3.2997,3.316,3.3611,3.4107,3.4622,3.4666,3.4975,3.5391,3.5527,3.5635,3.6015,3.6937,3.729,3.7127,3.7778,3.768,3.6985,3.7517,3.7219,3.6422,3.6818,3.7279,3.71,3.7056,3.6703,3.6198,3.6632,3.6442,3.6259,3.6666,3.6801,3.6351,3.6584,3.6612,3.6334,3.6252,3.6079,3.5754,3.5537,3.5483,3.55,3.5418,3.5174,3.4713,3.4597,3.5032,3.5599,3.5909,3.5987,3.5956,3.6288,3.6515,3.6515,3.6515,3.6515,3.6515,3.6515,3.6515,3.6515,3.6515,3.6515,3.6515,3.6515,3.6515,3.6515,3.6515,3.6515,3.6515,3.6515,3.6515,3.6515,3.6515,3.6515,3.6515,3.6515,3.6515,3.6515,3.6515,3.6515,3.6515,3.6515,3.6515,3.6515,3.6515,3.6515,3.6515,3.6515,3.6515,3.6515,3.6515,3.6515,3.6515,3.6515,3.6515,3.6515,3.6515,3.6515,3.6669,3.6669,3.6669,3.6607,3.6638,3.6753,3.6969,3.7145,3.7361,3.7792,3.8223,3.8645,3.22,3.22,3.22,3.24,3.2698,3.2979,3.344,3.3973,3.4279,3.4703,3.512,3.5283,3.5401,3.5645,3.57,3.5862,3.6351,3.7046,3.7306,3.729,3.7615,3.7507,3.6703,3.7544,3.7398,3.6872,3.6954,3.6883,3.6612,3.6622,3.6215,3.5988,3.6296,3.6269,3.5906,3.6178,3.6432,3.6269,3.6422,3.6476,3.6161,3.6171,3.5954,3.5818,3.57,3.57,3.57,3.57,3.5564,3.531,3.5184,3.5496,3.6091,3.6667,3.6913,3.6582,3.6542,3.6507,3.6515,3.6515,3.6515,3.6515,3.6515,3.6515,3.6515,3.6515,3.6515,3.6515,3.6515,3.6515,3.6515,3.6515,3.6515,3.6515,3.6515,3.6515,3.6515,3.6515,3.6515,3.6515,3.6515,3.6515,3.6515,3.6515,3.6515,3.6515,3.6515,3.6515,3.6515,3.6515,3.6515,3.6515,3.6515,3.6515,3.6515,3.6515,3.6515,3.6515,3.6515,3.6515,3.6607,3.6638,3.6853,3.7061,3.7007,3.7131,3.7192,3.7369,3.7422,3.7484,3.7792,3.813,3.85,3.8891,3.9291,3.22,3.2209,3.2345,3.2671,3.3088,3.3387,3.3956,3.4703,3.493,3.5219,3.5645,3.57,3.5672,3.5754,3.5873,3.6117,3.6534,3.7029,3.7154,3.7008,3.7208,3.6991,3.673,3.6947,3.7089,3.672,3.6557,3.6296,3.6395,3.6296,3.6069,3.5906,3.6215,3.6215,3.5825,3.5835,3.57,3.57,3.57,3.57,3.57,3.57,3.57,3.57,3.57,3.57,3.57,3.57,3.57,3.5736,3.5902,3.6183,3.6543,3.7376,3.7875,3.7783,3.7277,3.6969,3.6907,3.6761,3.6823,3.6815,3.6584,3.6515,3.6515,3.6515,3.6515,3.6515,3.6515,3.6515,3.6515,3.6515,3.6515,3.6515,3.6515,3.6515,3.6515,3.6515,3.6515,3.6515,3.6515,3.6515,3.6515,3.6515,3.6515,3.6515,3.6515,3.6515,3.6515,3.6515,3.6515,3.6515,3.6515,3.6515,3.6515,3.6515,3.6515,3.6515,3.6576,3.6607,3.6699,3.6823,3.7161,3.7584,3.8007,3.813,3.8138,3.8046,3.8015,3.813,3.8508,3.8777,3.9014,3.9414,3.9837,3.22,3.2227,3.278,3.3033,3.3278,3.4126,3.4632,3.4866,3.5337,3.5608,3.57,3.5754,3.5781,3.5917,3.6334,3.6242,3.6188,3.6459,3.653,3.6259,3.6476,3.6422,3.5988,3.6432,3.6557,3.6395,3.6096,3.6439,3.6683,3.6259,3.5879,3.5825,3.5825,3.5771,3.5727,3.57,3.57,3.57,3.57,3.57,3.57,3.57,3.57,3.57,3.57,3.57,3.57,3.57,3.57,3.58,3.657,3.7271,3.7883,3.858,3.9035,3.902,3.8715,3.8253,3.8069,3.7677,3.7408,3.7277,3.6984,3.6607,3.6576,3.6546,3.6523,3.6515,3.6546,3.6669,3.673,3.6607,3.6546,3.6638,3.6784,3.673,3.6669,3.703,3.6969,3.6692,3.6784,3.6607,3.6523,3.6515,3.6515,3.6515,3.6515,3.6515,3.6515,3.6515,3.6515,3.6515,3.6515,3.6515,3.6638,3.6638,3.673,3.6669,3.6846,3.6938,3.7161,3.7438,3.7769,3.8192,3.8676,3.8953,3.8869,3.8754,3.8631,3.8807,3.9168,3.9322,3.9414,3.9867,4.0329,3.2698,3.2725,3.3006,3.3476,3.4082,3.4595,3.5002,3.5337,3.5591,3.57,3.5771,3.6079,3.6368,3.6666,3.7018,3.6785,3.6378,3.6459,3.6269,3.5798,3.5944,3.5961,3.5825,3.6015,3.6107,3.6568,3.6459,3.6703,3.691,3.6439,3.5825,3.6107,3.5873,3.5727,3.5781,3.5727,3.57,3.57,3.57,3.57,3.57,3.57,3.57,3.57,3.57,3.57,3.57,3.57,3.57,3.577,3.6263,3.6708,3.73,3.7907,3.8379,3.9321,3.9117,3.8799,3.8479,3.8229,3.8099,3.8038,3.7738,3.7554,3.7131,3.6761,3.6761,3.7061,3.7061,3.7215,3.7492,3.7615,3.7638,3.7607,3.743,3.7492,3.75,3.7584,3.7677,3.7338,3.703,3.6915,3.6792,3.6761,3.6692,3.6515,3.6515,3.6515,3.6515,3.6515,3.6515,3.6515,3.6515,3.6515,3.6699,3.6853,3.7153,3.7246,3.7699,3.7792,3.7954,3.82,3.8469,3.8746,3.9138,3.9353,3.9484,3.9568,3.9537,3.9683,3.9867,3.996,4.003,4.0184,4.0544,3.3042,3.3304,3.3449,3.4027,3.4802,3.4957,3.5273,3.5672,3.57,3.5781,3.6015,3.6378,3.6839,3.71,3.6981,3.6612,3.6324,3.6378,3.6107,3.5835,3.57,3.5727,3.5727,3.5808,3.6259,3.7262,3.6432,3.6747,3.691,3.6449,3.5906,3.6361,3.6107,3.5971,3.5998,3.6151,3.6232,3.5998,3.5808,3.5727,3.57,3.57,3.57,3.57,3.57,3.57,3.57,3.57,3.57,3.573,3.6061,3.6549,3.6991,3.7804,3.8453,3.9236,3.9434,3.9521,3.9188,3.8945,3.8807,3.8707,3.8491,3.8122,3.78,3.7246,3.7123,3.773,3.773,3.8007,3.8315,3.8415,3.8323,3.8292,3.8354,3.8477,3.8508,3.8385,3.8354,3.82,3.7861,3.743,3.7277,3.7153,3.6938,3.6607,3.6515,3.6515,3.6515,3.6515,3.6515,3.6515,3.6515,3.6607,3.6977,3.7184,3.7492,3.7853,3.8307,3.8614,3.8684,3.8838,3.9045,3.9353,3.9683,3.9837,3.9999,4.0267,4.0474,4.032,4.0237,4.0513,4.0676,4.0799,4.0861,3.2888,3.3898,3.4395,3.4676,3.4876,3.5418,3.5645,3.57,3.57,3.6025,3.6384,3.6622,3.6703,3.6612,3.6357,3.6042,3.5825,3.5781,3.5754,3.5727,3.57,3.57,3.57,3.5808,3.6025,3.6551,3.6405,3.6747,3.7073,3.6666,3.6052,3.5808,3.6269,3.6459,3.6622,3.6801,3.6829,3.6513,3.6107,3.5835,3.5771,3.5754,3.57,3.57,3.57,3.57,3.57,3.57,3.5791,3.5828,3.6208,3.6591,3.6945,3.7919,3.8673,3.9055,3.9704,3.9904,3.9914,3.9652,3.9484,3.9261,3.8953,3.8584,3.8438,3.8385,3.8376,3.8368,3.8438,3.8522,3.8592,3.8569,3.8838,3.89,3.9023,3.9014,3.8984,3.8869,3.8838,3.8947,3.867,3.8192,3.7861,3.7738,3.7307,3.6969,3.6792,3.6792,3.6546,3.6515,3.6515,3.6515,3.6515,3.6761,3.7307,3.7646,3.8046,3.8438,3.883,3.9138,3.9361,3.9537,3.9652,3.9968,4.0267,4.0421,4.0606,4.0913,4.1006,4.0628,4.0636,4.1107,4.1485,4.1669,4.1639,3.3186,3.3898,3.4151,3.4666,3.5374,3.5608,3.57,3.57,3.57,3.5944,3.6439,3.6912,3.7091,3.6849,3.651,3.6242,3.6188,3.5825,3.5754,3.57,3.57,3.57,3.57,3.5791,3.6008,3.6524,3.6639,3.6899,3.7333,3.7127,3.71,3.6991,3.6758,3.6568,3.6785,3.7235,3.7317,3.7127,3.6622,3.628,3.6188,3.5862,3.57,3.57,3.57,3.57,3.57,3.57,3.5927,3.6144,3.6225,3.6411,3.6736,3.7739,3.8322,3.8708,3.9436,4.0034,4.0422,4.0237,4.0144,3.9999,3.9537,3.9107,3.9084,3.8807,3.883,3.8922,3.9115,3.9199,3.9683,3.9744,3.9806,3.9744,3.9652,3.9591,3.9529,3.9445,3.9353,3.9423,3.9207,3.8861,3.8592,3.8346,3.7831,3.7338,3.7184,3.7038,3.6853,3.6669,3.673,3.6753,3.6784,3.7061,3.7646,3.8138,3.8631,3.9023,3.9406,3.9753,4.0091,4.0114,4.0259,4.0606,4.0922,4.1107,4.1322,4.1599,4.1568,4.1291,4.1507,4.1937,4.2254,4.2479,4.2448,3.3168,3.3656,3.3656,3.4469,3.5618,3.55,3.5537,3.57,3.57,3.5971,3.6387,3.693,3.7109,3.6915,3.6512,3.628,3.6134,3.5879,3.5754,3.57,3.57,3.57,3.57,3.5791,3.6035,3.6578,3.6947,3.7235,3.7496,3.794,3.7696,3.7398,3.73,3.7246,3.73,3.7517,3.7767,3.7642,3.7208,3.6741,3.6568,3.6252,3.6008,3.5954,3.5845,3.6052,3.6161,3.6232,3.6198,3.6334,3.6331,3.6174,3.6518,3.7036,3.7672,3.8292,3.9066,3.9932,4.034,4.0505,4.0505,4.0329,4.0114,3.9845,3.9661,3.9344,3.9537,3.9714,3.9814,3.999,4.0505,4.0351,4.029,4.0144,4.0175,4.0136,4.0166,4.0114,3.999,3.9929,3.9714,3.9529,3.9168,3.8891,3.853,3.7946,3.7453,3.743,3.7523,3.7338,3.7161,3.7184,3.7207,3.7576,3.8015,3.8539,3.9101,3.9784,4.0184,4.0584,4.083,4.0852,4.1036,4.1476,4.1731,4.1863,4.2078,4.2346,4.2232,4.1986,4.2355,4.2786,4.2685,4.2879,4.3103,3.259,3.3088,3.3133,3.4118,3.55,3.5066,3.5174,3.5672,3.5761,3.6012,3.6393,3.6452,3.6473,3.6441,3.6022,3.589,3.5873,3.5754,3.57,3.57,3.57,3.57,3.57,3.5781,3.6008,3.6459,3.6866,3.7219,3.7588,3.794,3.7778,3.7886,3.8076,3.8212,3.832,3.8347,3.8374,3.8293,3.7767,3.7262,3.6904,3.6714,3.6605,3.6497,3.6242,3.6449,3.6856,3.6747,3.6703,3.6676,3.6676,3.6459,3.6276,3.7581,3.8225,3.8394,3.9781,4.0489,4.0575,4.0566,4.072,4.0729,4.0606,4.036,4.0443,4.0382,4.0206,4.0237,4.0329,4.0382,4.0505,4.0566,4.0606,4.0698,4.0729,4.079,4.0821,4.0729,4.0606,4.0298,4.029,4.0228,3.9806,3.9414,3.9138,3.8614,3.7907,3.7792,3.8007,3.7954,3.7677,3.7677,3.773,3.8153,3.8592,3.8978,3.9563,4.0315,4.083,4.1146,4.1516,4.1731,4.1977,4.2346,4.2509,4.258,4.2826,4.3103,4.3042,4.302,4.3267,4.3513,4.335,4.331,4.3596,3.2535,3.3088,3.3115,3.3884,3.4975,3.4893,3.5147,3.5679,3.5947,3.5983,3.5929,3.6089,3.6045,3.5841,3.5802,3.57,3.57,3.57,3.57,3.57,3.57,3.57,3.5727,3.5808,3.6062,3.6568,3.6947,3.7507,3.813,3.8347,3.8629,3.8792,3.8765,3.8955,3.8982,3.8982,3.8982,3.8901,3.8429,3.7968,3.7751,3.7409,3.7192,3.7192,3.6927,3.7089,3.7577,3.7317,3.7208,3.7181,3.7181,3.7077,3.7133,3.8387,3.9238,3.9632,4.0858,4.1871,4.1876,4.1907,4.1898,4.1661,4.1137,4.0891,4.1107,4.0729,4.0575,4.0566,4.0667,4.0667,4.0505,4.1014,4.1239,4.1423,4.1485,4.1546,4.1546,4.1362,4.1146,4.0636,4.0443,4.0421,4.0114,3.9898,3.9661,3.9498,3.8891,3.8399,3.8469,3.8376,3.8192,3.8223,3.8346,3.8768,3.9207,3.977,4.0047,4.0562,4.1045,4.1423,4.1832,4.2417,4.2602,4.2786,4.3033,4.3288,4.3473,4.3698,4.3975,4.4138,4.4107,4.4107,4.4006,4.4027,4.4221,3.2381,3.2696,3.2761,3.342,3.4345,3.4664,3.5147,3.5686,3.5902,3.5776,3.5629,3.5867,3.5861,3.5626,3.5619,3.57,3.57,3.57,3.57,3.57,3.57,3.57,3.5754,3.5917,3.628,3.6758,3.7425,3.8076,3.8374,3.8982,3.9172,3.9199,3.9319,3.9237,3.9264,3.9264,3.9264,3.9145,3.8819,3.8564,3.8304,3.8033,3.7794,3.774,3.7659,3.7686,3.793,3.7957,3.7794,3.7794,3.7816,3.7856,3.8328,3.908,3.9952,4.0471,4.1152,4.21,4.2308,4.2468,4.26,4.3177,4.1977,4.1454,4.1617,4.1414,4.1168,4.1107,4.1076,4.1168,4.1291,4.1823,4.1925,4.2109,4.2171,4.2232,4.214,4.1955,4.1709,4.1168,4.0821,4.0698,4.043,4.0368,4.0184,4.0061,3.9898,3.9445,3.8984,3.8777,3.8684,3.8715,3.8891,3.9291,3.9937,4.0685,4.0869,4.0891,4.1423,4.2057,4.258,4.3205,4.3227,4.3279,4.3627,4.3913,4.4036,4.4221,4.4344,4.4437,4.4437,4.4498,4.4591,4.4591,4.4591,3.2082,3.1954,3.2109,3.2794,3.364,3.4462,3.5147,3.5649,3.5504,3.5534,3.5676,3.55,3.549,3.5636,3.5659,3.5649,3.5619,3.5619,3.5639,3.5659,3.5656,3.5686,3.5971,3.628,3.6659,3.7094,3.768,3.832,3.851,3.902,3.9292,3.9319,3.9319,3.9319,3.9319,3.9319,3.9319,3.9264,3.9199,3.8928,3.864,3.8494,3.8429,3.832,3.8157,3.8347,3.8602,3.8695,3.8439,3.8358,3.8385,3.8545,3.8942,3.9562,3.9881,4.0344,4.1053,4.1844,4.2412,4.2708,4.3347,4.3935,4.331,4.247,4.2069,4.2131,4.1916,4.1854,4.1876,4.2193,4.25,4.2571,4.2633,4.2725,4.2786,4.2756,4.2694,4.2509,4.2232,4.1885,4.1546,4.1239,4.0715,4.0531,4.0777,4.0808,4.0685,4.0368,3.9854,3.9177,3.9115,3.9107,3.9384,3.9814,4.0531,4.1362,4.1639,4.1608,4.2457,4.3122,4.3615,4.383,4.3913,4.4027,4.4344,4.4498,4.4406,4.4406,4.4498,4.4591,4.4714,4.4683,4.4683,4.4591,4.4591,3.2173,3.2146,3.2486,3.2883,3.3364,3.4359,3.5058,3.545,3.5416,3.5463,3.5467,3.5416,3.5365,3.5284,3.5406,3.5386,3.5325,3.5284,3.5375,3.5463,3.5575,3.5906,3.6228,3.6578,3.7083,3.7707,3.825,3.8656,3.8982,3.9292,3.9292,3.9319,3.9319,3.9319,3.9319,3.9319,3.9319,3.9319,3.9319,3.9183,3.9047,3.8955,3.8955,3.8846,3.8765,3.8982,3.9074,3.9129,3.8857,3.8521,3.8846,3.8983,3.855,3.969,4.0583,4.1455,4.2188,4.286,4.3087,4.3625,4.416,4.4446,4.4089,4.3759,4.3236,4.2826,4.2633,4.2562,4.2654,4.291,4.3063,4.3165,4.3257,4.335,4.3442,4.3534,4.3442,4.3227,4.2949,4.2488,4.214,4.1762,4.1208,4.1186,4.1401,4.1524,4.1463,4.1177,4.0715,4.0038,3.9607,3.9599,3.9599,3.9977,4.1054,4.1946,4.2193,4.2479,4.3236,4.3747,4.3799,4.4046,4.4406,4.4591,4.4591,4.4591,4.456,4.4652,4.4806,4.4877,4.4939,4.4868,4.4806,4.4899,4.4806,3.2146,3.2127,3.2424,3.2713,3.3064,3.3937,3.4587,3.5019,3.5369,3.5504,3.5396,3.5396,3.5274,3.5168,3.5239,3.528,3.528,3.5274,3.5365,3.5545,3.5514,3.5977,3.6411,3.6893,3.7517,3.8157,3.8656,3.8982,3.9264,3.9319,3.9319,3.9319,3.9319,3.9319,3.9319,3.9319,3.9319,3.9319,3.9319,3.9319,3.9319,3.9319,3.9319,3.9319,3.9319,3.9319,3.9319,3.9319,3.9063,3.8792,3.921,3.9371,3.9173,4.0204,4.1032,4.1786,4.2257,4.2812,4.3239,4.403,4.4436,4.4591,4.4591,4.4344,4.4067,4.3688,4.3381,4.3165,4.3319,4.3473,4.3596,4.3719,4.3852,4.4006,4.416,4.4354,4.419,4.4036,4.3605,4.3082,4.2672,4.2316,4.2069,4.2048,4.1933,4.1801,4.1916,4.2008,4.1507,4.083,4.0368,4.0184,3.9999,4.0069,4.1269,4.2509,4.294,4.3257,4.3698,4.4077,4.4046,4.4169,4.4498,4.4591,4.4591,4.4622,4.4683,4.496,4.5145,4.5237,4.5453,4.5638,4.569,4.572,4.5536,3.21,3.1963,3.2118,3.2434,3.2777,3.3413,3.3985,3.4542,3.5275,3.5538,3.5375,3.5365,3.5212,3.5003,3.5034,3.5116,3.5137,3.5178,3.5311,3.5666,3.5588,3.5954,3.6591,3.7208,3.7724,3.8374,3.8874,3.9172,3.9264,3.9319,3.9319,3.9319,3.9319,3.9319,3.9319,3.9319,3.9319,3.9319,3.9319,3.9319,3.9319,3.9319,3.9319,3.9319,3.9319,3.9319,3.9319,3.9319,3.9319,3.9292,3.9375,3.9678,4.0,4.0275,4.0912,4.1509,4.1862,4.2426,4.3121,4.3966,4.4458,4.4591,4.4591,4.4529,4.4375,4.4252,4.3944,4.379,4.3913,4.4027,4.4129,4.416,4.4252,4.4314,4.4406,4.4508,4.4437,4.4314,4.4107,4.3636,4.3227,4.291,4.2879,4.2826,4.2835,4.2395,4.2509,4.2808,4.2562,4.1916,4.1414,4.1107,4.1392,4.1524,4.1995,4.3073,4.3759,4.4129,4.4283,4.4344,4.4323,4.4437,4.456,4.4591,4.4591,4.4714,4.4837,4.5135,4.5505,4.5813,4.609,4.649,4.6613,4.6542,4.6296,3.2182,3.2137,3.2182,3.2416,3.2823,3.3367,3.3921,3.4522,3.5012,3.5212,3.5178,3.5157,3.4946,3.4667,3.4828,3.489,3.4797,3.5065,3.5096,3.5331,3.5436,3.6025,3.6601,3.7262,3.7821,3.8401,3.8928,3.9319,3.9319,3.9319,3.9319,3.9319,3.9319,3.9319,3.9319,3.9319,3.9319,3.9319,3.9319,3.9319,3.9319,3.9319,3.9319,3.9319,3.9319,3.9319,3.9319,3.9319,3.9319,3.9292,3.9319,3.9424,3.9563,3.9607,3.9728,4.0131,4.1394,4.211,4.2891,4.3839,4.4477,4.4591,4.4591,4.4591,4.456,4.4591,4.4529,4.4477,4.4446,4.4529,4.4591,4.4591,4.4591,4.4591,4.4591,4.4591,4.4591,4.4539,4.4508,4.42,4.379,4.3698,4.3636,4.3636,4.3645,4.3769,4.3975,4.4129,4.3996,4.3504,4.2848,4.2663,4.3381,4.3605,4.3605,4.3544,4.4129,4.4375,4.4468,4.4529,4.4591,4.4591,4.4591,4.4591,4.4622,4.4837,4.5105,4.5413,4.5782,4.6305,4.6788,4.7219,4.7311,4.7281,4.6993,3.2155,3.2091,3.2164,3.2281,3.2492,3.2974,3.3507,3.3998,3.4406,3.4723,3.4936,3.4942,3.474,3.447,3.4683,3.4808,3.4725,3.4983,3.526,3.5386,3.5514,3.619,3.6787,3.7333,3.8103,3.8684,3.9036,3.9319,3.9319,3.9319,3.9319,3.9319,3.9319,3.9319,3.9319,3.9319,3.9319,3.9319,3.9319,3.9319,3.9319,3.9346,3.9319,3.9319,3.9319,3.9319,3.9319,3.9319,3.9319,3.9319,3.9319,3.9319,3.9369,3.938,3.9854,4.0617,4.1561,4.2335,4.3081,4.382,4.4524,4.4524,4.4543,4.4524,4.4591,4.4591,4.4591,4.4508,4.4508,4.4591,4.4591,4.4591,4.4591,4.4591,4.4591,4.4591,4.4591,4.456,4.4569,4.4446,4.4221,4.419,4.416,4.415,4.416,4.42,4.4569,4.4631,4.4622,4.4591,4.4058,4.3842,4.4283,4.4498,4.42,4.4169,4.4406,4.456,4.4622,4.4662,4.4693,4.4622,4.4591,4.4776,4.496,4.5197,4.5474,4.5936,4.6419,4.7004,4.7496,4.7948,4.7948,4.7948,4.7763,3.2082,3.1972,3.2128,3.2091,3.1989,3.2426,3.2848,3.3199,3.3671,3.4155,3.4587,3.4693,3.4585,3.4569,3.4673,3.4859,3.5014,3.5096,3.5355,3.5447,3.5548,3.6136,3.6778,3.7437,3.8228,3.8846,3.9264,3.9319,3.9319,3.9319,3.9319,3.9319,3.9319,3.9319,3.9319,3.9319,3.9319,3.9319,3.9319,3.9373,3.9373,3.94,3.9481,3.9454,3.94,3.9427,3.9427,3.9346,3.9346,3.9454,3.9509,3.9547,3.9427,3.9433,3.9979,4.0766,4.1551,4.2558,4.3496,4.3946,4.4236,4.4362,4.4391,4.4352,4.4343,4.4438,4.4438,4.4591,4.4591,4.4591,4.4591,4.4591,4.4591,4.4622,4.4622,4.4622,4.4652,4.4652,4.4652,4.4622,4.4622,4.4591,4.456,4.455,4.4622,4.4631,4.4662,4.4693,4.4683,4.4622,4.4344,4.4221,4.4437,4.4539,4.4539,4.4569,4.4591,4.4714,4.4745,4.4785,4.4847,4.4991,4.5114,4.5197,4.5413,4.5782,4.6234,4.6726,4.725,4.764,4.7948,4.8286,4.8317,4.8317,4.843,3.2027,3.2155,3.2191,3.2091,3.1962,3.2285,3.2425,3.2489,3.3293,3.3737,3.3987,3.4334,3.4429,3.4408,3.4683,3.4818,3.4791,3.5034,3.5014,3.4993,3.5365,3.5931,3.6705,3.7616,3.8293,3.8884,3.9319,3.9319,3.9319,3.9319,3.9346,3.9373,3.9346,3.9346,3.9346,3.94,3.9481,3.9481,3.9525,3.9633,3.9954,4.0008,4.0035,4.0035,4.0035,4.0035,3.9927,3.9536,3.9671,3.9873,3.9992,3.9965,3.9791,3.9558,3.9815,4.0417,4.1257,4.2038,4.2811,4.3299,4.3487,4.3637,4.3568,4.3339,4.3497,4.385,4.4054,4.4562,4.4591,4.4591,4.4591,4.4591,4.4591,4.4683,4.4714,4.4776,4.4837,4.4837,4.4847,4.4776,4.4745,4.4683,4.456,4.4652,4.4797,4.4806,4.4847,4.4908,4.5155,4.4929,4.4652,4.4652,4.4683,4.4591,4.456,4.456,4.4622,4.4745,4.5022,4.5299,4.5484,4.5576,4.5669,4.5751,4.6121,4.6552,4.7034,4.7373,4.7763,4.8101,4.8317,4.8522,4.8583,4.8583,4.8583]},{"header":{"parameterUnit":"m.s-1","parameterCategory":1,"la1":31.0,"la2":29.5877,"lo1":-88.7671,"lo2":-86.6584,"dx":0.0162,"dy":0.0185,"nx":115,"ny":88,"refTime":"2023-02-04T06:00:00:Z","depth":0,"parameterNumber":3,"parameterNumberName":"V-component_of_WINDS"},"data":[0.0,0.0,0.0,0.0,0.0,0.0,0.0,0.0,0.0,0.0,0.0,0.0,0.0,0.0,0.0,0.0,0.0,0.0,0.0,0.0,0.0,0.0,0.0,0.0,0.0,0.0,0.0,0.0,0.0,0.0,0.0,0.0,0.0,0.0,0.0,0.0,0.0,0.0,0.0,0.0,0.0,0.0,0.0,0.0,0.0,0.0,0.0,0.0,0.0,0.0,0.0,0.0,0.0,0.0,0.0,0.0,0.0,0.0,0.0,0.0,0.0,0.0,0.0,0.0,0.0,0.0,0.0,0.0,0.0,0.0,0.0,0.0,0.0,0.0,0.0,0.0,0.0,0.0,0.0,0.0,0.0,0.0,0.0,0.0,0.0,0.0,0.0,0.0,0.0,0.0,0.0,0.0,0.0,0.0,0.0,0.0,0.0,0.0,0.0,0.0,0.0,0.0,0.0,0.0,0.0,0.0,0.0,0.0,0.0,0.0,0.0,0.0,0.0,0.0,0.0,0.0,0.0,0.0,0.0,0.0,0.0,0.0,0.0,0.0,0.0,0.0,0.0,0.0,0.0,0.0,0.0,0.0,0.0,0.0,0.0,0.0,0.0,0.0,0.0,0.0,0.0,0.0,0.0,0.0,0.0,0.0,0.0,0.0,0.0,0.0,0.0,0.0,0.0,0.0,0.0,0.0,0.0,0.0,0.0,0.0,0.0,0.0,0.0,0.0,0.0,0.0,0.0,0.0,0.0,0.0,0.0,0.0,0.0,0.0,0.0,0.0,0.0,0.0,0.0,0.0,0.0,0.0,0.0,0.0,0.0,0.0,0.0,0.0,0.0,0.0,0.0,0.0,0.0,0.0,0.0,0.0,0.0,0.0,0.0,0.0,0.0,0.0,0.0,0.0,0.0,0.0,0.0,0.0,0.0,0.0,0.0,0.0,0.0,0.0,0.0,0.0,0.0,0.0,0.0,0.0,0.0,0.0,0.0,0.0,0.0,0.0,0.0,0.0,0.0,0.0,0.0,0.0,0.0,0.0,0.0,0.0,0.0,0.0,0.0,0.0,0.0,0.0,0.0,0.0,0.0,0.0,0.0,0.0,0.0,0.0,0.0,0.0,0.0,0.0,0.0,0.0,0.0,0.0,0.0,0.0,0.0,0.0,0.0,0.0,0.0,0.0,0.0,0.0,0.0,0.0,0.0,0.0,0.0,0.0,0.0,0.0,0.0,0.0,0.0,0.0,0.0,0.0,0.0,0.0,0.0,0.0,0.0,0.0,0.0,0.0,0.0,0.0,0.0,0.0,0.0,0.0,0.0,0.0,0.0,0.0,0.0,0.0,0.0,0.0,0.0,0.0,0.0,0.0,0.0,0.0,0.0,0.0,0.0,0.0,0.0,0.0,0.0,0.0,0.0,0.0,0.0,0.0,0.0,0.0,0.0,0.0,0.0,0.0,0.0,0.0,0.0,0.0,0.0,0.0,0.0,0.0,0.0,0.0,0.0,0.0,0.0,0.0,0.0,0.0,0.0,0.0,0.0,0.0,0.0,0.0,0.0,0.0,0.0,0.0,0.0,0.0,0.0,0.0,0.0,0.0,0.0,0.0,0.0,0.0,0.0,0.0,0.0,0.0,0.0,0.0,0.0,0.0,0.0,0.0,0.0,0.0,0.0,0.0,0.0,0.0,0.0,0.0,0.0,0.0,0.0,0.0,0.0,0.0,0.0,0.0,0.0,0.0,0.0,0.0,0.0,0.0,0.0,0.0,0.0,0.0,0.0,0.0,0.0,0.0,0.0,0.0,0.0,0.0,0.0,0.0,0.0,0.0,0.0,0.0,0.0,0.0,0.0,0.0,0.0,0.0,0.0,0.0,0.0,0.0,0.0,0.0,0.0,0.0,0.0,0.0,0.0,0.0,0.0,0.0,0.0,0.0,0.0,0.0,0.0,0.0,0.0,0.0,0.0,0.0,0.0,0.0,0.0,0.0,0.0,0.0,0.0,0.0,0.0,0.0,0.0,0.0,0.0,0.0,0.0,0.0,0.0,0.0,0.0,0.0,0.0,0.0,0.0,0.0,0.0,0.0,0.0,0.0,0.0,0.0,0.0,0.0,0.0,0.0,0.0,0.0,0.0,0.0,0.0,0.0,0.0,0.0,0.0,0.0,0.0,0.0,0.0,0.0,0.0,0.0,0.0,0.0,0.0,0.0,0.0,0.0,0.0,0.0,0.0,0.0,0.0,0.0,0.0,0.0,0.0,0.0,0.0,0.0,0.0,0.0,0.0,0.0,0.0,0.0,0.0,0.0,0.0,0.0,0.0,0.0,0.0,0.0,0.0,0.0,0.0,0.0,0.0,0.0,0.0,0.0,0.0,0.0,0.0,0.0,0.0,0.0,0.0,0.0,0.0,0.0,0.0,0.0,0.0,0.0,0.0,0.0,0.0,0.0,0.0,0.0,0.0,0.0,0.0,0.0,0.0,0.0,0.0,0.0,0.0,0.0,0.0,0.0,0.0,0.0,0.0,0.0,0.0,0.0,0.0,0.0,0.0,0.0,0.0,0.0,0.0,0.0,0.0,0.0,0.0,0.0,0.0,0.0,0.0,0.0,0.0,0.0,0.0,0.0,0.0,0.0,0.0,0.0,0.0,0.0,0.0,0.0,0.0,0.0,0.0,0.0,0.0,0.0,0.0,0.0,0.0,0.0,0.0,0.0,0.0,0.0,0.0,0.0,0.0,0.0,0.0,0.0,0.0,0.0,0.0,0.0,0.0,0.0,0.0,0.0,0.0,0.0,0.0,0.0,0.0,0.0,0.0,0.0,0.0,0.0,0.0,0.0,0.0,0.0,0.0,0.0,0.0,0.0,0.0,0.0,0.0,0.0,0.0,0.0,0.0,0.0,0.0,0.0,0.0,0.0,0.0,0.0,0.0,0.0,0.0,0.0,0.0,0.0,0.0,0.0,0.0,0.0,0.0,0.0,0.0,0.0,0.0,0.0,0.0,0.0,0.0,0.0,0.0,0.0,0.0,0.0,0.0,0.0,0.0,0.0,0.0,0.0,0.0,0.0,0.0,0.0,0.0,0.0,0.0,0.0,0.0,0.0,0.0,0.0,0.0,0.0,0.0,0.0,0.0,0.0,0.0,0.0,0.0,0.0,0.0,0.0,0.0,0.0,0.0,0.0,0.0,0.0,0.0,0.0,0.0,0.0,0.0,0.0,0.0,0.0,0.0,0.0,0.0,0.0,0.0,0.0,0.0,0.0,0.0,0.0,0.0,0.0,0.0,0.0,0.0,0.0,0.0,0.0,0.0,0.0,0.0,0.0,0.0,0.0,0.0,0.0,0.0,0.0,0.0,0.0,0.0,0.0,0.0,0.0,0.0,0.0,0.0,0.0,0.0,0.0,0.0,0.0,0.0,0.0,0.0,0.0,0.0,0.0,0.0,0.0,0.0,0.0,0.0,0.0,0.0,0.0,0.0,0.0,0.0,0.0,0.0,0.0,0.0,0.0,0.0,0.0,0.0,0.0,0.0,0.0,0.0,0.0,0.0,0.0,0.0,0.0,0.0,0.0,0.0,0.0,0.0,0.0,0.0,0.0,0.0,0.0,0.0,0.0,0.0,0.0,0.0,0.0,0.0,0.0,0.0,0.0,0.0,0.0,0.0,0.0,0.0,0.0,0.0,0.0,0.0,0.0,0.0,0.0,0.0,0.0,0.0,0.0,0.0,0.0,0.0,0.0,0.0,0.0,0.0,0.0,0.0,0.0,0.0,0.0,0.0,0.0,0.0,0.0,0.0,0.0,0.0,0.0,0.0,0.0,0.0,0.0,0.0,0.0,0.0,0.0,0.0,0.0,0.0,0.0,0.0,0.0,0.0,0.0,0.0,0.0,0.0,0.0,0.0,0.0,0.0,0.0,0.0,0.0,0.0,0.0,0.0,0.0,0.0,0.0,0.0,0.0,0.0,0.0,0.0,0.0,0.0,0.0,0.0,0.0,0.0,0.0,0.0,0.0,0.0,0.0,0.0,0.0,0.0,0.0,0.0,0.0,0.0,0.0,0.0,0.0,0.0,0.0,0.0,0.0,0.0,0.0,0.0,0.0,0.0,0.0,0.0,0.0,0.0,0.0,0.0,0.0,0.0,0.0,0.0,0.0,0.0,0.0,0.0,0.0,0.0,0.0,0.0,0.0,0.0,0.0,0.0,0.0,0.0,0.0,0.0,0.0,0.0,0.0,0.0,0.0,0.0,0.0,0.0,0.0,0.0,0.0,0.0,0.0,0.8994,0.0,0.0,0.0,0.0,0.0,0.0,0.0,0.0,0.0,0.0,0.0,0.0,0.0,0.0,0.0,0.0,0.0,0.0,0.0,0.0,0.0,0.0,0.0,0.0,0.0,0.0,0.0,0.0,0.0,0.0,0.0,0.0,0.0,0.0,0.0,0.0,0.0,0.0,0.0,0.0,0.0,0.0,0.0,0.0,0.0,0.0,0.0,0.0,0.0,0.0,0.0,0.0,0.0,0.0,0.0,0.0,0.0,0.0,0.0,0.0,0.0,0.0,0.0,0.0,0.0,0.0,0.0,0.0,0.0,0.0,0.0,0.0,0.0,0.0,0.0,0.0,0.0,0.0,0.0,0.0,0.0,0.0,0.0,0.0,0.0,0.0,0.0,0.0,0.0,0.0,0.0,0.0,0.0,0.0,0.0,0.0,0.0,0.0,0.0,0.0,0.0,0.0,0.0,0.0,0.0,0.0,0.0,0.0,0.0,0.0,0.9024,0.884,0.8987,0.9096,0.9096,0.0,0.0,0.0,0.0,0.0,0.0,0.0,0.0,0.0,0.0,0.0,0.0,0.0,0.0,0.0,0.0,0.0,0.0,0.0,0.0,0.0,0.0,0.0,0.0,0.0,0.0,0.0,0.0,0.0,0.0,0.0,0.0,0.0,0.0,0.0,0.0,0.0,0.0,0.0,0.0,0.0,0.0,0.0,0.0,0.0,0.0,0.0,0.0,0.0,0.0,0.0,0.0,0.0,0.0,0.0,0.0,0.0,0.0,0.0,0.0,0.0,0.0,0.0,0.0,0.0,0.0,0.0,0.0,0.0,0.0,0.0,0.0,0.0,0.0,0.0,0.0,0.0,0.0,0.0,0.0,0.0,0.0,0.0,0.0,0.0,0.0,0.0,0.0,0.0,0.0,0.0,0.0,0.0,0.0,0.0,0.0,0.0,0.0,0.0,0.0,0.0,0.0,0.0,0.0,0.0,0.0,0.0,0.0,0.0,0.0,0.0,0.0,0.9316,0.9497,0.9601,0.0,0.0,0.0,0.0,0.0,0.0,0.0,0.0,0.0,0.0,0.0,0.0,0.0,0.0,0.0,0.0,0.0,0.0,0.0,0.0,0.0,0.0,0.0,0.0,0.0,0.0,0.0,0.0,0.0,0.0,0.0,0.0,0.0,0.0,0.0,0.0,0.0,0.0,0.0,0.0,0.0,0.0,0.0,0.0,0.0,0.0,0.0,0.0,0.0,0.0,0.0,0.0,0.0,0.0,0.0,0.0,0.0,0.0,0.0,0.0,0.0,0.0,0.0,0.0,0.0,0.0,0.0,0.0,0.0,0.0,0.0,0.0,0.0,0.0,0.0,0.0,0.0,0.0,0.0,0.0,0.0,0.0,0.0,0.0,0.0,0.0,0.0,0.0,0.0,0.0,0.0,0.0,0.0,0.0,0.0,0.0,0.0,0.0,0.0,0.0,0.0,0.0,0.0,0.0,0.0,0.0,0.0,0.0,0.0,0.0,0.9514,1.0381,1.0427,0.0,1.1042,0.0,0.0,0.0,0.0,0.0,0.0,0.0,0.0,0.0,0.0,0.0,0.0,0.0,0.0,0.0,0.0,0.0,0.0,0.0,0.0,0.0,0.0,0.0,0.0,0.0,0.0,0.0,0.0,0.0,0.0,0.0,0.0,0.0,0.0,0.0,0.0,0.0,0.0,0.0,0.0,0.0,0.0,0.0,0.0,0.0,0.0,0.0,0.0,0.0,0.0,0.0,0.0,0.0,0.0,0.0,0.0,0.0,0.0,0.0,0.0,0.0,0.0,0.0,0.0,0.0,0.0,0.0,0.0,0.0,0.0,0.0,0.0,0.0,0.0,0.0,0.0,0.0,0.0,0.0,0.0,0.0,0.0,0.0,0.0,0.0,0.0,0.0,0.0,0.0,0.0,0.0,0.0,0.0,0.0,0.0,0.0,0.0,0.0,0.0,0.0,0.0,0.0,0.0,0.0,0.0,0.0,0.0,0.0,0.0,0.0,0.9424,1.0099,1.0122,1.0374,0.0,0.0,0.0,0.0,0.0,0.0,0.0,0.0,0.0,0.0,0.0,0.0,0.0,0.0,0.0,0.0,0.0,0.0,0.0,0.0,0.0,0.0,0.0,0.0,0.0,0.0,0.0,0.0,0.0,0.0,0.0,0.0,0.0,0.0,0.0,0.0,0.0,0.0,0.0,0.0,0.0,0.0,0.0,0.0,0.0,0.0,0.0,0.0,0.0,0.0,0.0,0.0,0.0,0.0,0.0,0.0,0.0,0.0,0.0,0.0,0.0,0.0,0.0,0.0,0.0,0.0,0.0,0.0,0.0,0.0,0.0,0.0,0.0,0.0,0.0,0.0,0.0,0.0,0.0,0.0,0.0,0.0,0.0,0.0,0.0,0.0,0.0,0.0,0.0,0.0,0.0,0.0,0.0,0.0,0.0,0.0,0.0,0.0,0.0,0.0,0.0,0.0,0.0,0.0,0.0,0.0,0.0,0.0,0.0,0.0,0.9387,0.9582,1.0171,0.982,0.9976,1.0756,0.0,0.0,0.0,0.0,0.0,0.0,0.0,0.0,0.0,0.0,0.0,0.0,0.0,0.0,0.0,0.0,0.0,0.0,0.0,0.0,0.0,0.0,0.0,0.0,0.0,0.0,0.0,0.0,0.0,0.0,0.0,0.0,0.0,0.0,0.0,0.0,0.0,0.0,0.0,0.0,0.0,0.0,0.0,0.0,0.0,0.0,0.0,0.0,0.0,0.0,0.0,0.0,0.0,0.0,0.0,0.0,0.0,0.0,0.0,0.0,0.0,0.0,0.0,0.0,0.0,0.0,0.0,0.0,0.0,0.0,0.0,0.0,0.0,0.0,0.0,0.0,0.0,0.0,0.0,0.0,0.0,0.0,0.0,0.0,0.0,0.0,0.0,0.0,0.0,0.0,0.0,0.0,0.0,0.0,0.0,0.0,0.0,0.0,0.0,0.0,0.0,0.0,0.0,0.0,0.0,0.0,0.0,0.0,1.0503,1.0047,1.0229,1.1111,0.988,0.9804,0.0,0.0,0.0,0.0,0.0,0.0,0.0,0.0,0.0,0.0,0.0,0.0,0.0,0.0,0.0,0.0,0.0,0.0,0.0,0.0,0.0,0.0,0.0,0.0,0.0,0.0,0.0,0.0,0.0,0.0,0.0,0.0,0.0,0.0,0.0,0.0,0.0,0.0,0.0,0.0,0.0,0.0,0.0,0.0,0.0,0.0,0.0,0.0,0.0,0.0,0.0,0.0,0.0,0.0,0.0,0.0,0.0,0.0,0.0,0.0,0.0,0.0,0.0,0.0,0.0,0.0,0.0,0.0,0.0,0.0,0.0,0.0,0.0,0.0,0.0,0.0,0.0,0.0,0.0,0.0,0.0,0.0,0.0,0.0,0.0,0.0,0.0,0.0,0.0,0.0,0.0,0.0,0.0,0.0,0.0,0.0,0.0,0.0,0.0,0.0,0.0,0.0,0.0,0.0,0.0,0.0,0.0,0.0,0.0,0.9326,0.9645,0.998,1.0294,0.9827,0.9957,0.0,0.0,0.0,0.0,0.0,0.0,0.0,0.0,0.0,0.0,0.0,0.0,0.0,0.0,0.0,0.0,0.0,0.0,0.0,0.0,0.0,0.0,0.0,0.0,0.0,0.0,0.0,0.0,0.0,0.0,0.0,0.0,0.0,0.0,0.0,0.0,0.0,0.0,0.0,0.0,0.0,0.0,0.0,0.0,0.0,0.0,0.0,0.0,0.0,0.0,0.0,0.0,0.0,0.0,0.0,0.0,0.0,0.0,0.0,0.0,0.0,0.0,0.0,0.0,0.0,0.0,0.0,0.0,0.0,0.0,0.0,0.0,0.0,0.0,0.0,0.0,0.0,0.0,0.0,0.0,0.0,0.0,0.0,0.0,0.0,0.0,0.0,0.0,0.0,0.0,0.0,0.0,0.0,0.0,0.0,0.0,0.0,0.0,0.0,0.0,0.0,0.0,0.0,0.0,0.0,0.0,0.0,0.0,0.0,0.8975,0.0,0.966,0.9797,0.9632,0.9732,0.0,0.0,0.0,0.0,0.0,0.0,0.0,0.0,0.0,0.0,0.0,0.0,0.0,0.0,0.0,0.0,0.0,0.0,0.0,0.0,0.0,0.0,0.0,0.0,0.0,0.0,0.0,0.0,0.0,0.0,0.0,0.0,0.0,0.0,0.0,0.0,0.0,0.0,0.0,0.0,0.0,0.0,0.0,0.0,0.0,0.0,0.0,0.0,0.0,0.0,0.0,0.0,0.0,0.0,0.0,0.0,0.0,0.0,0.0,0.0,0.0,0.0,0.0,0.0,0.0,0.0,0.0,0.0,0.0,0.0,0.0,0.0,0.0,0.0,0.0,0.0,0.0,0.0,0.0,0.0,0.0,0.0,0.0,0.0,0.0,0.0,0.0,0.0,0.0,0.0,0.0,0.0,0.0,0.0,0.0,0.0,0.0,0.0,0.0,0.0,0.0,0.0,0.0,0.0,0.0,0.0,0.0,0.0,0.8739,0.9703,0.9399,0.9455,0.9805,0.9394,0.9138,0.0,0.0,0.0,0.0,0.0,0.0,0.0,0.0,0.0,0.0,0.0,0.0,0.0,0.0,0.0,0.0,0.0,0.0,0.0,0.0,0.0,0.0,0.0,0.0,0.0,0.0,0.0,0.0,0.0,0.0,0.0,0.0,0.0,0.0,0.0,0.0,0.0,0.0,0.0,0.0,0.0,0.0,0.0,0.0,0.0,0.0,0.0,0.0,0.0,0.0,0.0,0.0,0.0,0.0,0.0,0.0,0.0,0.0,0.0,0.0,0.0,0.0,0.0,0.0,0.0,0.0,0.0,0.0,0.0,0.0,0.0,0.0,0.0,0.0,0.0,0.0,0.0,0.0,0.0,0.0,0.0,0.0,0.0,0.0,0.0,0.0,0.0,0.0,0.0,0.0,0.0,0.0,0.0,0.0,0.0,0.0,0.0,0.0,0.0,0.0,0.0,0.0,0.0,0.0,0.0,0.0,0.0,0.0,0.0,0.8971,0.9391,1.0019,1.0744,1.003,1.008,0.0,0.0,0.0,0.0,0.0,0.0,0.0,0.0,0.0,0.0,0.0,0.0,0.0,0.0,0.0,0.0,0.0,0.0,0.0,0.0,0.0,0.0,0.0,0.0,0.0,0.0,0.0,0.0,0.0,0.0,0.0,0.0,0.0,0.0,0.0,0.0,0.0,0.0,0.0,0.0,0.0,0.0,0.0,0.0,0.0,0.0,0.0,0.0,0.0,0.0,0.0,0.0,0.0,0.0,0.0,0.0,0.0,0.0,0.0,0.0,0.0,0.0,0.0,0.0,0.0,0.0,0.0,0.0,0.0,0.0,0.0,0.0,0.0,0.0,0.0,0.0,0.0,0.0,0.0,0.0,0.0,0.0,0.0,0.0,0.0,0.0,0.0,0.0,0.0,0.0,0.0,0.0,0.0,0.0,0.0,0.0,0.0,0.0,0.0,0.0,0.0,0.0,0.0,0.0,0.0,0.0,0.0,0.0,0.0,0.9504,1.0056,1.0577,1.1031,1.0588,1.0623,1.1194,0.0,0.0,0.0,0.0,0.0,0.0,0.0,0.0,0.0,0.0,0.0,0.0,0.0,0.0,0.0,0.0,0.0,0.0,0.0,0.0,0.0,0.0,0.0,0.0,0.0,0.0,0.0,0.0,0.0,0.0,0.0,0.0,0.0,0.0,0.0,0.0,0.0,0.0,0.0,0.0,0.0,0.0,0.0,0.0,0.0,0.0,0.0,0.0,0.0,0.0,0.0,0.0,0.0,0.0,0.0,0.0,0.0,0.0,0.0,0.0,0.0,0.0,0.0,0.0,0.0,0.0,0.0,0.0,0.0,0.0,0.0,0.0,0.0,0.0,0.0,0.0,0.0,0.0,0.0,0.0,0.0,0.0,0.0,0.0,0.0,0.0,0.0,0.0,0.0,0.0,0.0,0.0,0.0,0.0,0.0,0.0,0.0,0.0,0.0,0.0,0.0,0.0,0.0,0.0,0.0,0.0,0.0,0.0,1.1018,1.1374,1.1348,1.0902,1.1219,1.0967,0.0,0.0,0.0,0.0,0.0,0.0,0.0,0.0,0.0,0.0,0.0,0.0,0.0,0.0,0.0,0.0,0.0,0.0,0.0,0.0,0.0,0.0,0.0,0.0,0.0,0.0,0.0,0.0,0.0,0.0,0.0,0.0,0.0,0.0,0.0,0.0,0.0,0.0,0.0,0.0,0.0,0.0,0.0,0.0,0.0,0.0,0.0,0.0,0.0,0.0,0.0,0.0,0.0,0.0,0.0,0.0,0.0,0.0,0.0,0.0,0.0,0.0,0.0,0.0,0.0,0.0,0.0,0.0,0.0,0.0,0.0,0.0,0.0,0.0,0.0,0.0,0.0,0.0,0.0,0.0,0.0,0.0,0.0,0.0,0.0,0.0,0.0,0.0,0.0,0.0,0.0,0.0,0.0,0.0,0.0,0.0,0.0,0.0,0.0,0.0,0.0,0.0,0.0,0.0,0.0,0.0,0.0,0.0,0.0,1.2406,1.3888,1.4297,1.3447,1.2803,1.2518,0.0,0.0,0.0,0.0,0.0,0.0,0.0,0.0,0.0,0.0,0.0,0.0,0.0,0.0,0.0,0.0,0.0,0.0,0.0,0.0,0.0,0.0,0.0,0.0,0.0,0.0,0.0,0.0,0.0,0.0,0.0,0.0,0.0,0.0,0.0,0.0,0.0,0.0,0.0,0.0,0.0,0.0,0.0,0.0,0.0,0.0,0.0,0.0,0.0,0.0,0.0,0.0,0.0,0.0,0.0,0.0,0.0,0.0,0.0,0.0,0.0,0.0,0.0,0.0,0.0,0.0,0.0,0.0,0.0,0.0,0.0,0.0,0.0,0.0,0.0,0.0,0.0,0.0,0.0,0.0,0.0,0.0,0.0,0.0,0.0,0.0,0.0,0.0,0.0,0.0,0.0,0.0,0.0,0.0,0.0,0.0,0.0,0.0,0.0,0.0,0.0,0.0,0.0,0.0,0.0,0.0,0.0,0.0,1.3025,1.3676,1.5532,1.6269,1.5682,1.4688,1.3769,0.0,0.0,0.0,0.0,0.0,0.0,0.0,0.0,0.0,0.0,0.0,0.0,0.0,0.0,0.0,0.0,0.0,0.0,0.0,0.0,0.0,0.0,0.0,0.0,0.0,0.0,0.0,0.0,0.0,0.0,0.0,0.0,0.0,0.0,0.0,0.0,0.0,0.0,0.0,0.0,0.0,0.0,0.0,0.0,0.0,0.0,0.0,0.0,0.0,0.0,0.0,0.0,0.0,0.0,0.0,0.0,0.0,0.0,0.0,0.0,0.0,0.0,0.0,0.0,0.0,0.0,0.0,0.0,0.0,0.0,0.0,0.0,0.0,0.0,0.0,0.0,0.0,0.0,0.0,0.0,0.0,0.0,0.0,0.0,0.0,0.0,0.0,0.0,0.0,0.0,0.0,0.0,0.0,0.0,0.0,0.0,0.0,0.0,0.0,0.0,0.0,0.0,0.0,0.0,0.0,0.0,0.0,0.0,1.4032,1.476,1.654,1.7446,1.7378,1.6417,1.4786,0.0,0.0,0.0,0.0,0.0,0.0,0.0,0.0,0.0,0.0,0.0,0.0,0.0,0.0,0.0,0.0,0.0,0.0,0.0,0.0,0.0,0.0,0.0,0.0,0.0,0.0,0.0,0.0,0.0,0.0,0.0,0.0,0.0,0.0,0.0,0.0,0.0,0.0,0.0,0.0,0.0,0.0,0.0,0.0,0.0,0.0,0.0,0.0,0.0,0.0,0.0,0.0,0.0,0.0,0.0,0.0,0.0,0.0,0.0,0.0,0.0,0.0,0.0,0.0,0.0,0.0,0.0,0.0,0.0,0.0,0.0,0.0,0.0,0.0,0.0,0.0,0.0,0.0,0.0,0.0,0.0,0.0,0.0,0.0,0.0,0.0,0.0,0.0,0.0,0.0,0.0,0.0,0.0,0.0,0.0,0.0,0.0,0.0,0.0,0.0,0.0,0.0,0.0,0.0,0.0,0.0,0.0,0.0,1.4489,1.5034,1.6946,1.7781,1.7401,1.6423,1.5292,0.0,0.0,0.0,0.0,0.0,0.0,0.0,0.0,0.0,0.0,0.0,0.0,0.0,0.0,0.0,0.0,0.0,0.0,0.0,0.0,0.0,0.0,0.0,0.0,0.0,0.0,0.0,0.0,0.0,0.0,0.0,0.0,0.0,0.0,0.0,0.0,0.0,0.0,0.0,0.0,0.0,0.0,0.0,0.0,0.0,0.0,0.0,0.0,1.2079,0.0,0.0,0.0,0.0,0.0,0.0,0.0,0.0,0.0,0.0,0.0,0.0,0.0,0.0,0.0,0.0,0.0,0.0,0.0,0.0,0.0,0.0,0.0,0.0,0.0,0.0,0.0,0.0,0.0,0.0,0.0,0.0,0.0,0.0,0.0,0.0,0.0,0.0,0.0,0.0,0.0,0.0,0.0,0.0,0.0,0.0,0.0,0.0,0.0,0.0,0.0,0.0,0.0,0.0,0.0,0.0,0.0,0.0,0.0,1.5079,1.5808,1.7302,1.7967,1.7719,1.6742,1.5677,0.0,0.0,0.0,0.0,0.0,0.0,0.0,0.0,0.0,0.0,0.0,0.0,0.0,0.0,0.0,0.0,0.0,0.0,0.0,0.0,0.0,0.0,0.0,0.0,0.0,0.0,0.0,0.0,0.0,0.0,0.0,0.0,0.0,0.0,0.0,0.0,0.0,0.0,0.0,0.0,0.0,0.0,0.0,0.0,0.0,0.0,0.0,0.0,0.0,0.0,0.0,0.0,0.0,0.0,0.0,0.0,0.0,0.0,0.0,0.0,0.0,0.0,0.0,0.0,0.0,0.0,0.0,0.0,0.0,0.0,0.0,0.0,0.0,0.0,0.0,0.0,0.0,0.0,0.0,0.0,0.0,0.0,0.0,0.0,0.0,0.0,0.0,0.0,0.0,0.0,0.0,0.0,0.0,0.0,0.0,0.0,0.0,0.0,0.0,0.0,0.0,0.0,0.0,0.0,0.0,0.0,0.0,1.4455,1.5595,1.6575,1.7571,1.8098,1.8098,1.7126,1.5997,1.4739,0.0,0.0,0.0,0.0,0.0,0.0,0.0,0.0,0.0,0.0,0.0,0.0,0.0,0.0,0.0,0.0,0.0,0.0,0.0,0.0,0.0,0.0,0.0,0.0,0.0,0.0,0.0,0.0,0.0,0.0,0.0,0.0,0.0,0.0,0.0,0.0,0.0,0.0,1.0372,1.1033,0.0,0.0,0.0,0.0,0.0,0.0,0.0,0.0,1.2147,0.0,0.0,0.0,0.0,0.0,0.0,0.0,0.0,0.0,0.0,0.0,0.0,0.0,0.0,0.0,0.0,0.0,0.0,0.0,0.0,0.0,0.0,0.0,0.0,0.0,0.0,0.0,0.0,0.0,0.0,0.0,0.0,0.0,0.0,0.0,0.0,0.0,0.0,0.0,0.0,0.0,0.0,0.0,0.0,0.0,0.0,0.0,0.0,0.0,0.0,0.0,0.0,0.0,0.0,0.0,0.0,1.415,1.477,1.5595,1.6598,1.7571,1.8098,1.8082,1.7113,1.6332,1.5817,0.0,0.0,0.0,0.0,0.0,0.0,0.0,0.0,0.0,0.0,0.0,0.0,0.0,0.0,0.0,0.0,0.0,0.0,0.0,0.0,0.0,0.0,0.0,0.0,0.0,0.0,0.0,0.0,0.0,0.0,0.0,0.0,0.0,0.0,0.0,0.0,0.0,0.0,0.0,1.1146,1.1651,0.0,0.0,0.0,0.0,0.0,0.0,0.0,0.0,1.2226,0.0,0.0,0.0,0.0,0.0,0.0,0.0,0.0,0.0,0.0,0.0,0.0,0.0,0.0,0.0,0.0,0.0,0.0,0.0,0.0,0.0,0.0,0.0,0.0,0.0,0.0,0.0,0.0,0.0,0.0,0.0,0.0,0.0,0.0,0.0,0.0,0.0,0.0,0.0,0.0,0.0,0.0,0.0,0.0,0.0,0.0,0.0,0.0,0.0,0.0,0.0,0.0,0.0,0.0,0.0,1.4345,1.5137,1.6003,1.6991,1.7715,1.799,1.7719,1.7075,1.6383,0.0,0.0,0.0,0.0,0.0,0.0,0.0,0.0,0.0,0.0,0.0,0.0,0.0,0.0,0.0,0.0,0.0,0.0,0.0,0.0,0.0,0.0,0.0,0.0,0.0,0.0,0.0,0.0,0.0,0.0,0.0,0.0,0.0,0.0,0.0,0.0,0.0,0.0,0.0,0.0,1.1517,1.1877,1.2067,0.0,0.0,0.0,0.0,0.0,0.0,1.2214,1.2239,0.0,0.0,0.0,0.0,0.0,0.0,0.0,0.0,0.0,0.0,0.0,0.0,0.0,0.0,0.0,0.0,0.0,0.0,0.0,0.0,0.0,0.0,0.0,0.0,0.0,0.0,0.0,0.0,0.0,0.0,0.0,0.0,0.0,0.0,0.0,0.0,0.0,0.0,0.0,0.0,0.0,0.0,0.0,0.0,0.0,0.0,0.0,0.0,0.0,0.0,0.0,0.0,0.0,0.0,0.0,1.4534,1.5424,1.64,1.7355,1.785,1.7866,1.7394,1.6987,1.635,0.0,0.0,0.0,0.0,0.0,0.0,0.0,0.0,0.0,0.0,0.0,0.0,0.0,0.0,0.0,0.0,0.0,0.0,0.0,0.0,0.0,0.0,0.0,0.0,0.0,0.0,0.0,0.0,0.0,0.0,0.0,0.0,0.0,0.0,0.0,0.0,0.0,0.0,0.0,0.0,0.0,1.2318,1.2239,1.2557,0.0,0.0,0.0,0.0,1.2459,1.2655,0.0,0.0,0.0,0.0,0.0,0.0,0.0,0.0,0.0,0.0,0.0,0.0,0.0,0.0,0.0,0.0,0.0,0.0,0.0,0.0,0.0,0.0,0.0,0.0,0.0,0.0,0.0,0.0,0.0,0.0,0.0,0.0,0.0,0.0,0.0,0.0,0.0,0.0,0.0,0.0,0.0,0.0,0.0,0.0,0.0,0.0,0.0,0.0,0.0,0.0,0.0,0.0,0.0,0.0,0.0,0.0,1.4965,1.5584,1.6371,1.7355,1.7859,1.7866,1.7401,1.6899,1.6469,0.0,0.0,0.0,0.0,0.0,0.0,0.0,0.0,0.0,0.0,0.0,0.0,0.0,0.0,0.0,0.0,0.0,0.0,0.0,0.0,0.0,0.0,0.0,0.0,0.0,0.0,0.0,0.0,0.0,0.0,0.0,0.0,0.0,0.0,0.0,0.0,0.0,0.0,0.0,0.0,0.0,1.302,1.2686,1.2974,1.3204,0.0,0.0,1.3702,1.3695,1.4587,0.0,0.0,0.0,0.0,0.0,0.0,0.0,0.0,0.0,0.0,0.0,0.0,0.0,0.0,0.0,0.0,0.0,0.0,0.0,0.0,0.0,0.0,0.0,0.0,0.0,0.0,0.0,0.0,0.0,0.0,0.0,0.0,0.0,0.0,0.0,0.0,0.0,0.0,0.0,0.0,0.0,0.0,0.0,0.0,0.0,0.0,0.0,0.0,0.0,0.0,0.0,0.0,0.0,0.0,0.0,1.4375,1.5533,1.6043,1.6807,1.7751,1.799,1.7745,1.6974,1.687,1.6511,0.0,0.0,0.0,0.0,0.0,0.0,0.0,0.0,0.0,0.0,0.0,0.0,0.0,0.0,0.0,0.0,0.0,0.0,0.0,0.0,0.0,0.0,0.0,0.0,0.0,0.0,0.0,0.0,0.0,0.0,0.0,0.0,0.0,0.0,0.0,0.0,0.0,0.0,0.0,0.0,0.0,0.0,1.3089,1.3585,0.0,0.0,0.0,1.4594,1.4587,0.0,0.0,0.0,0.0,0.0,0.0,0.0,0.0,0.0,0.0,0.0,0.0,0.0,0.0,0.0,0.0,0.0,0.0,0.0,0.0,0.0,0.0,0.0,0.0,0.0,0.0,0.0,0.0,0.0,0.0,0.0,0.0,0.0,0.0,0.0,0.0,0.0,0.0,0.0,0.0,0.0,0.0,0.0,0.0,0.0,0.0,0.0,0.0,0.0,0.0,0.0,0.0,0.0,0.0,0.0,0.0,0.0,1.6044,1.6433,1.7073,1.8045,1.8145,1.7683,1.6694,1.6878,0.0,0.0,0.0,0.0,0.0,0.0,0.0,0.0,0.0,0.0,0.0,0.0,0.0,0.0,0.0,0.0,0.0,0.0,0.0,0.0,0.0,0.0,0.0,0.0,0.0,0.0,0.0,1.3227,0.0,0.0,0.0,0.0,0.0,0.0,0.0,0.0,0.0,0.0,0.0,0.0,0.0,0.0,1.4165,1.3662,1.4385,1.4839,0.0,0.0,1.5507,1.5431,1.5753,1.5773,0.0,0.0,0.0,0.0,0.0,0.0,0.0,0.0,0.0,0.0,0.0,0.0,0.0,0.0,0.0,0.0,0.0,0.0,0.0,0.0,0.0,0.0,0.0,0.0,0.0,0.0,0.0,0.0,0.0,0.0,0.0,0.0,0.0,0.0,0.0,0.0,0.0,0.0,0.0,0.0,0.0,0.0,0.0,0.0,0.0,0.0,0.0,0.0,0.0,0.0,0.0,0.0,0.0,0.0,0.0,1.6513,1.6582,1.7103,1.8052,1.8298,1.7878,1.6836,1.6945,1.6592,0.0,0.0,0.0,0.0,0.0,0.0,0.0,0.0,0.0,0.0,0.0,0.0,0.0,0.0,0.0,0.0,0.0,0.0,0.0,0.0,0.0,0.0,0.0,0.0,0.0,0.0,0.0,0.0,0.0,0.0,0.0,0.0,0.0,0.0,0.0,0.0,0.0,0.0,0.0,0.0,0.0,1.5294,1.4535,1.5417,1.6158,0.0,0.0,1.6661,1.626,1.7477,1.7688,1.546,0.0,0.0,0.0,0.0,0.0,0.0,0.0,0.0,0.0,0.0,0.0,0.0,0.0,0.0,0.0,0.0,0.0,0.0,0.0,0.0,0.0,0.0,0.0,0.0,0.0,0.0,0.0,0.0,0.0,0.0,0.0,0.0,0.0,0.0,0.0,0.0,0.0,0.0,0.0,0.0,0.0,0.0,0.0,0.0,0.0,0.0,0.0,0.0,0.0,0.0,0.0,0.0,0.0,1.5578,1.6569,1.6605,1.708,1.8052,1.8173,1.7891,1.7189,1.7054,1.6697,0.0,0.0,0.0,0.0,0.0,0.0,0.0,0.0,0.0,0.0,0.0,0.0,0.0,0.0,0.0,0.0,0.0,0.0,0.0,0.0,0.0,0.0,0.0,0.0,0.0,0.0,0.0,0.0,1.2912,1.2406,1.1814,0.0,0.0,0.0,0.0,0.0,0.0,0.0,0.0,0.0,0.0,1.568,1.5609,1.6213,0.0,0.0,1.7018,1.722,1.7065,1.734,1.7193,1.602,1.5488,0.0,0.0,0.0,0.0,0.0,0.0,0.0,0.0,0.0,0.0,0.0,0.0,0.0,0.0,0.0,0.0,0.0,0.0,0.0,0.0,0.0,0.0,0.0,0.0,0.0,0.0,0.0,0.0,0.0,0.0,0.0,0.0,0.0,0.0,0.0,0.0,0.0,0.0,0.0,0.0,0.0,0.0,0.0,0.0,0.0,0.0,0.0,0.0,0.0,0.0,0.0,0.0,1.5756,1.6605,1.6797,1.7318,1.817,1.8261,1.8083,1.7593,1.7266,1.6882,0.0,0.0,0.0,0.0,0.0,0.0,0.0,0.0,0.0,0.0,0.0,0.0,0.0,0.0,0.0,0.0,0.0,0.0,0.0,0.0,0.0,0.0,0.0,0.0,0.0,0.0,0.0,0.0,1.3091,1.2505,1.196,0.0,0.0,0.0,0.0,0.0,0.0,0.0,0.0,0.0,0.0,1.5853,1.6241,1.6753,1.7092,1.7073,1.7321,1.7495,1.7495,1.7451,1.7191,1.6495,0.0,0.0,0.0,0.0,0.0,0.0,0.0,0.0,0.0,0.0,0.0,0.0,0.0,0.0,0.0,0.0,0.0,0.0,0.0,0.0,0.0,0.0,0.0,0.0,0.0,0.0,0.0,0.0,0.0,0.0,0.0,0.0,0.0,0.0,0.0,0.0,0.0,0.0,0.0,0.0,0.0,0.0,0.0,0.0,0.0,0.0,0.0,0.0,0.0,0.0,0.0,0.0,0.0,1.6106,1.6598,1.7263,1.7821,1.8383,1.8662,1.8539,1.8004,1.7601,1.7135,1.6607,0.0,0.0,0.0,0.0,0.0,0.0,0.0,0.0,0.0,0.0,0.0,0.0,0.0,0.0,0.0,0.0,0.0,0.0,0.0,0.0,0.0,0.0,0.0,0.0,0.0,0.0,1.3638,1.2742,1.2338,0.0,0.0,0.0,0.0,0.0,0.0,0.0,0.0,0.0,0.0,1.52,1.5845,1.6241,1.699,1.7513,1.7477,1.7495,1.7486,1.7486,1.8055,1.8115,0.0,0.0,0.0,0.0,0.0,0.0,0.0,0.0,0.0,0.0,0.0,0.0,0.0,0.0,0.0,0.0,0.0,0.0,0.0,0.0,0.0,0.0,0.0,0.0,0.0,0.0,0.0,0.0,0.0,0.0,0.0,0.0,0.0,0.0,0.0,0.0,0.0,0.0,0.0,0.0,1.5659,1.5939,0.0,0.0,0.0,0.0,0.0,0.0,0.0,0.0,0.0,0.0,0.0,0.0,1.643,1.724,1.7567,1.7989,1.8521,1.8625,1.8601,1.8399,1.8012,1.7415,1.6637,0.0,0.0,0.0,0.0,0.0,0.0,0.0,0.0,0.0,0.0,0.0,0.0,0.0,0.0,0.0,0.0,0.0,0.0,0.0,0.0,0.0,0.0,0.0,0.0,0.0,1.4501,0.0,0.0,0.0,0.0,0.0,0.0,0.0,0.0,0.0,0.0,0.0,1.389,1.4418,1.5425,1.6156,1.6295,1.739,1.8058,0.0,0.0,0.0,0.0,0.0,0.0,0.0,0.0,0.0,0.0,0.0,0.0,0.0,0.0,1.8074,1.6354,1.5815,1.5514,1.5167,0.0,0.0,0.0,0.0,0.0,0.0,0.0,0.0,0.0,0.0,0.0,0.0,0.0,0.0,0.0,0.0,1.4704,0.0,0.0,0.0,0.0,0.0,0.0,0.0,0.0,1.5928,1.6089,1.6231,1.6524,1.652,0.0,1.6194,1.5998,0.0,0.0,0.0,0.0,0.0,0.0,0.0,0.0,1.6635,1.7368,1.7857,1.8259,1.8649,1.8695,1.8722,1.8729,1.8319,1.7613,1.6643,1.6715,1.6477,0.0,0.0,0.0,0.0,0.0,0.0,0.0,0.0,0.0,0.0,0.0,0.0,0.0,0.0,0.0,0.0,0.0,0.0,0.0,0.0,0.0,0.0,0.0,1.5194,0.0,0.0,0.0,0.0,0.0,0.0,0.0,0.0,0.0,1.4767,1.4613,1.4642,1.5072,1.5923,1.6566,1.6855,0.0,0.0,0.0,0.0,0.0,0.0,0.0,1.8242,1.85,1.9099,1.974,2.0262,2.15,2.2356,2.2109,0.0,0.0,1.804,1.7067,1.6492,1.6034,1.6197,1.6568,1.7099,1.7325,1.7486,0.0,0.0,0.0,0.0,0.0,0.0,0.0,0.0,1.5319,1.5647,0.0,0.0,0.0,0.0,0.0,0.0,0.0,0.0,0.0,0.0,1.6356,1.6531,1.6858,1.6904,1.6823,1.6692,1.6744,1.6773,1.6805,1.5735,0.0,0.0,0.0,0.0,0.0,0.0,1.6771,1.7113,1.8094,1.8686,1.8816,1.8926,1.8995,1.9015,1.8489,1.773,1.6756,1.7122,1.6878,1.5926,1.6334,0.0,0.0,0.0,0.0,0.0,0.0,0.0,0.0,0.0,0.0,0.0,0.0,0.0,0.0,0.0,0.0,0.0,0.0,0.0,0.0,1.619,0.0,0.0,0.0,0.0,0.0,0.0,0.0,0.0,0.0,0.0,1.5517,1.5543,1.5805,1.6293,0.0,0.0,0.0,0.0,1.854,1.9634,1.9822,2.0014,2.0422,2.1061,2.1542,2.1577,0.0,0.0,2.323,2.3811,2.4091,2.3377,2.3755,2.3412,2.0762,1.8944,1.7773,1.7701,1.8367,1.8956,1.8986,1.9255,1.9521,1.6355,0.0,0.0,0.0,0.0,1.6373,1.6601,1.6937,1.6799,1.6661,1.6565,1.6283,0.0,0.0,0.0,0.0,0.0,0.0,1.6456,1.696,1.7241,1.7625,1.8099,1.8468,1.8676,1.8736,1.8639,1.8471,1.8193,1.7467,1.6718,1.5951,0.0,0.0,0.0,0.0,1.7442,1.8258,1.8666,1.8913,1.8946,1.8986,1.9197,1.9552,1.8682,1.8243,1.8325,1.8081,1.7631,1.6984,1.7713,0.0,0.0,0.0,0.0,0.0,0.0,0.0,0.0,0.0,0.0,0.0,0.0,0.0,0.0,0.0,0.0,0.0,0.0,0.0,1.6605,1.6479,1.6641,0.0,0.0,0.0,0.0,0.0,0.0,0.0,0.0,0.0,1.7487,1.6887,1.6713,0.0,0.0,1.8017,1.8811,1.9876,2.049,2.0346,0.0,0.0,0.0,2.1259,2.1618,2.2275,2.3669,2.4878,2.5454,2.5968,2.6269,2.6005,2.5408,2.4623,2.3892,2.2301,2.0979,2.0528,2.0811,2.1038,2.0736,2.0938,2.1014,1.7736,1.6733,1.6511,1.6619,1.6937,1.7147,1.7417,1.7712,1.7718,1.7646,1.752,1.7105,1.6871,1.6733,1.65,0.0,0.0,0.0,1.7517,1.8247,1.8466,1.8865,1.9314,1.9632,1.9812,1.9833,1.9745,1.9615,1.9418,1.8841,1.8288,1.7649,0.0,0.0,1.7383,1.7628,1.8226,1.9166,1.9446,1.9487,1.9332,1.9321,1.9474,1.9766,1.9383,1.9208,1.9307,1.8999,1.8588,1.8078,1.8361,1.8301,0.0,0.0,0.0,0.0,0.0,0.0,0.0,0.0,0.0,0.0,0.0,1.649,0.0,0.0,0.0,0.0,1.708,1.7188,1.7188,1.7378,0.0,0.0,0.0,0.0,0.0,0.0,0.0,1.8465,1.8476,1.8639,1.9049,1.8722,1.8485,1.8707,1.9156,1.9664,2.0151,0.0,2.1612,2.1646,2.2196,2.2648,2.2711,2.2905,2.3306,2.409,2.5173,2.6131,2.6661,2.7014,2.7167,2.7093,2.6539,2.5988,2.5988,2.5084,2.3838,2.2537,2.2813,2.3187,2.2885,2.3166,2.3266,1.9308,1.8337,1.785,1.7616,1.7598,1.8103,1.8343,1.8391,1.8398,1.8658,1.8988,1.8031,1.7838,1.8229,1.773,0.0,0.0,1.8274,1.8861,1.9854,1.9861,2.0073,2.0492,2.0509,2.0484,2.0383,2.0399,2.0442,2.0509,1.9994,1.9818,1.9872,1.8215,1.7659,1.8122,1.851,1.9082,1.9854,2.0215,2.0229,1.9889,1.9812,1.9824,1.9946,2.0384,2.0386,1.9967,1.9941,1.9678,1.9161,1.8686,1.8398,1.8321,0.0,0.0,0.0,0.0,0.0,0.0,0.0,0.0,0.0,0.0,0.0,0.0,0.0,0.0,0.0,1.7964,0.0,1.8212,1.8683,0.0,0.0,0.0,1.9745,1.9799,1.9239,1.8977,1.9305,0.0,0.0,0.0,0.0,2.0798,2.0163,2.1008,2.169,2.1787,2.1844,2.2208,2.3248,2.3834,2.4352,2.4703,2.526,2.5763,2.6204,2.6876,2.7124,2.7167,2.7167,2.719,2.719,2.719,2.7147,2.718,2.7012,2.6465,2.4089,2.4544,2.5316,2.5133,2.5334,2.5492,2.0259,2.0019,1.9899,1.9377,1.8669,1.9198,1.9648,2.0026,2.0016,1.9885,1.9597,1.9349,1.9071,1.8789,1.8669,1.8903,1.9387,1.9421,1.9775,2.0387,2.0404,2.0685,2.116,2.1575,2.1759,2.1745,2.2136,2.2128,2.1751,2.1239,2.099,2.0956,2.0193,1.9621,1.9387,1.9467,1.9816,2.0398,2.0502,2.0491,2.0411,2.0009,2.0182,2.0995,2.0754,2.073,2.1015,2.1006,2.0777,2.0253,2.0357,2.0105,1.9441,1.8931,0.0,0.0,0.0,0.0,0.0,0.0,0.0,0.0,0.0,1.7597,1.7227,0.0,1.8102,0.0,1.9011,1.9325,1.9333,1.9432,0.0,0.0,1.9838,1.9983,2.0741,2.0335,2.019,2.0672,2.0769,2.1034,2.1645,2.204,2.2349,2.252,2.2338,2.2528,2.3401,2.3591,2.3667,2.3957,2.4131,2.4531,2.5394,2.627,2.6749,2.6549,2.692,2.719,2.719,2.719,2.719,2.719,2.719,2.719,2.719,2.719,2.7029,2.6422,2.6539,2.6504,2.5811,2.5743,2.5642,2.1885,2.17,2.1933,2.1532,2.0769,2.0593,2.0682,2.0956,2.0947,2.0786,2.0504,2.0249,2.0136,2.0064,2.0064,2.0511,2.121,2.1226,2.1523,2.2005,2.2005,2.2189,2.2478,2.2759,2.2919,2.2919,2.3216,2.3208,2.2911,2.2614,2.2462,2.2485,2.2463,2.2312,2.1992,2.1001,2.0913,2.1685,2.1723,2.1746,2.1749,2.1504,2.1631,2.2209,2.2184,2.2318,2.2591,2.2309,2.201,2.1728,2.1417,2.102,2.0527,2.0006,1.972,0.0,0.0,0.0,0.0,0.0,0.0,0.0,0.0,0.0,0.0,0.0,1.8935,0.0,0.0,0.0,1.9715,1.9891,2.0197,2.0695,2.071,2.0994,2.1799,2.1591,2.1484,2.1638,2.1768,2.2075,2.2564,2.2854,2.3095,2.3384,2.3274,2.3442,2.4018,2.4209,2.4209,2.4209,2.4384,2.4866,2.5876,2.6529,2.6897,2.6841,2.7037,2.719,2.719,2.719,2.719,2.719,2.719,2.719,2.719,2.719,2.719,2.719,2.719,2.6993,2.6528,2.6424,2.6259,2.3545,2.3151,2.3601,2.3512,2.3031,2.2109,2.1668,2.1596,2.1524,2.15,2.1468,2.1084,2.118,2.1589,2.1668,2.2205,2.3079,2.3111,2.3352,2.3794,2.3794,2.3794,2.3794,2.3858,2.3858,2.3794,2.3957,2.3966,2.3802,2.3868,2.3926,2.3951,2.4523,2.4861,2.4849,2.296,2.2428,2.3318,2.3425,2.3426,2.341,2.344,2.346,2.3538,2.389,2.4097,2.4097,2.3538,2.3222,2.3179,2.2202,2.159,2.1518,2.1016,2.0682,0.0,2.0442,0.0,0.0,0.0,0.0,0.0,0.0,0.0,0.0,1.983,1.9907,1.9983,2.0052,2.0082,2.0098,2.0458,2.0879,2.1331,2.1775,2.2194,2.2633,2.271,2.261,2.2351,2.2549,2.284,2.3268,2.3379,2.3398,2.3554,2.3866,2.4109,2.4209,2.4209,2.4209,2.4209,2.4636,2.5187,2.5896,2.6296,2.6562,2.682,2.6981,2.7096,2.7096,2.7144,2.719,2.719,2.719,2.719,2.719,2.719,2.719,2.719,2.719,2.718,2.7149,2.7118,2.719,2.3737,2.3641,2.377,2.3737,2.3641,2.3424,2.3079,2.267,2.2229,2.2061,2.2093,2.2405,2.2598,2.2718,2.316,2.3457,2.3649,2.3649,2.373,2.3794,2.3794,2.3794,2.3842,2.4194,2.4178,2.3875,2.478,2.4756,2.381,2.4353,2.4603,2.4603,2.474,2.5108,0.0,0.0,0.0,0.0,2.4723,2.4713,2.4646,2.4259,2.4235,2.4653,2.4287,0.0,2.4091,2.3972,2.3909,2.3897,2.3275,0.0,0.0,0.0,0.0,0.0,0.0,0.0,0.0,0.0,0.0,0.0,2.1603,2.097,1.9845,2.0435,2.1063,2.1452,2.1881,2.2136,2.2127,2.2219,2.2311,2.2403,2.2495,2.2578,2.2679,2.271,2.2771,2.2992,2.284,2.3046,2.3819,2.3686,2.3568,2.393,2.414,2.4209,2.4209,2.4209,2.4209,2.4223,2.4696,2.4948,2.4678,2.5545,2.5935,2.5637,2.6116,2.6585,2.6677,2.6968,2.7188,2.72,2.719,2.719,2.719,2.719,2.719,2.719,2.719,2.719,2.719,2.719,2.719,2.4539,0.0,2.4539,2.4547,0.0,0.0,2.4001,2.3721,2.3192,2.3007,2.3015,2.3288,2.3545,2.3752,2.4025,2.4298,2.4539,2.4547,2.4539,2.4547,2.4539,2.4735,2.5083,2.4935,2.4952,2.5124,2.5694,2.5685,2.5142,2.5793,2.5957,2.5611,2.6257,2.6647,2.6705,2.7373,2.7112,2.5898,2.5637,2.5619,2.5867,2.5315,2.516,2.5436,0.0,0.0,0.0,0.0,0.0,0.0,0.0,0.0,0.0,0.0,0.0,2.14,2.1281,2.1468,2.1978,2.1831,2.2012,2.2756,2.2586,2.2072,2.1247,2.1653,2.2035,2.2263,2.2564,2.271,2.271,2.271,2.2802,2.3012,2.3043,2.3135,2.3374,2.3437,2.3506,2.3635,2.3543,2.3658,2.414,2.3985,2.3907,2.4154,2.4209,2.4209,2.4209,2.4209,2.4209,2.4209,2.4453,2.465,2.4613,2.4788,2.5348,2.5316,2.5739,2.6171,2.6467,2.669,2.6932,2.7142,2.719,2.719,2.719,2.719,2.719,2.719,2.719,2.719,2.719,2.719,2.719,2.5616,2.5494,2.5494,2.5406,2.5267,2.4825,2.4711,2.4774,0.0,0.0,0.0,2.389,2.4121,2.4489,2.4609,2.4874,2.5282,2.5306,2.537,2.5485,2.5344,2.5695,2.6346,2.5774,2.5818,2.638,2.6534,2.6594,2.6628,2.7195,2.728,2.6909,2.7932,2.8309,2.7966,2.8911,2.8733,2.7342,2.6816,2.6722,2.7109,2.6561,2.6252,2.6258,2.6005,2.5921,2.5893,2.5415,2.5169,2.5142,2.4258,2.3649,2.3405,2.3025,2.2743,2.2485,2.2328,2.248,2.3047,2.2828,2.2942,2.3548,2.3412,2.3172,2.2848,2.2831,2.2854,2.2946,2.2946,2.2986,2.2963,2.2978,2.3121,2.3499,2.3545,2.3714,2.4131,2.4209,2.4163,2.4209,2.4163,2.4209,2.4186,2.4186,2.4218,2.4246,2.4236,2.4209,2.4209,2.4209,2.4209,2.4209,2.4278,2.4361,2.4613,2.4489,2.459,2.5339,2.5614,2.589,2.6355,2.6572,2.6782,2.7131,2.719,2.719,2.719,2.719,2.719,2.719,2.719,2.719,2.719,2.719,2.719,2.6807,2.6234,2.6242,2.5878,2.53,2.5219,2.5554,2.5983,2.4464,2.3802,2.3818,2.425,2.4441,2.4537,2.4978,2.5219,2.5291,2.5306,2.5643,0.0,2.559,2.5687,2.638,2.6294,2.6294,2.644,2.7053,2.7338,2.7354,2.748,2.7736,2.8168,2.8403,2.876,2.9219,2.8991,2.896,2.9212,2.9113,2.885,2.8444,2.784,2.7538,2.7495,2.6448,2.5921,2.5893,2.583,2.578,2.5767,2.6085,2.5754,2.4655,2.499,2.4778,2.3692,2.3536,2.3526,2.3434,2.3375,2.3529,2.3915,2.4308,2.4192,2.3374,2.3284,2.3494,2.3925,2.3957,2.4003,2.3994,2.3957,2.3966,2.4062,2.4085,2.4131,2.4223,2.4232,2.4264,2.4296,2.4209,2.4241,2.4292,2.425,2.4291,2.4381,2.4327,2.4218,2.4227,2.4209,2.4209,2.4209,2.4209,2.4232,2.4315,2.4292,2.4522,2.4916,2.543,2.5876,2.6411,2.6759,2.7004,2.7167,2.719,2.719,2.719,2.719,2.719,2.719,2.719,2.719,2.719,2.719,2.719,2.7287,2.6985,2.7011,2.6824,2.6484,2.6484,2.6475,2.6398,2.5988,2.5561,2.5224,2.5445,2.5303,2.4963,2.5186,2.5529,2.5903,2.5767,2.5973,2.6371,2.6349,2.6569,2.6935,2.688,2.7266,2.8034,2.8289,2.8494,2.8632,2.931,2.9288,2.857,2.8492,2.8863,2.9542,2.9336,2.932,2.9553,2.897,2.8648,2.8704,2.8114,2.7636,2.7291,2.6666,2.6392,2.6385,2.6378,2.6554,2.6905,2.6849,2.6506,2.5932,2.5488,2.4973,2.4369,2.4,2.3864,2.4027,2.4314,2.4508,2.4598,2.4832,2.4737,2.4218,2.4061,2.4055,2.4195,2.43,2.4318,2.4218,2.43,2.4327,2.4209,2.43,2.4424,2.4558,2.4692,2.484,2.5089,2.4918,2.4784,2.4945,2.4703,2.449,2.4499,2.4418,2.4363,2.4372,2.4454,2.4427,2.4255,2.4209,2.4209,2.4232,2.4715,2.4926,2.4948,2.5352,2.5886,2.6388,2.6723,2.6899,2.7131,2.719,2.719,2.719,2.719,2.719,2.719,2.719,2.719,2.719,2.719,2.719,2.786,2.7728,2.7728,2.7645,2.7547,2.7836,2.7604,2.7224,2.8021,2.7981,2.731,2.6875,2.6309,2.5769,2.591,2.6291,2.6737,2.6818,2.7,2.7309,2.7553,2.7824,2.8119,2.798,2.8542,2.9575,2.9553,2.963,3.0033,3.0838,3.0579,2.9257,2.9033,2.9298,3.0014,2.9721,2.9721,2.9918,2.8837,2.8423,2.8865,2.8311,2.7741,2.7277,2.708,2.7024,2.7031,2.7024,2.7256,2.7734,2.7425,2.7165,2.6953,2.612,2.5561,2.5385,2.4764,2.4476,2.4675,2.5042,2.5262,2.5156,2.5111,2.5019,2.4837,2.4769,2.4597,2.4373,2.4515,2.4557,2.4387,2.4645,2.4737,2.4475,2.4687,2.4946,2.5149,2.527,2.5554,2.5918,2.5704,2.5504,2.5502,2.5243,2.4897,2.4654,2.4598,2.4625,2.4607,2.472,2.4634,2.4427,2.4264,2.4278,2.4361,2.5063,2.5486,2.5256,2.5624,2.6116,2.6549,2.6677,2.6772,2.7131,2.719,2.719,2.719,2.719,2.719,2.719,2.719,2.719,2.719,2.719,2.719,2.901,2.8443,2.8457,2.8038,2.7691,2.8818,2.925,2.9304,3.0552,3.0734,2.9797,2.8194,2.731,2.7144,2.7755,2.8029,2.8035,2.8676,2.9311,2.9785,2.9372,2.9468,3.0008,3.0082,3.0177,3.0358,3.032,3.0656,3.1204,3.0794,3.0758,3.1106,3.0635,3.0615,3.1106,3.0178,3.015,3.1283,3.0094,2.9468,2.9476,2.8922,2.8592,2.8521,2.7973,2.7692,2.77,2.772,2.772,2.7825,2.8272,2.8213,2.7678,2.7888,2.787,2.723,2.6528,2.5903,2.5307,2.5258,2.533,2.5264,2.5245,2.5085,2.4902,2.5257,2.5213,2.4768,2.489,2.4978,2.4588,2.5289,2.5601,2.5164,2.5512,2.587,2.5907,2.5917,2.6007,2.6235,2.6277,2.6052,2.5797,2.5642,2.5337,2.491,2.498,2.4986,2.4796,2.4814,2.4823,2.4697,2.4463,2.4425,2.4742,2.5293,2.576,2.6142,2.6319,2.6536,2.6825,2.7034,2.7165,2.7109,2.719,2.719,2.719,2.719,2.7221,2.721,2.721,2.7221,2.72,2.7241,2.7251,2.9975,2.9726,3.0103,2.9652,2.8947,3.0088,3.0218,2.9645,3.0918,3.1313,3.0987,3.019,2.9351,2.8461,2.8786,2.9092,2.946,2.9688,2.9998,3.039,3.0393,3.0419,3.0416,3.0742,3.1113,3.1557,3.146,3.1617,3.1844,3.1372,3.138,3.1887,3.1415,3.1246,3.1395,3.0592,3.0395,3.0873,3.0395,3.0134,3.005,2.9545,2.9062,2.8725,2.8451,2.8339,2.8331,2.8331,2.8479,2.8837,2.9103,2.9084,2.882,2.8607,2.8193,2.7512,2.6389,2.5763,2.5784,2.5781,2.5916,2.621,2.6203,2.613,2.607,2.6252,2.6187,2.5868,2.5948,2.5855,2.5527,2.5972,2.6183,2.5839,2.6093,2.6433,2.6642,2.6752,2.6963,2.7325,2.7135,2.6946,2.6785,2.6443,2.5989,2.553,2.547,2.5417,2.5069,2.5046,2.5049,2.5001,2.488,2.4857,2.4939,2.5457,2.5835,2.5932,2.6082,2.6365,2.6784,2.6832,2.6851,2.7129,2.7208,2.7231,2.719,2.729,2.7361,2.73,2.7341,2.7412,2.7577,2.7608,2.7608,3.0359,3.062,3.1218,3.0834,2.9921,3.1188,3.1102,3.03,3.1439,3.1977,3.1977,3.2005,3.1423,3.0466,3.0235,3.0427,3.0844,3.094,3.1056,3.1245,3.1586,3.1576,3.1244,3.1575,3.2067,3.2552,3.2473,3.2499,3.2572,3.223,3.223,3.2502,3.2033,3.1808,3.1893,3.121,3.0957,3.125,3.0969,3.0865,3.0921,3.0423,2.9841,2.9251,2.9195,2.9118,2.895,2.8934,2.9139,2.956,2.9609,2.9609,2.9585,2.8895,2.8175,2.7428,2.6407,2.5963,2.6304,2.618,2.6325,2.6825,2.6869,2.6822,2.6846,2.6951,2.6947,2.6833,2.6995,2.6913,2.631,2.6689,2.6836,2.6474,2.6756,2.7136,2.737,2.7549,2.7771,2.8174,2.7897,2.7674,2.7613,2.7081,2.6476,2.6199,2.6094,2.6023,2.5687,2.5706,2.5694,2.5436,2.546,2.5377,2.5127,2.5524,2.5806,2.5878,2.6027,2.6291,2.6667,2.6708,2.6877,2.7387,2.7379,2.7404,2.7476,2.7554,2.7595,2.7496,2.7503,2.7655,2.78,2.7871,2.7881,2.9966,3.0592,3.1246,3.1165,3.0592,3.1839,3.1988,3.1399,3.2645,3.3196,3.314,3.314,3.3152,3.2917,3.2326,3.2147,3.2136,3.2682,3.2975,3.2998,3.3071,3.3154,3.3171,3.3199,3.3208,3.3159,3.3136,3.3164,3.3224,3.3224,3.3224,3.3196,3.2671,3.2671,3.2887,3.2005,3.2033,3.269,3.1949,3.1696,3.2117,3.1696,3.1106,3.0492,3.0387,3.0078,2.9637,2.9553,2.9581,2.9609,2.9637,2.9637,2.9554,2.8926,2.8151,2.739,2.7156,2.7002,2.6836,2.6436,2.6421,2.684,2.6885,2.6667,2.6847,2.721,2.7395,2.738,2.7928,2.7823,2.6957,2.7466,2.7785,2.7426,2.7755,2.8032,2.8138,2.809,2.8241,2.8419,2.8401,2.8184,2.7781,2.7219,2.698,2.6869,2.684,2.6783,2.6644,2.672,2.6513,2.6171,2.6009,2.5909,2.5599,2.5616,2.5923,2.6071,2.6113,2.6442,2.6817,2.7136,2.7418,2.7643,2.77,2.777,2.783,2.7871,2.7871,2.783,2.783,2.7931,2.8032,2.7941,2.7962,3.1162,3.1772,3.2381,3.2306,3.1828,3.2615,3.2643,3.2174,3.2915,3.3308,3.3308,3.3308,3.3308,3.3299,3.3083,3.2943,3.2899,3.3202,3.3308,3.3308,3.3308,3.3308,3.3308,3.3308,3.3308,3.3308,3.3308,3.3308,3.3355,3.3692,3.3664,3.3412,3.3496,3.3505,3.3196,3.2511,3.2306,3.2651,3.2266,3.2202,3.2418,3.2558,3.2362,3.1716,3.0921,3.0415,3.0191,2.979,2.9609,2.9609,2.9958,3.0155,3.0079,2.9402,2.8837,2.8452,2.7553,2.7125,2.7349,2.7238,2.7349,2.7854,2.7867,2.777,2.7852,2.7996,2.8091,2.8159,2.8309,2.8223,2.8039,2.8187,2.8267,2.8025,2.8199,2.8379,2.8379,2.8379,2.8409,2.8478,2.8512,2.8392,2.8224,2.8022,2.7806,2.7493,2.7402,2.7258,2.6994,2.6898,2.6868,2.6619,2.6316,2.6048,2.5929,2.5624,2.5633,2.5951,2.6158,2.6538,2.6903,2.7123,2.7352,2.781,2.7962,2.7962,2.7972,2.7972,2.8012,2.8193,2.8193,2.8153,2.8239,2.8203,2.8233,3.1864,3.2446,3.3055,3.2943,3.2502,3.3027,3.2943,3.2502,3.3027,3.3308,3.3308,3.3308,3.3308,3.3308,3.3308,3.3308,3.3308,3.3308,3.3308,3.3308,3.3308,3.3308,3.3327,3.3496,3.3468,3.3355,3.3496,3.3673,3.3935,3.4328,3.43,3.3963,3.4356,3.4216,3.3617,3.3168,3.2915,3.2755,3.2699,3.2699,3.2755,3.3083,3.3111,3.2615,3.1643,3.1005,3.0828,3.0423,3.0227,3.0263,3.0628,3.0613,3.0112,2.9687,2.9207,2.8689,2.7745,2.7378,2.782,2.7806,2.7935,2.845,2.8488,2.8512,2.8512,2.8512,2.8512,2.8512,2.8512,2.8512,2.8512,2.8488,2.8429,2.8329,2.8419,2.8512,2.8512,2.8512,2.8512,2.8512,2.8512,2.8488,2.8512,2.8488,2.832,2.7984,2.795,2.7772,2.7508,2.7411,2.7325,2.7181,2.6892,2.6517,2.627,2.6044,2.5871,2.6113,2.6253,2.6608,2.71,2.7255,2.7467,2.7917,2.8082,2.8082,2.8082,2.8082,2.8223,2.8429,2.8399,2.8319,2.8399,2.8483,2.8453,3.1893,3.2446,3.3055,3.2999,3.2586,3.3083,3.2943,3.2643,3.3055,3.3308,3.3308,3.3308,3.3327,3.3327,3.3327,3.3299,3.3383,3.3327,3.3308,3.3308,3.3308,3.3308,3.3327,3.387,3.3917,3.3533,3.3973,3.4525,3.5029,3.5142,3.5142,3.5133,3.5124,3.4861,3.4235,3.4085,3.3833,3.3485,3.3308,3.328,3.3308,3.3317,3.328,3.3168,3.2634,3.2081,3.1564,3.1451,3.1339,3.1367,3.1451,3.0782,2.9908,2.987,2.9397,2.8304,2.7806,2.7984,2.833,2.8022,2.8022,2.8392,2.8512,2.8512,2.8512,2.8512,2.8512,2.8512,2.8512,2.8512,2.8512,2.8512,2.8512,2.8512,2.8488,2.8512,2.8512,2.8512,2.8512,2.8512,2.8512,2.8512,2.8512,2.8512,2.844,2.8416,2.8392,2.8368,2.8248,2.8214,2.8176,2.7854,2.7469,2.7085,2.6781,2.6493,2.6397,2.6373,2.6426,2.6668,2.7416,2.7779,2.7913,2.8237,2.8323,2.8323,2.8313,2.8313,2.8353,2.8478,2.8459,2.8449,2.8468,2.8512,2.8512,3.2615,3.2474,3.3027,3.3224,3.3055,3.3224,3.3168,3.3027,3.3252,3.3308,3.3308,3.3308,3.3524,3.3748,3.3505,3.3524,3.3852,3.3524,3.3308,3.3299,3.3308,3.3308,3.344,3.3954,3.4356,3.458,3.4777,3.4983,3.5255,3.5648,3.5648,3.5339,3.563,3.5498,3.4899,3.4459,3.4263,3.4487,3.3738,3.3496,3.3824,3.3496,3.3308,3.328,3.3111,3.2915,3.2736,3.1949,3.1507,3.1536,3.1893,3.2073,3.1867,3.1116,3.042,2.9875,2.8821,2.8296,2.844,2.8368,2.8296,2.8474,2.8512,2.8512,2.8512,2.8512,2.8512,2.8512,2.8512,2.8512,2.8512,2.8512,2.8512,2.8512,2.8512,2.8512,2.8512,2.8512,2.8512,2.8512,2.8512,2.8512,2.8512,2.8512,2.8512,2.8512,2.8512,2.8512,2.8512,2.8512,2.8488,2.8272,2.795,2.7628,2.7277,2.7061,2.6988,2.6926,2.6926,2.707,2.7767,2.8152,2.8306,2.8402,2.8464,2.8512,2.8512,2.8512,2.8512,2.8512,2.8478,2.8478,2.8512,2.8512,2.8512,3.2671,3.2783,3.314,3.3308,3.3308,3.3308,3.3308,3.3308,3.3308,3.3308,3.3308,3.3308,3.3496,3.3777,3.3692,3.372,3.3852,3.3907,3.3851,3.3608,3.3355,3.3412,3.3692,3.4263,3.504,3.5695,3.5648,3.5639,3.5883,3.622,3.6258,3.6033,3.6258,3.6145,3.5583,3.5133,3.5077,3.5077,3.4411,3.4197,3.4365,3.3954,3.3636,3.3608,3.3412,3.3308,3.3252,3.2567,3.2174,3.223,3.2558,3.2669,3.2408,3.1406,3.0651,2.9925,2.9155,2.8488,2.8512,2.8488,2.8512,2.8512,2.8512,2.8512,2.8512,2.8512,2.8512,2.8512,2.8512,2.8512,2.8512,2.8512,2.8512,2.8512,2.8512,2.8512,2.8512,2.8512,2.8512,2.8512,2.8512,2.8512,2.8512,2.8512,2.8512,2.8512,2.8512,2.8512,2.8512,2.8512,2.8512,2.8464,2.8272,2.7974,2.7724,2.7604,2.758,2.7565,2.7551,2.7767,2.819,2.8344,2.8464,2.845,2.8512,2.8512,2.8512,2.8512,2.8512,2.8512,2.8512,2.8512,2.8512,2.8512,2.8512,3.2286,3.3252,3.3308,3.3308,3.3308,3.3308,3.3308,3.3308,3.3308,3.3308,3.3308,3.3308,3.3355,3.3496,3.3936,3.3936,3.3701,3.4552,3.4749,3.4235,3.387,3.3879,3.4459,3.5002,3.577,3.6642,3.6351,3.6436,3.6773,3.6848,3.7016,3.6988,3.6904,3.6763,3.6295,3.6155,3.5761,3.5489,3.5217,3.5114,3.5189,3.4618,3.4254,3.4226,3.372,3.3412,3.3412,3.3224,3.3196,3.3252,3.3187,3.2657,3.1461,3.0998,3.0244,2.9116,2.8647,2.8512,2.8512,2.8512,2.8512,2.8512,2.8512,2.8512,2.8512,2.8512,2.8512,2.8512,2.8512,2.8512,2.8512,2.8512,2.8512,2.8512,2.8512,2.8512,2.8512,2.8512,2.8512,2.8512,2.8512,2.8512,2.8512,2.8512,2.8512,2.8512,2.8512,2.8512,2.8512,2.8512,2.8512,2.8464,2.8402,2.8272,2.7998,2.8046,2.8022,2.7974,2.7984,2.8152,2.8358,2.844,2.8512,2.8512,2.8512,2.8512,2.8512,2.8512,2.8512,2.8512,2.8512,2.8512,2.8512,2.8512,2.8512,3.2999,3.3308,3.3308,3.3308,3.3308,3.3308,3.3308,3.3308,3.3308,3.3308,3.3308,3.3308,3.3552,3.3964,3.4133,3.4356,3.4693,3.5048,3.517,3.4955,3.4786,3.5067,3.5499,3.5761,3.6248,3.6885,3.6857,3.6857,3.6988,3.7073,3.7259,3.7625,3.7269,3.7185,3.7279,3.6558,3.6333,3.6333,3.5573,3.548,3.5714,3.5264,3.4955,3.4899,3.43,3.3973,3.3908,3.3524,3.3308,3.3308,3.3299,3.3167,3.2471,3.1506,3.0604,2.9996,2.9077,2.8512,2.8512,2.8512,2.8512,2.8512,2.8512,2.8512,2.8512,2.8512,2.8512,2.8512,2.8512,2.8512,2.8512,2.8512,2.8512,2.8512,2.8512,2.8512,2.8512,2.8512,2.8512,2.8512,2.8512,2.8512,2.8512,2.8512,2.8512,2.8512,2.8512,2.8512,2.8512,2.8512,2.8512,2.8512,2.8464,2.8416,2.8392,2.844,2.8416,2.8358,2.8344,2.8344,2.8464,2.8488,2.8512,2.8512,2.8512,2.8512,2.8512,2.8512,2.8512,2.8512,2.8512,2.8512,2.8512,2.8512,2.8512,3.3055,3.3308,3.3308,3.3308,3.3308,3.3308,3.3308,3.3308,3.3308,3.3308,3.3308,3.3308,3.3636,3.4189,3.4497,3.4833,3.5217,3.5723,3.5977,3.6023,3.6248,3.6277,3.622,3.6305,3.6661,3.6998,3.7279,3.7372,3.7466,3.7645,3.786,3.7878,3.7841,3.7719,3.741,3.7223,3.6848,3.6848,3.6277,3.6145,3.6408,3.5892,3.5611,3.547,3.4965,3.4525,3.4198,3.3608,3.3308,3.3308,3.3282,3.3016,3.2291,3.1461,3.0604,2.9992,2.8969,2.8512,2.8512,2.8512,2.8512,2.8512,2.8512,2.8512,2.8512,2.8512,2.8512,2.8512,2.8512,2.8512,2.8512,2.8512,2.8512,2.8512,2.8512,2.8512,2.8512,2.8512,2.8512,2.8512,2.8512,2.8512,2.8512,2.8512,2.8512,2.8512,2.8512,2.8512,2.8512,2.8512,2.8512,2.8512,2.8512,2.8464,2.844,2.8488,2.8512,2.8464,2.8464,2.8488,2.8512,2.8512,2.8512,2.8512,2.8512,2.8512,2.8512,2.8512,2.8512,2.8512,2.8512,2.8512,2.8512,2.8512,2.8512,3.2803,3.3308,3.3308,3.3308,3.3308,3.3308,3.3308,3.3308,3.3308,3.3355,3.344,3.3412,3.3833,3.4329,3.5002,3.5311,3.5395,3.6361,3.6876,3.7157,3.7438,3.741,3.6576,3.6745,3.6988,3.7213,3.7691,3.7803,3.7888,3.8404,3.8376,3.8074,3.8404,3.8133,3.7616,3.7691,3.7635,3.7269,3.7261,3.711,3.7044,3.6642,3.6361,3.6108,3.5611,3.4974,3.444,3.3898,3.357,3.3412,3.3275,3.2489,3.1277,3.1026,3.0203,2.9116,2.8717,2.8512,2.8512,2.8512,2.8512,2.8512,2.8512,2.8512,2.8512,2.8512,2.8512,2.8512,2.8512,2.8512,2.8512,2.8512,2.8512,2.8512,2.8512,2.8512,2.8512,2.8512,2.8512,2.8512,2.8512,2.8512,2.8512,2.8512,2.8512,2.8512,2.8512,2.8512,2.8512,2.8512,2.8512,2.8512,2.8512,2.8512,2.8488,2.8488,2.8512,2.8488,2.8488,2.8512,2.8512,2.8512,2.8512,2.8512,2.8512,2.8512,2.8512,2.8512,2.8512,2.8512,2.8512,2.8512,2.8512,2.8512,2.8512,3.3168,3.3308,3.3308,3.3308,3.3308,3.3308,3.3299,3.3336,3.3299,3.3608,3.3917,3.4029,3.4384,3.5011,3.5573,3.5892,3.6005,3.6745,3.7203,3.7803,3.8386,3.8235,3.7522,3.7269,3.7259,3.7569,3.7793,3.7906,3.799,3.8131,3.8046,3.799,3.8197,3.8,3.7793,3.8151,3.8347,3.7916,3.8133,3.801,3.7625,3.7438,3.7167,3.6745,3.6164,3.5611,3.5105,3.488,3.4552,3.3912,3.3016,3.2246,3.159,3.066,2.9868,2.935,2.8766,2.8512,2.8512,2.8512,2.8512,2.8512,2.8512,2.8512,2.8512,2.8512,2.8512,2.8512,2.8512,2.8512,2.8512,2.8512,2.8512,2.8512,2.8512,2.8512,2.8512,2.8512,2.8512,2.8512,2.8512,2.8512,2.8512,2.8512,2.8512,2.8512,2.8512,2.8512,2.8512,2.8512,2.8512,2.8512,2.8512,2.8512,2.8512,2.8512,2.8512,2.8512,2.8512,2.8512,2.8512,2.8512,2.8512,2.8512,2.8512,2.8512,2.8512,2.8512,2.8512,2.8512,2.8512,2.8561,2.8585,2.8561,2.8763,3.3308,3.3308,3.3308,3.3308,3.3308,3.3308,3.3468,3.3692,3.372,3.4066,3.4562,3.4674,3.503,3.562,3.5977,3.622,3.6717,3.7476,3.8056,3.8488,3.8966,3.8759,3.8112,3.7841,3.7869,3.7691,3.8151,3.8197,3.8102,3.8383,3.8562,3.8046,3.8422,3.8253,3.7681,3.8151,3.801,3.7578,3.7785,3.7813,3.7522,3.7456,3.7382,3.696,3.6436,3.592,3.563,3.5302,3.5011,3.4426,3.3312,3.2168,3.1579,3.0717,2.9967,2.9155,2.8816,2.8522,2.8512,2.8512,2.8512,2.8512,2.8512,2.8512,2.8512,2.8512,2.8512,2.8512,2.8512,2.8512,2.8512,2.8512,2.8512,2.8512,2.8512,2.8512,2.8512,2.8512,2.8512,2.8512,2.8512,2.8512,2.8512,2.8512,2.8512,2.8512,2.8512,2.8512,2.8512,2.8512,2.8512,2.8512,2.8512,2.8512,2.8512,2.8512,2.8512,2.8512,2.8512,2.8512,2.8512,2.8512,2.8512,2.8512,2.8512,2.8512,2.8512,2.8512,2.8512,2.8512,2.8536,2.8633,2.8777,2.8955,2.9244,3.3308,3.3308,3.3308,3.3308,3.3299,3.3412,3.3748,3.4161,3.4338,3.4702,3.5245,3.5339,3.5667,3.6145,3.6248,3.6576,3.7195,3.8179,3.8713,3.86,3.936,3.8928,3.8299,3.8422,3.8263,3.7307,3.8217,3.846,3.8478,3.8861,3.8506,3.8074,3.8843,3.8394,3.7448,3.7701,3.7926,3.7438,3.7588,3.7494,3.7325,3.7259,3.7213,3.6904,3.6595,3.6333,3.6164,3.5864,3.547,3.5283,3.4053,3.2664,3.1481,3.0552,3.0149,2.8717,2.8647,2.8522,2.8512,2.8512,2.8512,2.8512,2.8512,2.8512,2.8512,2.8512,2.8512,2.8512,2.8512,2.8512,2.8512,2.8512,2.8512,2.8512,2.8512,2.8512,2.8512,2.8512,2.8512,2.8512,2.8512,2.8512,2.8512,2.8512,2.8512,2.8512,2.8512,2.8512,2.8512,2.8512,2.8512,2.8512,2.8512,2.8512,2.8512,2.8512,2.8512,2.8512,2.8512,2.8512,2.8512,2.8512,2.8512,2.8512,2.8512,2.8512,2.8512,2.8512,2.8512,2.8512,2.8691,2.8883,2.9124,2.935,2.9711,3.3308,3.3308,3.3308,3.3308,3.3392,3.3833,3.4113,3.4282,3.4824,3.5377,3.5911,3.5977,3.6277,3.6689,3.6829,3.6942,3.7335,3.8291,3.8657,3.8488,3.9163,3.904,3.8299,3.8871,3.8562,3.7757,3.8189,3.8667,3.846,3.8394,3.8028,3.7484,3.7934,3.7737,3.7588,3.801,3.8151,3.7663,3.7926,3.7954,3.7625,3.754,3.7382,3.7044,3.682,3.6763,3.6801,3.6717,3.6464,3.5986,3.5554,3.4238,3.2442,3.0433,2.9485,2.9214,2.88,2.8512,2.8512,2.8512,2.8512,2.8512,2.8512,2.8512,2.8512,2.8512,2.8512,2.8512,2.8512,2.8512,2.8512,2.8512,2.8512,2.8512,2.8512,2.8512,2.8512,2.8512,2.8512,2.8512,2.8512,2.8512,2.8512,2.8512,2.8512,2.8512,2.8512,2.8512,2.8512,2.8512,2.8512,2.8512,2.8512,2.8512,2.8512,2.8512,2.8512,2.8512,2.8512,2.8512,2.8512,2.8512,2.8512,2.8633,2.8633,2.8633,2.8585,2.8609,2.8715,2.8883,2.9038,2.9206,2.9543,2.988,3.0227,3.3308,3.3308,3.3308,3.3496,3.3805,3.4076,3.4609,3.518,3.5536,3.5995,3.6408,3.6576,3.6679,3.6932,3.6988,3.7157,3.7663,3.8404,3.8695,3.8657,3.8994,3.8882,3.8028,3.8899,3.8769,3.8245,3.8329,3.8235,3.7954,3.7944,3.7522,3.7307,3.7607,3.7578,3.7223,3.7504,3.7747,3.7578,3.7757,3.7813,3.7466,3.7456,3.7231,3.7091,3.6988,3.6988,3.6988,3.6988,3.6848,3.6604,3.6454,3.538,3.3637,3.1769,3.0142,2.9558,2.892,2.8522,2.8512,2.8512,2.8512,2.8512,2.8512,2.8512,2.8512,2.8512,2.8512,2.8512,2.8512,2.8512,2.8512,2.8512,2.8512,2.8512,2.8512,2.8512,2.8512,2.8512,2.8512,2.8512,2.8512,2.8512,2.8512,2.8512,2.8512,2.8512,2.8512,2.8512,2.8512,2.8512,2.8512,2.8512,2.8512,2.8512,2.8512,2.8512,2.8512,2.8512,2.8512,2.8512,2.8585,2.8609,2.8777,2.8955,2.8897,2.8993,2.9041,2.9196,2.9254,2.9302,2.9543,2.9807,3.0096,3.0419,3.0732,3.3308,3.3299,3.344,3.3777,3.4189,3.4497,3.5143,3.5995,3.6211,3.653,3.6932,3.6988,3.696,3.7044,3.7147,3.74,3.7811,3.8365,3.8516,3.8386,3.8572,3.8347,3.8056,3.8281,3.847,3.8066,3.7898,3.7607,3.7729,3.7607,3.7392,3.7223,3.7522,3.7522,3.7139,3.7129,3.6988,3.6988,3.6988,3.6988,3.6988,3.6988,3.6988,3.6988,3.6988,3.6988,3.6988,3.6988,3.6988,3.6844,3.6574,3.5908,3.4583,3.2976,3.1309,2.987,2.9124,2.8883,2.8835,2.8705,2.8753,2.8763,2.8551,2.8512,2.8512,2.8512,2.8512,2.8512,2.8512,2.8512,2.8512,2.8512,2.8512,2.8512,2.8512,2.8512,2.8512,2.8512,2.8512,2.8512,2.8512,2.8512,2.8512,2.8512,2.8512,2.8512,2.8512,2.8512,2.8512,2.8512,2.8512,2.8512,2.8512,2.8512,2.8512,2.8512,2.8512,2.8512,2.8561,2.8585,2.8657,2.8753,2.9017,2.9364,2.9711,2.9807,2.9797,2.9725,2.9701,2.9807,3.0086,3.0313,3.0516,3.0829,3.1176,3.3308,3.3336,3.3889,3.4133,3.4385,3.5358,3.5902,3.6164,3.6632,3.6914,3.6988,3.7044,3.7073,3.7213,3.7625,3.755,3.7494,3.7775,3.7869,3.7588,3.7813,3.7757,3.7307,3.7747,3.7898,3.7729,3.742,3.7795,3.8048,3.7588,3.7195,3.7139,3.7139,3.7082,3.7016,3.6988,3.6988,3.6988,3.6988,3.6988,3.6988,3.6988,3.6988,3.6988,3.6988,3.6988,3.6988,3.6988,3.6988,3.6891,3.6016,3.5177,3.411,3.2051,3.112,3.0572,3.0264,2.9904,2.9759,2.9436,2.921,2.9124,2.8863,2.8585,2.8561,2.8536,2.8502,2.8512,2.8536,2.8633,2.8681,2.8585,2.8536,2.8609,2.8739,2.8681,2.8633,2.8931,2.8883,2.8667,2.8739,2.8585,2.8502,2.8512,2.8512,2.8512,2.8512,2.8512,2.8512,2.8512,2.8512,2.8512,2.8512,2.8512,2.8609,2.8609,2.8681,2.8633,2.8787,2.8859,2.9017,2.9234,2.9508,2.9855,3.0251,3.0468,3.0385,3.0278,3.0182,3.0337,3.0636,3.0756,3.0829,3.12,3.1562,3.3805,3.3833,3.4104,3.4628,3.5293,3.5883,3.6305,3.6632,3.6876,3.6988,3.7082,3.7382,3.7701,3.801,3.8376,3.8112,3.7691,3.7775,3.7578,3.711,3.7241,3.7279,3.7139,3.7335,3.741,3.7888,3.7775,3.8028,3.8263,3.7795,3.7139,3.741,3.7147,3.7016,3.7073,3.7016,3.6988,3.6988,3.6988,3.6988,3.6988,3.6988,3.6988,3.6988,3.6988,3.6988,3.6988,3.6988,3.6988,3.692,3.6381,3.5876,3.5089,3.3908,3.3014,3.2073,3.1889,3.1227,3.0249,2.9935,2.9783,2.9735,2.9484,2.934,2.8993,2.8705,2.8705,2.8955,2.8955,2.9076,2.9292,2.9388,2.9422,2.9398,2.9244,2.9292,2.9282,2.9364,2.9436,2.9172,2.8931,2.8825,2.8729,2.8705,2.8667,2.8512,2.8512,2.8512,2.8512,2.8512,2.8512,2.8512,2.8512,2.8512,2.8657,2.8777,2.9027,2.91,2.9471,2.9543,2.9653,2.9845,3.0072,3.0289,3.0612,3.078,3.0866,3.0949,3.0925,3.1056,3.12,3.1273,3.131,3.143,3.173,3.4179,3.4469,3.46,3.5236,3.6117,3.6239,3.6586,3.696,3.6988,3.7073,3.7335,3.7691,3.8169,3.846,3.8358,3.7954,3.7635,3.7691,3.741,3.7129,3.6988,3.7016,3.7016,3.7101,3.7588,3.8629,3.7747,3.8094,3.8263,3.7785,3.7223,3.7653,3.741,3.7269,3.7297,3.7476,3.756,3.7297,3.7101,3.7016,3.6988,3.6988,3.6988,3.6988,3.6988,3.6988,3.6988,3.6988,3.6988,3.6959,3.6636,3.6093,3.5528,3.4546,3.3704,3.285,3.2489,3.1825,3.0928,3.0478,3.0337,3.0275,3.0107,2.9818,2.9532,2.91,2.9003,2.9495,2.9495,2.9711,2.9952,3.0013,2.9941,2.9917,2.9965,3.0062,3.0086,2.9989,2.9965,2.9845,2.9581,2.9244,2.9124,2.9027,2.8859,2.8585,2.8512,2.8512,2.8512,2.8512,2.8512,2.8512,2.8512,2.8585,2.8873,2.9051,2.9292,2.9591,2.9962,3.0203,3.024,3.0361,3.054,3.078,3.1056,3.1176,3.1286,3.1513,3.1693,3.1573,3.1489,3.1706,3.1815,3.1912,3.196,3.4056,3.5198,3.5695,3.5967,3.6155,3.6717,3.6932,3.6988,3.6988,3.7325,3.7739,3.7944,3.8028,3.7954,3.7711,3.7363,3.7139,3.7073,3.7044,3.7016,3.6988,3.6988,3.6988,3.7101,3.7325,3.785,3.7719,3.8094,3.8432,3.801,3.7354,3.7101,3.7578,3.7775,3.7944,3.8151,3.8179,3.7831,3.741,3.7129,3.7082,3.7044,3.6988,3.6988,3.6988,3.6988,3.6988,3.6988,3.7063,3.7081,3.6546,3.6273,3.5912,3.4651,3.3748,3.3246,3.253,3.1973,3.1395,3.1032,3.0866,3.0708,3.0468,3.0179,3.0048,2.9989,3.0,3.001,3.0048,3.0131,3.0168,3.0134,3.0361,3.0409,3.0505,3.0516,3.0492,3.0385,3.0361,3.0412,3.0195,2.9855,2.9581,2.9484,2.9148,2.8883,2.8729,2.8729,2.8536,2.8512,2.8512,2.8512,2.8512,2.8705,2.9148,2.9412,2.9725,3.0048,3.0371,3.0612,3.077,3.0925,3.1032,3.1262,3.1513,3.1634,3.1778,3.2019,3.2091,3.1813,3.1802,3.2152,3.243,3.2574,3.255,3.4365,3.5198,3.5442,3.5977,3.6651,3.6914,3.6988,3.6988,3.6988,3.7404,3.8065,3.837,3.8577,3.843,3.7889,3.755,3.7494,3.7139,3.7044,3.6988,3.6988,3.6988,3.6988,3.7063,3.7288,3.7821,3.7982,3.8273,3.8723,3.8488,3.846,3.8347,3.8084,3.7888,3.8112,3.86,3.8685,3.8488,3.7944,3.7569,3.7494,3.7157,3.6988,3.6988,3.6988,3.6988,3.6988,3.6988,3.7203,3.7265,3.6803,3.673,3.6516,3.5077,3.4147,3.3649,3.2853,3.2185,3.1759,3.1489,3.1417,3.1286,3.0925,3.0588,3.0553,3.0337,3.0371,3.0443,3.0577,3.066,3.1056,3.1104,3.1152,3.1104,3.1032,3.0984,3.0936,3.0853,3.078,3.0818,3.0649,3.0395,3.0168,2.9976,2.9556,2.9172,2.9051,2.8921,2.8777,2.8633,2.8681,2.8715,2.8739,2.8955,2.9412,2.9797,3.0182,3.0505,3.0839,3.1093,3.1358,3.1393,3.1524,3.1778,3.2008,3.2152,3.2321,3.2537,3.2513,3.2297,3.2465,3.2802,3.3031,3.3188,3.3164,3.4328,3.4889,3.4889,3.5733,3.6904,3.6801,3.682,3.6988,3.6988,3.7432,3.8115,3.8515,3.8722,3.8583,3.7995,3.7569,3.7438,3.7195,3.7044,3.6988,3.6988,3.6988,3.6988,3.7063,3.7316,3.7878,3.8281,3.86,3.8892,3.9331,3.9078,3.8769,3.8646,3.859,3.8646,3.8871,3.9173,3.9022,3.8572,3.8046,3.7888,3.754,3.7288,3.7231,3.7119,3.7354,3.7466,3.756,3.7484,3.7625,3.7519,3.7398,3.6898,3.6099,3.4919,3.4121,3.3292,3.2373,3.1926,3.1717,3.1717,3.1562,3.1393,3.1165,3.1021,3.0791,3.0925,3.108,3.1141,3.1297,3.1717,3.1597,3.1548,3.1417,3.1441,3.1428,3.1452,3.1393,3.1297,3.1249,3.108,3.0936,3.0636,3.0419,3.012,2.9663,2.9278,2.9244,2.9316,2.9172,2.9017,2.9051,2.9086,2.9374,2.9701,3.011,3.0532,3.1117,3.143,3.1743,3.1936,3.1971,3.2115,3.2441,3.2622,3.2707,3.2875,3.3103,3.2996,3.2803,3.3092,3.3428,3.3368,3.3501,3.3657,3.3692,3.4189,3.4254,3.5311,3.6801,3.6351,3.6464,3.696,3.7092,3.7393,3.7893,3.8161,3.8141,3.7901,3.7383,3.7185,3.7147,3.7044,3.6988,3.6988,3.6988,3.6988,3.6988,3.7073,3.7288,3.7775,3.8197,3.8562,3.8966,3.9331,3.9163,3.9275,3.9472,3.9613,3.9725,3.9753,3.9781,3.9697,3.9173,3.8629,3.8215,3.8018,3.7906,3.7793,3.755,3.7785,3.8207,3.8094,3.8028,3.8,3.8,3.7775,3.73,3.5702,3.4721,3.4476,3.2866,3.199,3.1754,3.1765,3.1886,3.1874,3.1778,3.1586,3.1669,3.1621,3.1465,3.1489,3.1562,3.1621,3.1717,3.1765,3.1778,3.185,3.1874,3.1923,3.1947,3.1874,3.1778,3.1537,3.1548,3.15,3.1152,3.0829,3.0612,3.0203,2.9649,2.9543,2.9711,2.9653,2.9436,2.9436,2.9495,2.9842,3.0168,3.0436,3.0892,3.1515,3.1936,3.2165,3.2454,3.2622,3.2815,3.3103,3.3212,3.3248,3.3441,3.3657,3.3609,3.3573,3.3766,3.3958,3.3849,3.3837,3.4042,3.3636,3.4189,3.4217,3.5049,3.6277,3.6192,3.6436,3.7008,3.7509,3.7691,3.7634,3.7968,3.7901,3.7502,3.7215,3.6988,3.6988,3.6988,3.6988,3.6988,3.6988,3.6988,3.7016,3.7101,3.7344,3.7888,3.8281,3.8882,3.9528,3.9753,4.0024,4.0192,4.0164,4.0361,4.0389,4.0389,4.0389,4.0305,3.9837,3.936,3.9135,3.8759,3.8534,3.8534,3.8301,3.847,3.8976,3.8685,3.8572,3.8544,3.8544,3.8373,3.7828,3.6328,3.5466,3.5083,3.3831,3.2824,3.2754,3.2778,3.2789,3.2585,3.2176,3.1984,3.2152,3.1874,3.1754,3.1765,3.1826,3.1826,3.1717,3.208,3.2237,3.2382,3.243,3.2478,3.2478,3.2333,3.2165,3.1802,3.1669,3.1634,3.1393,3.1224,3.1021,3.0912,3.0419,3.0034,3.0072,3.0,2.9855,2.988,2.9976,3.0323,3.0649,3.1072,3.1288,3.1708,3.2104,3.2382,3.2683,3.314,3.3284,3.3428,3.3621,3.3801,3.3946,3.4102,3.4318,3.4426,3.4402,3.4402,3.4342,3.4378,3.4511,3.3568,3.3969,3.3907,3.4683,3.5798,3.6033,3.6436,3.7055,3.7606,3.7618,3.7381,3.7693,3.7645,3.7276,3.7066,3.6988,3.6988,3.6988,3.6988,3.6988,3.6988,3.6988,3.7044,3.7213,3.7569,3.8084,3.8797,3.9472,3.9781,4.0389,4.0586,4.0614,4.0716,4.0631,4.0659,4.0659,4.0659,4.0558,4.022,3.9978,3.9686,3.9405,3.9201,3.9145,3.9061,3.9089,3.9342,3.937,3.9201,3.9201,3.9181,3.8924,3.8182,3.7187,3.619,3.5609,3.4819,3.3978,3.4032,3.3329,3.3414,3.3753,3.2815,3.2406,3.2515,3.2393,3.22,3.2152,3.2128,3.22,3.2297,3.2694,3.2755,3.2899,3.2947,3.2996,3.2923,3.2779,3.2587,3.22,3.1947,3.185,3.1623,3.1575,3.143,3.1334,3.1224,3.0853,3.0492,3.0313,3.024,3.0264,3.0419,3.0732,3.1238,3.1804,3.1949,3.1984,3.2382,3.284,3.3248,3.3717,3.3753,3.3813,3.4066,3.427,3.4366,3.4511,3.4607,3.4679,3.4679,3.4727,3.4799,3.4799,3.4799,3.3422,3.3544,3.3396,3.4201,3.5391,3.5902,3.6436,3.7037,3.723,3.7201,3.7065,3.7287,3.7297,3.7104,3.7027,3.7037,3.7066,3.7066,3.7047,3.7027,3.7084,3.7055,3.7269,3.7569,3.7962,3.8412,3.904,3.9725,3.9922,4.0407,4.0688,4.0716,4.0716,4.0716,4.0716,4.0716,4.0716,4.0659,4.0614,4.0333,4.0013,3.9883,3.9837,3.9725,3.9556,3.9753,3.9996,4.0069,3.9827,3.9743,3.9771,3.8904,3.7894,3.6731,3.6384,3.5929,3.5296,3.515,3.5079,3.422,3.398,3.4306,3.3837,3.32,3.2887,3.2935,3.2766,3.2718,3.2754,3.2983,3.3224,3.326,3.3308,3.338,3.3428,3.3404,3.3356,3.3212,3.2996,3.2742,3.2478,3.2237,3.1828,3.1684,3.1876,3.19,3.1804,3.1575,3.1155,3.0625,3.0577,3.0588,3.0804,3.1141,3.1684,3.2333,3.255,3.2526,3.3152,3.3634,3.4018,3.4186,3.427,3.4378,3.4607,3.4727,3.4655,3.4655,3.4727,3.4799,3.4895,3.4871,3.4871,3.4799,3.4799,3.3334,3.3415,3.3954,3.4331,3.4682,3.5677,3.6522,3.7173,3.726,3.7269,3.7211,3.726,3.7308,3.7385,3.7269,3.7289,3.7347,3.7385,3.7298,3.7269,3.7162,3.7386,3.7618,3.7878,3.8422,3.9068,3.963,4.0052,4.0389,4.0688,4.0688,4.0716,4.0716,4.0716,4.0716,4.0716,4.0716,4.0716,4.0716,4.0575,4.0435,4.0361,4.0361,4.0249,4.0164,4.0389,4.0463,4.0519,4.0238,3.9911,4.0249,3.9843,3.9229,3.858,3.8156,3.7265,3.6492,3.5884,3.5855,3.5013,3.4462,3.4667,3.4426,3.415,3.3742,3.3441,3.3308,3.3272,3.3344,3.3525,3.3645,3.3705,3.3777,3.3849,3.3922,3.3994,3.3922,3.3753,3.3537,3.3176,3.2923,3.2646,3.2213,3.2178,3.2346,3.2442,3.2394,3.2189,3.1828,3.1299,3.0962,3.0973,3.0973,3.1251,3.2093,3.2791,3.2983,3.3188,3.3742,3.4102,3.4162,3.4354,3.4655,3.4799,3.4799,3.4799,3.4775,3.4847,3.4967,3.5003,3.5051,3.5015,3.4967,3.5039,3.4967,3.3361,3.3487,3.3852,3.4116,3.4483,3.5432,3.6269,3.6882,3.7089,3.723,3.7279,3.7279,3.7395,3.7548,3.7481,3.7442,3.7442,3.7395,3.7308,3.7191,3.722,3.748,3.7767,3.8225,3.8871,3.9556,4.0052,4.0389,4.0659,4.0716,4.0716,4.0716,4.0716,4.0716,4.0716,4.0716,4.0716,4.0716,4.0716,4.0716,4.0716,4.0716,4.0716,4.0716,4.0716,4.0716,4.0716,4.0716,4.0473,4.0192,4.0603,4.0283,3.9711,3.9229,3.8704,3.7831,3.7304,3.6605,3.6222,3.5318,3.4933,3.4799,3.4799,3.4607,3.439,3.4114,3.3874,3.3705,3.3825,3.3946,3.4042,3.4138,3.4222,3.4342,3.4462,3.4595,3.4487,3.4366,3.403,3.3621,3.3321,3.3079,3.2887,3.2851,3.2744,3.2659,3.2766,3.2839,3.2465,3.1936,3.1575,3.143,3.1286,3.1323,3.2261,3.3212,3.3549,3.3777,3.4102,3.4378,3.4354,3.445,3.4727,3.4799,3.4799,3.4823,3.4871,3.5087,3.5232,3.5304,3.5472,3.5616,3.5677,3.5701,3.5556,3.3404,3.3536,3.3387,3.3788,3.454,3.5229,3.5871,3.642,3.6909,3.7144,3.7298,3.7308,3.7452,3.7701,3.7672,3.7596,3.7577,3.7538,3.7413,3.7075,3.7095,3.7394,3.7974,3.8572,3.9106,3.9781,4.0277,4.0586,4.0659,4.0716,4.0716,4.0716,4.0716,4.0716,4.0716,4.0716,4.0716,4.0716,4.0716,4.0716,4.0716,4.0716,4.0716,4.0716,4.0716,4.0716,4.0716,4.0716,4.0716,4.0688,4.0552,4.0201,3.9826,3.9492,3.8888,3.8308,3.7921,3.7289,3.6484,3.5523,3.4969,3.4799,3.4799,3.4751,3.4631,3.4535,3.4294,3.4174,3.427,3.4378,3.4438,3.4462,3.4535,3.4583,3.4655,3.4715,3.4679,3.4583,3.4402,3.4054,3.3753,3.3525,3.3501,3.3441,3.3429,3.3104,3.3212,3.3464,3.3272,3.2766,3.2393,3.2152,3.2357,3.2442,3.2792,3.3633,3.415,3.4438,3.4559,3.4607,3.4571,3.4679,3.4775,3.4799,3.4799,3.4895,3.4991,3.5244,3.5532,3.5773,3.5989,3.6302,3.6398,3.6362,3.617,3.3326,3.3369,3.3326,3.3751,3.4551,3.5219,3.5824,3.6439,3.7158,3.7452,3.7538,3.7558,3.7701,3.7957,3.7863,3.7806,3.7891,3.7644,3.7615,3.7394,3.724,3.7488,3.7964,3.8629,3.9229,3.9809,4.0333,4.0716,4.0716,4.0716,4.0716,4.0716,4.0716,4.0716,4.0716,4.0716,4.0716,4.0716,4.0716,4.0716,4.0716,4.0716,4.0716,4.0716,4.0716,4.0716,4.0716,4.0716,4.0716,4.0688,4.0716,4.0559,4.0369,4.0326,4.0207,3.9804,3.8432,3.7646,3.6754,3.5679,3.4945,3.4799,3.4799,3.4799,3.4775,3.4799,3.4751,3.4691,3.4667,3.4751,3.4799,3.4799,3.4799,3.4799,3.4799,3.4799,3.4799,3.4739,3.4715,3.4474,3.4174,3.4102,3.4054,3.4054,3.4042,3.4138,3.4318,3.4438,3.4354,3.397,3.3477,3.3332,3.3874,3.403,3.403,3.3982,3.4438,3.4631,3.4703,3.4751,3.4799,3.4799,3.4799,3.4799,3.4823,3.4991,3.522,3.546,3.5749,3.6157,3.6555,3.6892,3.6964,3.694,3.6736,3.3352,3.3413,3.3343,3.361,3.4165,3.4785,3.5463,3.6181,3.6977,3.7481,3.7711,3.7758,3.7891,3.8136,3.7996,3.7882,3.7958,3.772,3.7462,3.7289,3.7383,3.7763,3.8219,3.8723,3.95,4.008,4.0445,4.0716,4.0716,4.0716,4.0716,4.0716,4.0716,4.0716,4.0716,4.0716,4.0716,4.0716,4.0716,4.0716,4.0716,4.0744,4.0716,4.0716,4.0716,4.0716,4.0716,4.0716,4.0716,4.0716,4.0716,4.0716,4.0612,4.0602,4.0137,3.9309,3.8251,3.7393,3.6531,3.5703,3.4884,3.4884,3.486,3.4884,3.4799,3.4799,3.4799,3.4715,3.4715,3.4799,3.4799,3.4799,3.4799,3.4799,3.4799,3.4799,3.4799,3.4775,3.4763,3.4667,3.4511,3.4487,3.4462,3.4475,3.4462,3.4474,3.4763,3.4811,3.4823,3.4799,3.4402,3.4234,3.4559,3.4727,3.4474,3.445,3.4655,3.4775,3.4823,3.4835,3.4859,3.4823,3.4799,3.4943,3.5087,3.5292,3.5508,3.5869,3.6266,3.6723,3.7108,3.7482,3.7482,3.7482,3.7337,3.3422,3.3527,3.3378,3.3413,3.3673,3.4282,3.4957,3.5699,3.6645,3.7314,3.7766,3.7881,3.8033,3.81,3.8005,3.7834,3.7692,3.7615,3.7318,3.7231,3.7134,3.7707,3.8335,3.8894,3.9651,4.0249,4.0659,4.0716,4.0716,4.0716,4.0716,4.0716,4.0716,4.0716,4.0716,4.0716,4.0716,4.0716,4.0716,4.0772,4.0772,4.08,4.0884,4.0856,4.08,4.0828,4.0828,4.0744,4.0744,4.0856,4.0912,4.093,4.0828,4.0768,3.9957,3.9153,3.8262,3.7138,3.6035,3.5547,3.5187,3.509,3.5054,3.5102,3.5114,3.4993,3.4993,3.4799,3.4799,3.4799,3.4799,3.4799,3.4799,3.4823,3.4823,3.4823,3.4847,3.4847,3.4847,3.4823,3.4823,3.4799,3.4775,3.4787,3.4823,3.4811,3.4835,3.4859,3.4871,3.4823,3.4607,3.4511,3.4679,3.4739,3.4739,3.4763,3.4799,3.4895,3.4919,3.4931,3.4979,3.5111,3.5208,3.5292,3.546,3.5749,3.6122,3.6507,3.6916,3.7241,3.7482,3.7746,3.777,3.777,3.788,3.3474,3.3352,3.3317,3.3413,3.3699,3.4414,3.4924,3.5397,3.6673,3.7325,3.752,3.7944,3.8174,3.8193,3.7996,3.7872,3.7844,3.7672,3.7692,3.7711,3.7308,3.774,3.8406,3.9102,3.9697,4.0266,4.0716,4.0716,4.0716,4.0716,4.0744,4.0772,4.0744,4.0744,4.0744,4.08,4.0884,4.0884,4.0951,4.1064,4.1351,4.1407,4.1435,4.1435,4.1435,4.1435,4.1323,4.094,4.1081,4.1267,4.1368,4.134,4.1182,4.0919,4.023,3.9458,3.8578,3.7727,3.6847,3.6272,3.6108,3.6172,3.6255,3.6346,3.6156,3.5728,3.5476,3.4835,3.4799,3.4799,3.4799,3.4799,3.4799,3.4871,3.4895,3.4943,3.4991,3.4991,3.4979,3.4943,3.4919,3.4871,3.4775,3.4847,3.4979,3.4967,3.4979,3.5027,3.5219,3.5063,3.4847,3.4847,3.4871,3.4799,3.4775,3.4775,3.4823,3.4919,3.5135,3.5352,3.5496,3.5568,3.564,3.5725,3.6013,3.635,3.6747,3.7012,3.7337,3.7602,3.777,3.7952,3.8,3.8,3.8]}]]